Results 1 to 4 of 4
  1. #1
    Join Date
    Aug 2009
    Location
    New Zealand
    Age
    53
    Posts
    2,556
    Rep Power
    20

    Wet Bulb and Dry Bulb Data



    Hi all,

    I am after web and dry bulb temps "monthly averages" for places around the UK
    Manchester to start with, other centers would also be great.

    Either the Data itself or a free link to where I can look up the data.

    cheers

    Mad



  2. #2
    Join Date
    Feb 2012
    Location
    Bolivia
    Posts
    270
    Rep Power
    7

    Re: Wet Bulb and Dry Bulb Data

    No. But I can give you this for weather station C0710 nearest Manchester, Manchester, UK

    Temperature Manchester UK Relative Humidity Manchester UK
    01-ene-2011 12:10:00 AM 6.1 01-ene-2011 12:10:00 AM 0.888
    01-ene-2011 12:30:00 AM 6.1 01-ene-2011 12:30:00 AM 0.901
    01-ene-2011 12:40:00 AM 6.7 01-ene-2011 12:40:00 AM 0.895
    01-ene-2011 1:00:00 AM 6.7 01-ene-2011 1:00:00 AM 0.889
    01-ene-2011 1:10:00 AM 6.7 01-ene-2011 1:10:00 AM 0.889
    01-ene-2011 1:30:00 AM 6.7 01-ene-2011 1:30:00 AM 0.889
    01-ene-2011 1:40:00 AM 6.7 01-ene-2011 1:40:00 AM 0.877
    01-ene-2011 2:00:00 AM 6.7 01-ene-2011 2:00:00 AM 0.877
    01-ene-2011 2:10:00 AM 6.7 01-ene-2011 2:10:00 AM 0.877
    01-ene-2011 2:30:00 AM 6.7 01-ene-2011 2:30:00 AM 0.877
    01-ene-2011 2:40:00 AM 6.7 01-ene-2011 2:40:00 AM 0.877
    01-ene-2011 3:00:00 AM 6.7 01-ene-2011 3:00:00 AM 0.877
    01-ene-2011 3:10:00 AM 6.7 01-ene-2011 3:10:00 AM 0.871
    01-ene-2011 3:30:00 AM 6.7 01-ene-2011 3:30:00 AM 0.877
    01-ene-2011 3:40:00 AM 6.7 01-ene-2011 3:40:00 AM 0.877
    01-ene-2011 4:00:00 AM 6.7 01-ene-2011 4:00:00 AM 0.877
    01-ene-2011 4:10:00 AM 6.7 01-ene-2011 4:10:00 AM 0.877
    01-ene-2011 4:20:00 AM 6.7 01-ene-2011 4:20:00 AM 0.877
    01-ene-2011 4:40:00 AM 6.7 01-ene-2011 4:40:00 AM 0.877
    01-ene-2011 5:00:00 AM 6.7 01-ene-2011 5:00:00 AM 0.889
    01-ene-2011 5:10:00 AM 6.7 01-ene-2011 5:10:00 AM 0.889
    01-ene-2011 5:30:00 AM 6.7 01-ene-2011 5:30:00 AM 0.895
    01-ene-2011 5:40:00 AM 6.7 01-ene-2011 5:40:00 AM 0.895
    01-ene-2011 6:00:00 AM 6.7 01-ene-2011 6:00:00 AM 0.908
    01-ene-2011 6:10:00 AM 6.7 01-ene-2011 6:10:00 AM 0.908
    01-ene-2011 6:30:00 AM 6.7 01-ene-2011 6:30:00 AM 0.92
    01-ene-2011 6:40:00 AM 6.7 01-ene-2011 6:40:00 AM 0.92
    01-ene-2011 7:00:00 AM 6.7 01-ene-2011 7:00:00 AM 0.927
    01-ene-2011 7:10:00 AM 6.7 01-ene-2011 7:10:00 AM 0.927
    01-ene-2011 7:30:00 AM 6.7 01-ene-2011 7:30:00 AM 0.927
    01-ene-2011 7:40:00 AM 6.7 01-ene-2011 7:40:00 AM 0.927
    01-ene-2011 8:00:00 AM 6.1 01-ene-2011 8:00:00 AM 0.94
    01-ene-2011 8:10:00 AM 6.1 01-ene-2011 8:10:00 AM 0.94
    01-ene-2011 8:30:00 AM 6.1 01-ene-2011 8:30:00 AM 0.94
    01-ene-2011 8:40:00 AM 6.1 01-ene-2011 8:40:00 AM 0.94
    01-ene-2011 9:00:00 AM 6.1 01-ene-2011 9:00:00 AM 0.94
    01-ene-2011 9:10:00 AM 6.1 01-ene-2011 9:10:00 AM 0.94
    01-ene-2011 9:30:00 AM 6.1 01-ene-2011 9:30:00 AM 0.953
    01-ene-2011 9:40:00 AM 6.1 01-ene-2011 9:40:00 AM 0.94
    01-ene-2011 10:00:00 AM 6.7 01-ene-2011 10:00:00 AM 0.946
    01-ene-2011 10:10:00 AM 6.7 01-ene-2011 10:10:00 AM 0.946
    01-ene-2011 10:30:00 AM 6.1 01-ene-2011 10:30:00 AM 0.933
    01-ene-2011 10:40:00 AM 5.6 01-ene-2011 10:40:00 AM 0.926
    01-ene-2011 11:00:00 AM 5 01-ene-2011 11:00:00 AM 0.932
    01-ene-2011 11:10:00 AM 5 01-ene-2011 11:10:00 AM 0.932
    01-ene-2011 11:30:00 AM 5 01-ene-2011 11:30:00 AM 0.932
    01-ene-2011 11:40:00 AM 5 01-ene-2011 11:40:00 AM 0.919
    01-ene-2011 12:00:00 PM 5 01-ene-2011 12:00:00 PM 0.913
    01-ene-2011 12:10:00 PM 5 01-ene-2011 12:10:00 PM 0.9
    01-ene-2011 12:30:00 PM 5 01-ene-2011 12:30:00 PM 0.888
    01-ene-2011 12:40:00 PM 5 01-ene-2011 12:40:00 PM 0.881
    01-ene-2011 1:00:00 PM 5 01-ene-2011 1:00:00 PM 0.869
    01-ene-2011 1:10:00 PM 4.4 01-ene-2011 1:10:00 PM 0.862
    01-ene-2011 1:40:00 PM 4.4 01-ene-2011 1:40:00 PM 0.844
    01-ene-2011 2:00:00 PM 4.4 01-ene-2011 2:00:00 PM 0.832
    01-ene-2011 2:10:00 PM 4.4 01-ene-2011 2:10:00 PM 0.832
    01-ene-2011 2:20:00 PM 4.4 01-ene-2011 2:20:00 PM 0.814
    01-ene-2011 3:10:00 PM 4.4 01-ene-2011 3:10:00 PM 0.78
    01-ene-2011 3:30:00 PM 4.4 01-ene-2011 3:30:00 PM 0.78
    01-ene-2011 3:40:00 PM 4.4 01-ene-2011 3:40:00 PM 0.78
    01-ene-2011 4:00:00 PM 3.9 01-ene-2011 4:00:00 PM 0.779
    01-ene-2011 4:10:00 PM 3.9 01-ene-2011 4:10:00 PM 0.779
    01-ene-2011 4:30:00 PM 3.9 01-ene-2011 4:30:00 PM 0.79
    01-ene-2011 4:40:00 PM 3.9 01-ene-2011 4:40:00 PM 0.79
    01-ene-2011 5:00:00 PM 3.3 01-ene-2011 5:00:00 PM 0.813
    01-ene-2011 5:10:00 PM 3.3 01-ene-2011 5:10:00 PM 0.813
    01-ene-2011 5:30:00 PM 3.3 01-ene-2011 5:30:00 PM 0.813
    01-ene-2011 5:40:00 PM 3.3 01-ene-2011 5:40:00 PM 0.801
    01-ene-2011 6:00:00 PM 3.3 01-ene-2011 6:00:00 PM 0.789
    01-ene-2011 6:10:00 PM 3.3 01-ene-2011 6:10:00 PM 0.789
    01-ene-2011 6:30:00 PM 3.3 01-ene-2011 6:30:00 PM 0.789
    01-ene-2011 6:40:00 PM 3.3 01-ene-2011 6:40:00 PM 0.778
    01-ene-2011 7:00:00 PM 3.3 01-ene-2011 7:00:00 PM 0.778
    01-ene-2011 7:10:00 PM 3.3 01-ene-2011 7:10:00 PM 0.778
    01-ene-2011 7:30:00 PM 3.3 01-ene-2011 7:30:00 PM 0.778
    01-ene-2011 7:40:00 PM 3.3 01-ene-2011 7:40:00 PM 0.767
    01-ene-2011 8:00:00 PM 3.3 01-ene-2011 8:00:00 PM 0.756
    01-ene-2011 8:10:00 PM 3.3 01-ene-2011 8:10:00 PM 0.756
    01-ene-2011 8:30:00 PM 3.3 01-ene-2011 8:30:00 PM 0.756
    01-ene-2011 8:40:00 PM 3.3 01-ene-2011 8:40:00 PM 0.756
    01-ene-2011 9:00:00 PM 3.3 01-ene-2011 9:00:00 PM 0.756
    01-ene-2011 9:10:00 PM 3.3 01-ene-2011 9:10:00 PM 0.756
    01-ene-2011 9:30:00 PM 3.3 01-ene-2011 9:30:00 PM 0.745
    01-ene-2011 9:40:00 PM 2.8 01-ene-2011 9:40:00 PM 0.733
    01-ene-2011 10:00:00 PM 3.3 01-ene-2011 10:00:00 PM 0.729
    01-ene-2011 10:10:00 PM 2.8 01-ene-2011 10:10:00 PM 0.712
    01-ene-2011 10:30:00 PM 2.8 01-ene-2011 10:30:00 PM 0.706
    01-ene-2011 10:40:00 PM 2.8 01-ene-2011 10:40:00 PM 0.696
    01-ene-2011 11:00:00 PM 2.8 01-ene-2011 11:00:00 PM 0.686
    01-ene-2011 11:10:00 PM 2.8 01-ene-2011 11:10:00 PM 0.696
    01-ene-2011 11:30:00 PM 2.8 01-ene-2011 11:30:00 PM 0.696
    01-ene-2011 11:40:00 PM 2.2 01-ene-2011 11:40:00 PM 0.705
    02-ene-2011 12:10:00 AM 2.2 02-ene-2011 12:10:00 AM 0.705
    02-ene-2011 12:30:00 AM 2.2 02-ene-2011 12:30:00 AM 0.705
    02-ene-2011 12:40:00 AM 2.2 02-ene-2011 12:40:00 AM 0.705
    02-ene-2011 1:00:00 AM 2.2 02-ene-2011 1:00:00 AM 0.705
    02-ene-2011 1:10:00 AM 2.2 02-ene-2011 1:10:00 AM 0.705
    02-ene-2011 1:30:00 AM 2.2 02-ene-2011 1:30:00 AM 0.716
    02-ene-2011 1:40:00 AM 2.2 02-ene-2011 1:40:00 AM 0.716
    02-ene-2011 2:00:00 AM 2.2 02-ene-2011 2:00:00 AM 0.716
    02-ene-2011 2:10:00 AM 2.2 02-ene-2011 2:10:00 AM 0.705
    02-ene-2011 2:30:00 AM 2.2 02-ene-2011 2:30:00 AM 0.695
    02-ene-2011 2:40:00 AM 2.2 02-ene-2011 2:40:00 AM 0.695
    02-ene-2011 3:00:00 AM 2.2 02-ene-2011 3:00:00 AM 0.674
    02-ene-2011 3:10:00 AM 1.7 02-ene-2011 3:10:00 AM 0.673
    02-ene-2011 3:30:00 AM 1.7 02-ene-2011 3:30:00 AM 0.663
    02-ene-2011 3:40:00 AM 1.7 02-ene-2011 3:40:00 AM 0.673
    02-ene-2011 4:00:00 AM 1.7 02-ene-2011 4:00:00 AM 0.673
    02-ene-2011 4:10:00 AM 1.7 02-ene-2011 4:10:00 AM 0.673
    02-ene-2011 4:30:00 AM 1.7 02-ene-2011 4:30:00 AM 0.673
    02-ene-2011 4:40:00 AM 1.7 02-ene-2011 4:40:00 AM 0.673
    02-ene-2011 5:00:00 AM 1.7 02-ene-2011 5:00:00 AM 0.673
    02-ene-2011 5:10:00 AM 1.7 02-ene-2011 5:10:00 AM 0.673
    02-ene-2011 5:30:00 AM 1.1 02-ene-2011 5:30:00 AM 0.687
    02-ene-2011 5:40:00 AM 1.1 02-ene-2011 5:40:00 AM 0.677
    02-ene-2011 6:00:00 AM 1.7 02-ene-2011 6:00:00 AM 0.663
    02-ene-2011 6:10:00 AM 1.7 02-ene-2011 6:10:00 AM 0.663
    02-ene-2011 6:30:00 AM 1.7 02-ene-2011 6:30:00 AM 0.653
    02-ene-2011 6:40:00 AM 1.7 02-ene-2011 6:40:00 AM 0.653
    02-ene-2011 7:00:00 AM 1.7 02-ene-2011 7:00:00 AM 0.644
    02-ene-2011 7:10:00 AM 1.7 02-ene-2011 7:10:00 AM 0.644
    02-ene-2011 7:30:00 AM 1.7 02-ene-2011 7:30:00 AM 0.644
    02-ene-2011 7:40:00 AM 1.7 02-ene-2011 7:40:00 AM 0.644
    02-ene-2011 8:00:00 AM 1.7 02-ene-2011 8:00:00 AM 0.644
    02-ene-2011 8:10:00 AM 1.7 02-ene-2011 8:10:00 AM 0.644
    02-ene-2011 8:30:00 AM 1.7 02-ene-2011 8:30:00 AM 0.644
    02-ene-2011 8:40:00 AM 1.7 02-ene-2011 8:40:00 AM 0.644
    02-ene-2011 9:00:00 AM 1.1 02-ene-2011 9:00:00 AM 0.657
    02-ene-2011 9:10:00 AM 1.1 02-ene-2011 9:10:00 AM 0.657
    02-ene-2011 9:30:00 AM 1.7 02-ene-2011 9:30:00 AM 0.663
    02-ene-2011 9:40:00 AM 1.7 02-ene-2011 9:40:00 AM 0.663
    02-ene-2011 10:00:00 AM 2.2 02-ene-2011 10:00:00 AM 0.645
    02-ene-2011 10:30:00 AM 2.2 02-ene-2011 10:30:00 AM 0.626
    02-ene-2011 10:40:00 AM 2.2 02-ene-2011 10:40:00 AM 0.635
    02-ene-2011 11:00:00 AM 2.2 02-ene-2011 11:00:00 AM 0.645
    02-ene-2011 11:10:00 AM 2.8 02-ene-2011 11:10:00 AM 0.641
    02-ene-2011 11:30:00 AM 2.8 02-ene-2011 11:30:00 AM 0.632
    02-ene-2011 11:40:00 AM 3.3 02-ene-2011 11:40:00 AM 0.638
    02-ene-2011 12:00:00 PM 3.3 02-ene-2011 12:00:00 PM 0.624
    02-ene-2011 12:10:00 PM 3.3 02-ene-2011 12:10:00 PM 0.638
    02-ene-2011 12:30:00 PM 3.9 02-ene-2011 12:30:00 PM 0.625
    02-ene-2011 12:40:00 PM 3.9 02-ene-2011 12:40:00 PM 0.593
    02-ene-2011 1:00:00 PM 3.9 02-ene-2011 1:00:00 PM 0.585
    02-ene-2011 1:10:00 PM 3.9 02-ene-2011 1:10:00 PM 0.585
    02-ene-2011 1:30:00 PM 3.9 02-ene-2011 1:30:00 PM 0.572
    02-ene-2011 1:40:00 PM 3.9 02-ene-2011 1:40:00 PM 0.563
    02-ene-2011 2:00:00 PM 3.3 02-ene-2011 2:00:00 PM 0.566
    02-ene-2011 2:10:00 PM 3.9 02-ene-2011 2:10:00 PM 0.572
    02-ene-2011 2:30:00 PM 3.3 02-ene-2011 2:30:00 PM 0.596
    02-ene-2011 2:40:00 PM 3.3 02-ene-2011 2:40:00 PM 0.605
    02-ene-2011 3:00:00 PM 3.3 02-ene-2011 3:00:00 PM 0.624
    02-ene-2011 3:10:00 PM 3.3 02-ene-2011 3:10:00 PM 0.624
    02-ene-2011 3:30:00 PM 3.3 02-ene-2011 3:30:00 PM 0.638
    02-ene-2011 3:40:00 PM 3.3 02-ene-2011 3:40:00 PM 0.638
    02-ene-2011 4:00:00 PM 3.3 02-ene-2011 4:00:00 PM 0.647
    02-ene-2011 4:10:00 PM 3.3 02-ene-2011 4:10:00 PM 0.647
    02-ene-2011 4:30:00 PM 2.8 02-ene-2011 4:30:00 PM 0.656
    02-ene-2011 4:40:00 PM 2.8 02-ene-2011 4:40:00 PM 0.656
    02-ene-2011 5:00:00 PM 2.8 02-ene-2011 5:00:00 PM 0.656
    02-ene-2011 5:10:00 PM 2.8 02-ene-2011 5:10:00 PM 0.656
    02-ene-2011 5:30:00 PM 2.8 02-ene-2011 5:30:00 PM 0.666
    02-ene-2011 5:40:00 PM 2.8 02-ene-2011 5:40:00 PM 0.676
    02-ene-2011 6:00:00 PM 2.8 02-ene-2011 6:00:00 PM 0.676
    02-ene-2011 6:10:00 PM 2.8 02-ene-2011 6:10:00 PM 0.676
    02-ene-2011 6:30:00 PM 2.2 02-ene-2011 6:30:00 PM 0.684
    02-ene-2011 6:40:00 PM 2.2 02-ene-2011 6:40:00 PM 0.684
    02-ene-2011 7:00:00 PM 2.2 02-ene-2011 7:00:00 PM 0.684
    02-ene-2011 7:10:00 PM 2.2 02-ene-2011 7:10:00 PM 0.684
    02-ene-2011 7:30:00 PM 2.2 02-ene-2011 7:30:00 PM 0.674
    02-ene-2011 7:40:00 PM 2.2 02-ene-2011 7:40:00 PM 0.674
    02-ene-2011 8:00:00 PM 2.2 02-ene-2011 8:00:00 PM 0.684
    02-ene-2011 8:10:00 PM 2.2 02-ene-2011 8:10:00 PM 0.674
    02-ene-2011 8:30:00 PM 2.2 02-ene-2011 8:30:00 PM 0.664
    02-ene-2011 8:40:00 PM 2.2 02-ene-2011 8:40:00 PM 0.664
    02-ene-2011 9:00:00 PM 2.2 02-ene-2011 9:00:00 PM 0.664
    02-ene-2011 9:10:00 PM 2.2 02-ene-2011 9:10:00 PM 0.664
    02-ene-2011 9:30:00 PM 2.2 02-ene-2011 9:30:00 PM 0.664
    02-ene-2011 9:40:00 PM 2.2 02-ene-2011 9:40:00 PM 0.674
    02-ene-2011 10:00:00 PM 2.2 02-ene-2011 10:00:00 PM 0.684
    02-ene-2011 10:10:00 PM 2.2 02-ene-2011 10:10:00 PM 0.695
    02-ene-2011 10:30:00 PM 1.7 02-ene-2011 10:30:00 PM 0.694
    02-ene-2011 10:40:00 PM 1.7 02-ene-2011 10:40:00 PM 0.704
    02-ene-2011 11:00:00 PM 1.7 02-ene-2011 11:00:00 PM 0.704
    02-ene-2011 11:10:00 PM 1.7 02-ene-2011 11:10:00 PM 0.704
    02-ene-2011 11:30:00 PM 1.7 02-ene-2011 11:30:00 PM 0.704
    02-ene-2011 11:40:00 PM 1.1 02-ene-2011 11:40:00 PM 0.713
    03-ene-2011 12:10:00 AM 1.1 03-ene-2011 12:10:00 AM 0.724
    03-ene-2011 12:30:00 AM 1.7 03-ene-2011 12:30:00 AM 0.715
    03-ene-2011 12:40:00 AM 1.7 03-ene-2011 12:40:00 AM 0.704
    03-ene-2011 1:00:00 AM 1.7 03-ene-2011 1:00:00 AM 0.704
    03-ene-2011 1:10:00 AM 1.7 03-ene-2011 1:10:00 AM 0.704
    03-ene-2011 1:30:00 AM 1.1 03-ene-2011 1:30:00 AM 0.708
    03-ene-2011 1:40:00 AM 1.1 03-ene-2011 1:40:00 AM 0.708
    03-ene-2011 2:00:00 AM 1.1 03-ene-2011 2:00:00 AM 0.713
    03-ene-2011 2:10:00 AM 1.1 03-ene-2011 2:10:00 AM 0.713
    03-ene-2011 2:30:00 AM 1.1 03-ene-2011 2:30:00 AM 0.724
    03-ene-2011 2:40:00 AM 1.1 03-ene-2011 2:40:00 AM 0.724
    03-ene-2011 3:00:00 AM 1.1 03-ene-2011 3:00:00 AM 0.724
    03-ene-2011 3:10:00 AM 1.1 03-ene-2011 3:10:00 AM 0.724
    03-ene-2011 3:30:00 AM 1.1 03-ene-2011 3:30:00 AM 0.724
    03-ene-2011 3:40:00 AM 1.1 03-ene-2011 3:40:00 AM 0.735
    03-ene-2011 4:00:00 AM 1.1 03-ene-2011 4:00:00 AM 0.735
    03-ene-2011 4:12:00 AM 0.6 03-ene-2011 4:12:00 AM 0.734
    03-ene-2011 4:30:00 AM 0.6 03-ene-2011 4:30:00 AM 0.745
    03-ene-2011 4:40:00 AM 0.6 03-ene-2011 4:40:00 AM 0.745
    03-ene-2011 5:00:00 AM 0.6 03-ene-2011 5:00:00 AM 0.745
    03-ene-2011 5:10:00 AM 0.6 03-ene-2011 5:10:00 AM 0.745
    03-ene-2011 5:30:00 AM 0.6 03-ene-2011 5:30:00 AM 0.745
    03-ene-2011 5:40:00 AM 0.6 03-ene-2011 5:40:00 AM 0.751
    03-ene-2011 6:00:00 AM 0.6 03-ene-2011 6:00:00 AM 0.762
    03-ene-2011 6:10:00 AM 0.6 03-ene-2011 6:10:00 AM 0.762
    03-ene-2011 6:30:00 AM 0.6 03-ene-2011 6:30:00 AM 0.762
    03-ene-2011 6:40:00 AM 0 03-ene-2011 6:40:00 AM 0.767
    03-ene-2011 7:00:00 AM 0 03-ene-2011 7:00:00 AM 0.767
    03-ene-2011 7:10:00 AM 0 03-ene-2011 7:10:00 AM 0.767
    03-ene-2011 7:30:00 AM 0.6 03-ene-2011 7:30:00 AM 0.762
    03-ene-2011 7:40:00 AM 0.6 03-ene-2011 7:40:00 AM 0.762
    03-ene-2011 8:00:00 AM 0 03-ene-2011 8:00:00 AM 0.767
    03-ene-2011 8:10:00 AM 0 03-ene-2011 8:10:00 AM 0.767
    03-ene-2011 8:30:00 AM 0 03-ene-2011 8:30:00 AM 0.778
    03-ene-2011 8:40:00 AM 0 03-ene-2011 8:40:00 AM 0.778
    03-ene-2011 9:00:00 AM 0 03-ene-2011 9:00:00 AM 0.778
    03-ene-2011 9:10:00 AM 0 03-ene-2011 9:10:00 AM 0.778
    03-ene-2011 9:30:00 AM 0 03-ene-2011 9:30:00 AM 0.778
    03-ene-2011 9:40:00 AM 0.6 03-ene-2011 9:40:00 AM 0.762
    03-ene-2011 10:00:00 AM 0.6 03-ene-2011 10:00:00 AM 0.774
    03-ene-2011 10:10:00 AM 0.6 03-ene-2011 10:10:00 AM 0.751
    03-ene-2011 10:30:00 AM 0.6 03-ene-2011 10:30:00 AM 0.751
    03-ene-2011 10:40:00 AM 0.6 03-ene-2011 10:40:00 AM 0.745
    03-ene-2011 11:00:00 AM 1.1 03-ene-2011 11:00:00 AM 0.735
    03-ene-2011 11:10:00 AM 0.6 03-ene-2011 11:10:00 AM 0.734
    03-ene-2011 11:30:00 AM 1.1 03-ene-2011 11:30:00 AM 0.735
    03-ene-2011 11:40:00 AM 2.2 03-ene-2011 11:40:00 AM 0.726
    03-ene-2011 12:00:00 PM 2.2 03-ene-2011 12:00:00 PM 0.684
    03-ene-2011 12:10:00 PM 2.2 03-ene-2011 12:10:00 PM 0.664
    03-ene-2011 12:30:00 PM 2.2 03-ene-2011 12:30:00 PM 0.664
    03-ene-2011 12:40:00 PM 2.2 03-ene-2011 12:40:00 PM 0.664
    03-ene-2011 1:00:00 PM 2.2 03-ene-2011 1:00:00 PM 0.635
    03-ene-2011 1:10:00 PM 2.2 03-ene-2011 1:10:00 PM 0.654
    03-ene-2011 1:30:00 PM 1.7 03-ene-2011 1:30:00 PM 0.673
    03-ene-2011 1:40:00 PM 1.7 03-ene-2011 1:40:00 PM 0.673
    03-ene-2011 2:00:00 PM 2.2 03-ene-2011 2:00:00 PM 0.664
    03-ene-2011 2:10:00 PM 2.2 03-ene-2011 2:10:00 PM 0.654
    03-ene-2011 2:30:00 PM 2.2 03-ene-2011 2:30:00 PM 0.616
    03-ene-2011 2:40:00 PM 2.2 03-ene-2011 2:40:00 PM 0.626
    03-ene-2011 3:00:00 PM 2.2 03-ene-2011 3:00:00 PM 0.635
    03-ene-2011 3:10:00 PM 2.2 03-ene-2011 3:10:00 PM 0.635
    03-ene-2011 3:30:00 PM 2.2 03-ene-2011 3:30:00 PM 0.645
    03-ene-2011 3:40:00 PM 2.2 03-ene-2011 3:40:00 PM 0.645
    03-ene-2011 4:00:00 PM 1.7 03-ene-2011 4:00:00 PM 0.653
    03-ene-2011 4:10:00 PM 1.7 03-ene-2011 4:10:00 PM 0.663
    03-ene-2011 4:30:00 PM 1.1 03-ene-2011 4:30:00 PM 0.667
    03-ene-2011 4:40:00 PM 1.1 03-ene-2011 4:40:00 PM 0.677
    03-ene-2011 5:00:00 PM 1.1 03-ene-2011 5:00:00 PM 0.687
    03-ene-2011 5:10:00 PM 1.1 03-ene-2011 5:10:00 PM 0.687
    03-ene-2011 5:30:00 PM 0.6 03-ene-2011 5:30:00 PM 0.681
    03-ene-2011 5:40:00 PM 0.6 03-ene-2011 5:40:00 PM 0.681
    03-ene-2011 6:00:00 PM 0.6 03-ene-2011 6:00:00 PM 0.691
    03-ene-2011 6:10:00 PM 0.6 03-ene-2011 6:10:00 PM 0.691
    03-ene-2011 6:30:00 PM 0 03-ene-2011 6:30:00 PM 0.695
    03-ene-2011 6:40:00 PM 0 03-ene-2011 6:40:00 PM 0.695
    03-ene-2011 7:00:00 PM 0 03-ene-2011 7:00:00 PM 0.706
    03-ene-2011 7:10:00 PM 0 03-ene-2011 7:10:00 PM 0.706
    03-ene-2011 7:30:00 PM 0 03-ene-2011 7:30:00 PM 0.717
    03-ene-2011 7:40:00 PM -0.5 03-ene-2011 7:40:00 PM 0.71
    03-ene-2011 8:00:00 PM -0.5 03-ene-2011 8:00:00 PM 0.721
    03-ene-2011 8:10:00 PM -0.5 03-ene-2011 8:10:00 PM 0.721
    03-ene-2011 8:30:00 PM -0.5 03-ene-2011 8:30:00 PM 0.732
    03-ene-2011 8:40:00 PM -0.5 03-ene-2011 8:40:00 PM 0.732
    03-ene-2011 9:00:00 PM -0.5 03-ene-2011 9:00:00 PM 0.743
    03-ene-2011 9:10:00 PM -0.5 03-ene-2011 9:10:00 PM 0.743
    03-ene-2011 9:30:00 PM -0.5 03-ene-2011 9:30:00 PM 0.743
    03-ene-2011 9:40:00 PM -0.5 03-ene-2011 9:40:00 PM 0.743
    03-ene-2011 10:00:00 PM -0.5 03-ene-2011 10:00:00 PM 0.743
    03-ene-2011 10:10:00 PM -0.5 03-ene-2011 10:10:00 PM 0.743
    03-ene-2011 10:30:00 PM -0.5 03-ene-2011 10:30:00 PM 0.743
    03-ene-2011 10:40:00 PM -0.5 03-ene-2011 10:40:00 PM 0.743
    03-ene-2011 11:00:00 PM 0 03-ene-2011 11:00:00 PM 0.744
    03-ene-2011 11:10:00 PM 0 03-ene-2011 11:10:00 PM 0.733
    03-ene-2011 11:30:00 PM 0 03-ene-2011 11:30:00 PM 0.733
    03-ene-2011 11:40:00 PM 0 03-ene-2011 11:40:00 PM 0.733
    04-ene-2011 12:10:00 AM 0 04-ene-2011 12:10:00 AM 0.733
    04-ene-2011 12:30:00 AM 0 04-ene-2011 12:30:00 AM 0.727
    04-ene-2011 12:40:00 AM 0 04-ene-2011 12:40:00 AM 0.727
    04-ene-2011 1:00:00 AM 0 04-ene-2011 1:00:00 AM 0.727
    04-ene-2011 1:10:00 AM 0 04-ene-2011 1:10:00 AM 0.727
    04-ene-2011 1:30:00 AM 0 04-ene-2011 1:30:00 AM 0.733
    04-ene-2011 1:40:00 AM 0 04-ene-2011 1:40:00 AM 0.727
    04-ene-2011 2:00:00 AM -0.5 04-ene-2011 2:00:00 AM 0.721
    04-ene-2011 2:10:00 AM -0.5 04-ene-2011 2:10:00 AM 0.732
    04-ene-2011 2:30:00 AM -0.5 04-ene-2011 2:30:00 AM 0.732
    04-ene-2011 2:40:00 AM -0.5 04-ene-2011 2:40:00 AM 0.732
    04-ene-2011 3:00:00 AM 0 04-ene-2011 3:00:00 AM 0.744
    04-ene-2011 3:10:00 AM 0 04-ene-2011 3:10:00 AM 0.744
    04-ene-2011 3:30:00 AM 0 04-ene-2011 3:30:00 AM 0.733
    04-ene-2011 3:40:00 AM 0 04-ene-2011 3:40:00 AM 0.733
    04-ene-2011 4:00:00 AM 0 04-ene-2011 4:00:00 AM 0.733
    04-ene-2011 4:12:00 AM 0 04-ene-2011 4:12:00 AM 0.744
    04-ene-2011 4:30:00 AM 0 04-ene-2011 4:30:00 AM 0.755
    04-ene-2011 4:40:00 AM 0 04-ene-2011 4:40:00 AM 0.755
    04-ene-2011 5:00:00 AM 0 04-ene-2011 5:00:00 AM 0.755
    04-ene-2011 5:10:00 AM 0 04-ene-2011 5:10:00 AM 0.767
    04-ene-2011 5:30:00 AM 0 04-ene-2011 5:30:00 AM 0.778
    04-ene-2011 5:40:00 AM -0.5 04-ene-2011 5:40:00 AM 0.772
    04-ene-2011 6:00:00 AM -0.5 04-ene-2011 6:00:00 AM 0.801
    04-ene-2011 6:10:00 AM -0.5 04-ene-2011 6:10:00 AM 0.801
    04-ene-2011 6:30:00 AM -0.5 04-ene-2011 6:30:00 AM 0.825
    04-ene-2011 6:40:00 AM 0 04-ene-2011 6:40:00 AM 0.826
    04-ene-2011 7:00:00 AM -0.5 04-ene-2011 7:00:00 AM 0.825
    04-ene-2011 7:10:00 AM 0 04-ene-2011 7:10:00 AM 0.838
    04-ene-2011 7:30:00 AM 0 04-ene-2011 7:30:00 AM 0.838
    04-ene-2011 7:40:00 AM 0 04-ene-2011 7:40:00 AM 0.845
    04-ene-2011 8:00:00 AM 0 04-ene-2011 8:00:00 AM 0.857
    04-ene-2011 8:10:00 AM 0 04-ene-2011 8:10:00 AM 0.845
    04-ene-2011 8:30:00 AM 0.6 04-ene-2011 8:30:00 AM 0.852
    04-ene-2011 8:40:00 AM 0.6 04-ene-2011 8:40:00 AM 0.852
    04-ene-2011 9:00:00 AM 1.1 04-ene-2011 9:00:00 AM 0.859
    04-ene-2011 9:10:00 AM 1.1 04-ene-2011 9:10:00 AM 0.859
    04-ene-2011 9:30:00 AM 1.1 04-ene-2011 9:30:00 AM 0.865
    04-ene-2011 9:40:00 AM 1.1 04-ene-2011 9:40:00 AM 0.865
    04-ene-2011 10:00:00 AM 1.7 04-ene-2011 10:00:00 AM 0.853
    04-ene-2011 10:10:00 AM 1.7 04-ene-2011 10:10:00 AM 0.865
    04-ene-2011 10:30:00 AM 2.2 04-ene-2011 10:30:00 AM 0.86
    04-ene-2011 10:40:00 AM 2.2 04-ene-2011 10:40:00 AM 0.86
    04-ene-2011 11:00:00 AM 2.2 04-ene-2011 11:00:00 AM 0.872
    04-ene-2011 11:10:00 AM 2.8 04-ene-2011 11:10:00 AM 0.86
    04-ene-2011 11:30:00 AM 2.8 04-ene-2011 11:30:00 AM 0.867
    04-ene-2011 11:40:00 AM 3.3 04-ene-2011 11:40:00 AM 0.861
    04-ene-2011 12:00:00 PM 3.3 04-ene-2011 12:00:00 PM 0.861
    04-ene-2011 12:10:00 PM 3.3 04-ene-2011 12:10:00 PM 0.861
    04-ene-2011 12:30:00 PM 3.3 04-ene-2011 12:30:00 PM 0.855
    04-ene-2011 12:40:00 PM 3.3 04-ene-2011 12:40:00 PM 0.855
    04-ene-2011 1:00:00 PM 3.9 04-ene-2011 1:00:00 PM 0.849
    04-ene-2011 1:10:00 PM 3.9 04-ene-2011 1:10:00 PM 0.849
    04-ene-2011 1:30:00 PM 4.4 04-ene-2011 1:30:00 PM 0.85
    04-ene-2011 1:40:00 PM 4.4 04-ene-2011 1:40:00 PM 0.85
    04-ene-2011 2:00:00 PM 4.4 04-ene-2011 2:00:00 PM 0.85
    04-ene-2011 2:10:00 PM 4.4 04-ene-2011 2:10:00 PM 0.85
    04-ene-2011 2:30:00 PM 4.4 04-ene-2011 2:30:00 PM 0.85
    04-ene-2011 2:40:00 PM 4.4 04-ene-2011 2:40:00 PM 0.85
    04-ene-2011 3:00:00 PM 4.4 04-ene-2011 3:00:00 PM 0.85
    04-ene-2011 3:10:00 PM 4.4 04-ene-2011 3:10:00 PM 0.85
    04-ene-2011 3:30:00 PM 5 04-ene-2011 3:30:00 PM 0.851
    04-ene-2011 3:40:00 PM 5 04-ene-2011 3:40:00 PM 0.851
    04-ene-2011 4:00:00 PM 5 04-ene-2011 4:00:00 PM 0.851
    04-ene-2011 4:10:00 PM 5 04-ene-2011 4:10:00 PM 0.851
    04-ene-2011 4:30:00 PM 5 04-ene-2011 4:30:00 PM 0.851
    04-ene-2011 4:40:00 PM 5 04-ene-2011 4:40:00 PM 0.863
    04-ene-2011 5:00:00 PM 5 04-ene-2011 5:00:00 PM 0.851
    04-ene-2011 5:10:00 PM 5 04-ene-2011 5:10:00 PM 0.851
    04-ene-2011 5:30:00 PM 5 04-ene-2011 5:30:00 PM 0.851
    04-ene-2011 5:40:00 PM 5 04-ene-2011 5:40:00 PM 0.851
    04-ene-2011 6:00:00 PM 5 04-ene-2011 6:00:00 PM 0.851
    04-ene-2011 6:10:00 PM 5 04-ene-2011 6:10:00 PM 0.851
    04-ene-2011 6:30:00 PM 5 04-ene-2011 6:30:00 PM 0.839
    04-ene-2011 6:40:00 PM 5 04-ene-2011 6:40:00 PM 0.851
    04-ene-2011 7:00:00 PM 5 04-ene-2011 7:00:00 PM 0.839
    04-ene-2011 7:10:00 PM 5 04-ene-2011 7:10:00 PM 0.839
    04-ene-2011 7:30:00 PM 5 04-ene-2011 7:30:00 PM 0.839
    04-ene-2011 7:40:00 PM 5 04-ene-2011 7:40:00 PM 0.839
    04-ene-2011 8:00:00 PM 5 04-ene-2011 8:00:00 PM 0.839
    04-ene-2011 8:10:00 PM 5 04-ene-2011 8:10:00 PM 0.839
    04-ene-2011 8:30:00 PM 4.4 04-ene-2011 8:30:00 PM 0.844
    04-ene-2011 8:40:00 PM 4.4 04-ene-2011 8:40:00 PM 0.85
    04-ene-2011 9:00:00 PM 4.4 04-ene-2011 9:00:00 PM 0.844
    04-ene-2011 9:10:00 PM 4.4 04-ene-2011 9:10:00 PM 0.85
    04-ene-2011 9:30:00 PM 4.4 04-ene-2011 9:30:00 PM 0.85
    04-ene-2011 9:40:00 PM 5 04-ene-2011 9:40:00 PM 0.851
    04-ene-2011 10:10:00 PM 5 04-ene-2011 10:10:00 PM 0.851
    04-ene-2011 10:30:00 PM 5 04-ene-2011 10:30:00 PM 0.839
    04-ene-2011 10:40:00 PM 5 04-ene-2011 10:40:00 PM 0.839
    04-ene-2011 11:10:00 PM 5 04-ene-2011 11:10:00 PM 0.839
    04-ene-2011 11:30:00 PM 5 04-ene-2011 11:30:00 PM 0.839
    04-ene-2011 11:40:00 PM 5 04-ene-2011 11:40:00 PM 0.839
    05-ene-2011 12:10:00 AM 5 05-ene-2011 12:10:00 AM 0.839
    05-ene-2011 12:30:00 AM 5.6 05-ene-2011 12:30:00 AM 0.839
    05-ene-2011 12:40:00 AM 5.6 05-ene-2011 12:40:00 AM 0.845
    05-ene-2011 1:00:00 AM 5.6 05-ene-2011 1:00:00 AM 0.845
    05-ene-2011 1:10:00 AM 5.6 05-ene-2011 1:10:00 AM 0.857
    05-ene-2011 1:30:00 AM 5.6 05-ene-2011 1:30:00 AM 0.869
    05-ene-2011 2:00:00 AM 5.6 05-ene-2011 2:00:00 AM 0.876
    05-ene-2011 2:10:00 AM 5.6 05-ene-2011 2:10:00 AM 0.876
    05-ene-2011 2:30:00 AM 5.6 05-ene-2011 2:30:00 AM 0.869
    05-ene-2011 2:40:00 AM 5.6 05-ene-2011 2:40:00 AM 0.869
    05-ene-2011 3:00:00 AM 5.6 05-ene-2011 3:00:00 AM 0.869
    05-ene-2011 3:10:00 AM 5.6 05-ene-2011 3:10:00 AM 0.876
    05-ene-2011 3:30:00 AM 5 05-ene-2011 3:30:00 AM 0.881
    05-ene-2011 3:40:00 AM 5 05-ene-2011 3:40:00 AM 0.881
    05-ene-2011 4:00:00 AM 5 05-ene-2011 4:00:00 AM 0.881
    05-ene-2011 4:10:00 AM 5 05-ene-2011 4:10:00 AM 0.881
    05-ene-2011 4:30:00 AM 5 05-ene-2011 4:30:00 AM 0.888
    05-ene-2011 4:40:00 AM 5 05-ene-2011 4:40:00 AM 0.888
    05-ene-2011 5:00:00 AM 5 05-ene-2011 5:00:00 AM 0.9
    05-ene-2011 5:10:00 AM 5 05-ene-2011 5:10:00 AM 0.9
    05-ene-2011 5:30:00 AM 5.6 05-ene-2011 5:30:00 AM 0.907
    05-ene-2011 5:40:00 AM 5.6 05-ene-2011 5:40:00 AM 0.907
    05-ene-2011 6:00:00 AM 5 05-ene-2011 6:00:00 AM 0.913
    05-ene-2011 6:10:00 AM 5 05-ene-2011 6:10:00 AM 0.913
    05-ene-2011 6:30:00 AM 4.4 05-ene-2011 6:30:00 AM 0.913
    05-ene-2011 6:40:00 AM 4.4 05-ene-2011 6:40:00 AM 0.913
    05-ene-2011 7:00:00 AM 4.4 05-ene-2011 7:00:00 AM 0.913
    05-ene-2011 7:10:00 AM 4.4 05-ene-2011 7:10:00 AM 0.913
    05-ene-2011 7:30:00 AM 4.4 05-ene-2011 7:30:00 AM 0.913
    05-ene-2011 7:40:00 AM 4.4 05-ene-2011 7:40:00 AM 0.913
    05-ene-2011 8:00:00 AM 3.9 05-ene-2011 8:00:00 AM 0.912
    05-ene-2011 8:10:00 AM 3.9 05-ene-2011 8:10:00 AM 0.912
    05-ene-2011 8:30:00 AM 4.4 05-ene-2011 8:30:00 AM 0.926
    05-ene-2011 9:00:00 AM 3.9 05-ene-2011 9:00:00 AM 0.912
    05-ene-2011 9:10:00 AM 3.9 05-ene-2011 9:10:00 AM 0.912
    05-ene-2011 9:30:00 AM 3.9 05-ene-2011 9:30:00 AM 0.912
    05-ene-2011 9:40:00 AM 3.9 05-ene-2011 9:40:00 AM 0.912
    05-ene-2011 10:00:00 AM 3.9 05-ene-2011 10:00:00 AM 0.912
    05-ene-2011 10:10:00 AM 3.9 05-ene-2011 10:10:00 AM 0.912
    05-ene-2011 10:30:00 AM 3.9 05-ene-2011 10:30:00 AM 0.912
    05-ene-2011 10:40:00 AM 3.9 05-ene-2011 10:40:00 AM 0.912
    05-ene-2011 11:00:00 AM 3.9 05-ene-2011 11:00:00 AM 0.912
    05-ene-2011 11:10:00 AM 3.9 05-ene-2011 11:10:00 AM 0.912
    05-ene-2011 11:30:00 AM 3.9 05-ene-2011 11:30:00 AM 0.919
    05-ene-2011 11:40:00 AM 3.9 05-ene-2011 11:40:00 AM 0.932
    05-ene-2011 12:00:00 PM 4.4 05-ene-2011 12:00:00 PM 0.932
    05-ene-2011 12:10:00 PM 4.4 05-ene-2011 12:10:00 PM 0.945
    05-ene-2011 12:30:00 PM 5 05-ene-2011 12:30:00 PM 0.939
    05-ene-2011 12:40:00 PM 5 05-ene-2011 12:40:00 PM 0.939
    05-ene-2011 1:00:00 PM 5.6 05-ene-2011 1:00:00 PM 0.939
    05-ene-2011 1:10:00 PM 5.6 05-ene-2011 1:10:00 PM 0.939
    05-ene-2011 1:30:00 PM 5.6 05-ene-2011 1:30:00 PM 0.939
    05-ene-2011 1:40:00 PM 5.6 05-ene-2011 1:40:00 PM 0.939
    05-ene-2011 2:00:00 PM 5.6 05-ene-2011 2:00:00 PM 0.939
    05-ene-2011 2:10:00 PM 5.6 05-ene-2011 2:10:00 PM 0.926
    05-ene-2011 2:30:00 PM 5.6 05-ene-2011 2:30:00 PM 0.926
    05-ene-2011 2:40:00 PM 5.6 05-ene-2011 2:40:00 PM 0.926
    05-ene-2011 3:00:00 PM 5.6 05-ene-2011 3:00:00 PM 0.92
    05-ene-2011 3:10:00 PM 5.6 05-ene-2011 3:10:00 PM 0.907
    05-ene-2011 3:30:00 PM 5.6 05-ene-2011 3:30:00 PM 0.888
    05-ene-2011 3:40:00 PM 5 05-ene-2011 3:40:00 PM 0.888
    05-ene-2011 4:00:00 PM 5 05-ene-2011 4:00:00 PM 0.888
    05-ene-2011 4:10:00 PM 5 05-ene-2011 4:10:00 PM 0.881
    05-ene-2011 4:30:00 PM 5 05-ene-2011 4:30:00 PM 0.881
    05-ene-2011 4:40:00 PM 5 05-ene-2011 4:40:00 PM 0.881
    05-ene-2011 5:00:00 PM 4.4 05-ene-2011 5:00:00 PM 0.881
    05-ene-2011 5:10:00 PM 4.4 05-ene-2011 5:10:00 PM 0.881
    05-ene-2011 5:30:00 PM 4.4 05-ene-2011 5:30:00 PM 0.893
    05-ene-2011 5:40:00 PM 4.4 05-ene-2011 5:40:00 PM 0.893
    05-ene-2011 6:00:00 PM 4.4 05-ene-2011 6:00:00 PM 0.893
    05-ene-2011 6:10:00 PM 4.4 05-ene-2011 6:10:00 PM 0.893
    05-ene-2011 6:30:00 PM 3.9 05-ene-2011 6:30:00 PM 0.88
    05-ene-2011 6:40:00 PM 3.9 05-ene-2011 6:40:00 PM 0.868
    05-ene-2011 7:00:00 PM 3.9 05-ene-2011 7:00:00 PM 0.862
    05-ene-2011 7:10:00 PM 3.9 05-ene-2011 7:10:00 PM 0.862
    05-ene-2011 7:30:00 PM 3.9 05-ene-2011 7:30:00 PM 0.849
    05-ene-2011 7:40:00 PM 3.9 05-ene-2011 7:40:00 PM 0.849
    05-ene-2011 8:00:00 PM 3.9 05-ene-2011 8:00:00 PM 0.849
    05-ene-2011 8:10:00 PM 3.9 05-ene-2011 8:10:00 PM 0.849
    05-ene-2011 8:30:00 PM 4.4 05-ene-2011 8:30:00 PM 0.844
    05-ene-2011 8:40:00 PM 4.4 05-ene-2011 8:40:00 PM 0.844
    05-ene-2011 9:00:00 PM 4.4 05-ene-2011 9:00:00 PM 0.844
    05-ene-2011 9:10:00 PM 4.4 05-ene-2011 9:10:00 PM 0.85
    05-ene-2011 9:30:00 PM 4.4 05-ene-2011 9:30:00 PM 0.85
    05-ene-2011 9:40:00 PM 3.9 05-ene-2011 9:40:00 PM 0.849
    05-ene-2011 10:00:00 PM 4.4 05-ene-2011 10:00:00 PM 0.862
    05-ene-2011 10:10:00 PM 4.4 05-ene-2011 10:10:00 PM 0.862
    05-ene-2011 10:30:00 PM 4.4 05-ene-2011 10:30:00 PM 0.862
    05-ene-2011 10:40:00 PM 3.9 05-ene-2011 10:40:00 PM 0.862
    05-ene-2011 11:00:00 PM 3.9 05-ene-2011 11:00:00 PM 0.868
    05-ene-2011 11:10:00 PM 4.4 05-ene-2011 11:10:00 PM 0.874
    05-ene-2011 11:30:00 PM 4.4 05-ene-2011 11:30:00 PM 0.874
    05-ene-2011 11:40:00 PM 4.4 05-ene-2011 11:40:00 PM 0.874
    06-ene-2011 12:10:00 AM 3.9 06-ene-2011 12:10:00 AM 0.868
    06-ene-2011 12:30:00 AM 3.3 06-ene-2011 12:30:00 AM 0.873
    06-ene-2011 12:40:00 AM 3.3 06-ene-2011 12:40:00 AM 0.873
    06-ene-2011 1:00:00 AM 3.3 06-ene-2011 1:00:00 AM 0.873
    06-ene-2011 1:10:00 AM 3.3 06-ene-2011 1:10:00 AM 0.873
    06-ene-2011 1:30:00 AM 3.3 06-ene-2011 1:30:00 AM 0.88
    06-ene-2011 1:40:00 AM 3.3 06-ene-2011 1:40:00 AM 0.88
    06-ene-2011 2:00:00 AM 3.3 06-ene-2011 2:00:00 AM 0.88
    06-ene-2011 2:10:00 AM 3.3 06-ene-2011 2:10:00 AM 0.88
    06-ene-2011 2:30:00 AM 2.8 06-ene-2011 2:30:00 AM 0.879
    06-ene-2011 2:40:00 AM 2.8 06-ene-2011 2:40:00 AM 0.879
    06-ene-2011 3:00:00 AM 2.2 06-ene-2011 3:00:00 AM 0.879
    06-ene-2011 3:10:00 AM 2.2 06-ene-2011 3:10:00 AM 0.879
    06-ene-2011 3:40:00 AM 2.2 06-ene-2011 3:40:00 AM 0.891
    06-ene-2011 4:00:00 AM 2.2 06-ene-2011 4:00:00 AM 0.891
    06-ene-2011 4:10:00 AM 2.2 06-ene-2011 4:10:00 AM 0.891
    06-ene-2011 4:30:00 AM 2.2 06-ene-2011 4:30:00 AM 0.891
    06-ene-2011 4:40:00 AM 2.2 06-ene-2011 4:40:00 AM 0.891
    06-ene-2011 5:00:00 AM 2.2 06-ene-2011 5:00:00 AM 0.891
    06-ene-2011 5:10:00 AM 2.2 06-ene-2011 5:10:00 AM 0.904
    06-ene-2011 5:30:00 AM 2.2 06-ene-2011 5:30:00 AM 0.904
    06-ene-2011 5:40:00 AM 2.2 06-ene-2011 5:40:00 AM 0.904
    06-ene-2011 6:00:00 AM 2.2 06-ene-2011 6:00:00 AM 0.911
    06-ene-2011 6:10:00 AM 2.8 06-ene-2011 6:10:00 AM 0.911
    06-ene-2011 6:40:00 AM 2.8 06-ene-2011 6:40:00 AM 0.911
    06-ene-2011 7:00:00 AM 2.8 06-ene-2011 7:00:00 AM 0.911
    06-ene-2011 7:10:00 AM 2.8 06-ene-2011 7:10:00 AM 0.911
    06-ene-2011 7:30:00 AM 2.8 06-ene-2011 7:30:00 AM 0.911
    06-ene-2011 7:40:00 AM 2.8 06-ene-2011 7:40:00 AM 0.911
    06-ene-2011 8:00:00 AM 2.8 06-ene-2011 8:00:00 AM 0.918
    06-ene-2011 8:10:00 AM 2.8 06-ene-2011 8:10:00 AM 0.911
    06-ene-2011 8:30:00 AM 2.8 06-ene-2011 8:30:00 AM 0.911
    06-ene-2011 8:40:00 AM 2.8 06-ene-2011 8:40:00 AM 0.911
    06-ene-2011 9:00:00 AM 2.2 06-ene-2011 9:00:00 AM 0.911
    06-ene-2011 9:10:00 AM 2.8 06-ene-2011 9:10:00 AM 0.911
    06-ene-2011 9:30:00 AM 2.2 06-ene-2011 9:30:00 AM 0.904
    06-ene-2011 9:40:00 AM 2.2 06-ene-2011 9:40:00 AM 0.904
    06-ene-2011 10:00:00 AM 2.2 06-ene-2011 10:00:00 AM 0.911
    06-ene-2011 10:10:00 AM 2.2 06-ene-2011 10:10:00 AM 0.904
    06-ene-2011 10:30:00 AM 2.2 06-ene-2011 10:30:00 AM 0.911
    06-ene-2011 10:40:00 AM 2.2 06-ene-2011 10:40:00 AM 0.911
    06-ene-2011 11:00:00 AM 2.2 06-ene-2011 11:00:00 AM 0.911
    06-ene-2011 11:10:00 AM 2.2 06-ene-2011 11:10:00 AM 0.911
    06-ene-2011 11:30:00 AM 2.8 06-ene-2011 11:30:00 AM 0.918
    06-ene-2011 11:40:00 AM 2.8 06-ene-2011 11:40:00 AM 0.918
    06-ene-2011 12:00:00 PM 2.8 06-ene-2011 12:00:00 PM 0.918
    06-ene-2011 12:10:00 PM 3.3 06-ene-2011 12:10:00 PM 0.925
    06-ene-2011 12:30:00 PM 3.3 06-ene-2011 12:30:00 PM 0.925
    06-ene-2011 12:40:00 PM 3.3 06-ene-2011 12:40:00 PM 0.912
    06-ene-2011 1:00:00 PM 3.3 06-ene-2011 1:00:00 PM 0.912
    06-ene-2011 1:10:00 PM 3.3 06-ene-2011 1:10:00 PM 0.905
    06-ene-2011 1:30:00 PM 3.3 06-ene-2011 1:30:00 PM 0.905
    06-ene-2011 1:40:00 PM 3.3 06-ene-2011 1:40:00 PM 0.892
    06-ene-2011 2:00:00 PM 3.9 06-ene-2011 2:00:00 PM 0.899
    06-ene-2011 2:10:00 PM 3.9 06-ene-2011 2:10:00 PM 0.899
    06-ene-2011 2:30:00 PM 4.4 06-ene-2011 2:30:00 PM 0.893
    06-ene-2011 2:40:00 PM 4.4 06-ene-2011 2:40:00 PM 0.893
    06-ene-2011 3:00:00 PM 4.4 06-ene-2011 3:00:00 PM 0.881
    06-ene-2011 3:10:00 PM 4.4 06-ene-2011 3:10:00 PM 0.881
    06-ene-2011 3:30:00 PM 4.4 06-ene-2011 3:30:00 PM 0.881
    06-ene-2011 3:40:00 PM 4.4 06-ene-2011 3:40:00 PM 0.881
    06-ene-2011 4:00:00 PM 4.4 06-ene-2011 4:00:00 PM 0.881
    06-ene-2011 4:10:00 PM 4.4 06-ene-2011 4:10:00 PM 0.881
    06-ene-2011 4:30:00 PM 4.4 06-ene-2011 4:30:00 PM 0.881
    06-ene-2011 4:40:00 PM 3.9 06-ene-2011 4:40:00 PM 0.88
    06-ene-2011 5:00:00 PM 3.9 06-ene-2011 5:00:00 PM 0.88
    06-ene-2011 5:10:00 PM 3.9 06-ene-2011 5:10:00 PM 0.88
    06-ene-2011 5:30:00 PM 3.9 06-ene-2011 5:30:00 PM 0.88
    06-ene-2011 5:40:00 PM 3.9 06-ene-2011 5:40:00 PM 0.88
    06-ene-2011 6:00:00 PM 3.9 06-ene-2011 6:00:00 PM 0.88
    06-ene-2011 6:10:00 PM 3.9 06-ene-2011 6:10:00 PM 0.88
    06-ene-2011 6:30:00 PM 3.9 06-ene-2011 6:30:00 PM 0.88
    06-ene-2011 6:40:00 PM 3.9 06-ene-2011 6:40:00 PM 0.88
    06-ene-2011 7:00:00 PM 3.9 06-ene-2011 7:00:00 PM 0.88
    06-ene-2011 7:10:00 PM 3.9 06-ene-2011 7:10:00 PM 0.88
    06-ene-2011 7:30:00 PM 3.9 06-ene-2011 7:30:00 PM 0.88
    06-ene-2011 7:40:00 PM 3.3 06-ene-2011 7:40:00 PM 0.88
    06-ene-2011 8:00:00 PM 3.3 06-ene-2011 8:00:00 PM 0.88
    06-ene-2011 8:10:00 PM 3.3 06-ene-2011 8:10:00 PM 0.873
    06-ene-2011 8:30:00 PM 2.2 06-ene-2011 8:30:00 PM 0.86
    06-ene-2011 8:40:00 PM 2.2 06-ene-2011 8:40:00 PM 0.847
    06-ene-2011 9:00:00 PM 2.2 06-ene-2011 9:00:00 PM 0.829
    06-ene-2011 9:10:00 PM 2.2 06-ene-2011 9:10:00 PM 0.817
    06-ene-2011 9:30:00 PM 1.7 06-ene-2011 9:30:00 PM 0.793
    06-ene-2011 9:40:00 PM 1.7 06-ene-2011 9:40:00 PM 0.787
    06-ene-2011 10:00:00 PM 1.7 06-ene-2011 10:00:00 PM 0.787
    06-ene-2011 10:10:00 PM 1.7 06-ene-2011 10:10:00 PM 0.787
    06-ene-2011 10:30:00 PM 1.7 06-ene-2011 10:30:00 PM 0.793
    06-ene-2011 10:40:00 PM 1.7 06-ene-2011 10:40:00 PM 0.804
    06-ene-2011 11:00:00 PM 1.7 06-ene-2011 11:00:00 PM 0.804
    06-ene-2011 11:10:00 PM 1.7 06-ene-2011 11:10:00 PM 0.816
    06-ene-2011 11:30:00 PM 1.1 06-ene-2011 11:30:00 PM 0.816
    06-ene-2011 11:40:00 PM 1.1 06-ene-2011 11:40:00 PM 0.828
    07-ene-2011 12:10:00 AM 1.1 07-ene-2011 12:10:00 AM 0.816
    07-ene-2011 12:30:00 AM 1.1 07-ene-2011 12:30:00 AM 0.816
    07-ene-2011 12:40:00 AM 1.1 07-ene-2011 12:40:00 AM 0.816
    07-ene-2011 1:00:00 AM 0.6 07-ene-2011 1:00:00 AM 0.815
    07-ene-2011 1:10:00 AM 0.6 07-ene-2011 1:10:00 AM 0.815
    07-ene-2011 1:30:00 AM 0.6 07-ene-2011 1:30:00 AM 0.815
    07-ene-2011 1:40:00 AM 0.6 07-ene-2011 1:40:00 AM 0.815
    07-ene-2011 2:10:00 AM 0 07-ene-2011 2:10:00 AM 0.814
    07-ene-2011 2:30:00 AM 0 07-ene-2011 2:30:00 AM 0.814
    07-ene-2011 2:40:00 AM 0 07-ene-2011 2:40:00 AM 0.814
    07-ene-2011 3:00:00 AM 0 07-ene-2011 3:00:00 AM 0.814
    07-ene-2011 3:10:00 AM 0 07-ene-2011 3:10:00 AM 0.814
    07-ene-2011 3:30:00 AM 0 07-ene-2011 3:30:00 AM 0.814
    07-ene-2011 3:40:00 AM 0 07-ene-2011 3:40:00 AM 0.814
    07-ene-2011 4:00:00 AM 0 07-ene-2011 4:00:00 AM 0.814
    07-ene-2011 4:10:00 AM 0 07-ene-2011 4:10:00 AM 0.808
    07-ene-2011 4:30:00 AM 0.6 07-ene-2011 4:30:00 AM 0.803
    07-ene-2011 4:40:00 AM 0.6 07-ene-2011 4:40:00 AM 0.803
    07-ene-2011 5:00:00 AM 0.6 07-ene-2011 5:00:00 AM 0.791
    07-ene-2011 5:10:00 AM 0.6 07-ene-2011 5:10:00 AM 0.791
    07-ene-2011 5:30:00 AM 0.6 07-ene-2011 5:30:00 AM 0.785
    07-ene-2011 5:40:00 AM 1.1 07-ene-2011 5:40:00 AM 0.786
    07-ene-2011 6:00:00 AM 1.1 07-ene-2011 6:00:00 AM 0.774
    07-ene-2011 6:10:00 AM 1.1 07-ene-2011 6:10:00 AM 0.769
    07-ene-2011 6:30:00 AM 1.1 07-ene-2011 6:30:00 AM 0.757
    07-ene-2011 6:40:00 AM 1.1 07-ene-2011 6:40:00 AM 0.757
    07-ene-2011 7:10:00 AM 1.7 07-ene-2011 7:10:00 AM 0.753
    07-ene-2011 7:30:00 AM 1.7 07-ene-2011 7:30:00 AM 0.742
    07-ene-2011 7:40:00 AM 1.7 07-ene-2011 7:40:00 AM 0.736
    07-ene-2011 8:00:00 AM 1.7 07-ene-2011 8:00:00 AM 0.736
    07-ene-2011 8:10:00 AM 1.7 07-ene-2011 8:10:00 AM 0.736
    07-ene-2011 8:30:00 AM 1.7 07-ene-2011 8:30:00 AM 0.742
    07-ene-2011 8:40:00 AM 1.7 07-ene-2011 8:40:00 AM 0.742
    07-ene-2011 9:00:00 AM 1.7 07-ene-2011 9:00:00 AM 0.753
    07-ene-2011 9:10:00 AM 1.7 07-ene-2011 9:10:00 AM 0.764
    07-ene-2011 9:30:00 AM 1.7 07-ene-2011 9:30:00 AM 0.775
    07-ene-2011 9:40:00 AM 1.7 07-ene-2011 9:40:00 AM 0.787
    07-ene-2011 10:00:00 AM 1.1 07-ene-2011 10:00:00 AM 0.816
    07-ene-2011 10:10:00 AM 1.1 07-ene-2011 10:10:00 AM 0.828
    07-ene-2011 10:30:00 AM 1.1 07-ene-2011 10:30:00 AM 0.846
    07-ene-2011 10:40:00 AM 1.1 07-ene-2011 10:40:00 AM 0.859
    07-ene-2011 11:00:00 AM 0.6 07-ene-2011 11:00:00 AM 0.864
    07-ene-2011 11:10:00 AM 0.6 07-ene-2011 11:10:00 AM 0.871
    07-ene-2011 11:20:00 AM 0.6 07-ene-2011 11:20:00 AM 0.884
    07-ene-2011 11:40:00 AM 0.6 07-ene-2011 11:40:00 AM 0.884
    07-ene-2011 12:00:00 PM 0.6 07-ene-2011 12:00:00 PM 0.897
    07-ene-2011 12:10:00 PM 0.6 07-ene-2011 12:10:00 PM 0.897
    07-ene-2011 12:30:00 PM 1.1 07-ene-2011 12:30:00 PM 0.91
    07-ene-2011 12:40:00 PM 1.1 07-ene-2011 12:40:00 PM 0.91
    07-ene-2011 1:00:00 PM 1.1 07-ene-2011 1:00:00 PM 0.91
    07-ene-2011 1:10:00 PM 1.1 07-ene-2011 1:10:00 PM 0.917
    07-ene-2011 1:30:00 PM 1.1 07-ene-2011 1:30:00 PM 0.917
    07-ene-2011 1:40:00 PM 1.1 07-ene-2011 1:40:00 PM 0.924
    07-ene-2011 2:00:00 PM 1.7 07-ene-2011 2:00:00 PM 0.917
    07-ene-2011 2:10:00 PM 1.7 07-ene-2011 2:10:00 PM 0.917
    07-ene-2011 2:30:00 PM 2.2 07-ene-2011 2:30:00 PM 0.924
    07-ene-2011 2:40:00 PM 2.8 07-ene-2011 2:40:00 PM 0.918
    07-ene-2011 3:00:00 PM 2.8 07-ene-2011 3:00:00 PM 0.911
    07-ene-2011 3:10:00 PM 2.8 07-ene-2011 3:10:00 PM 0.911
    07-ene-2011 3:40:00 PM 2.8 07-ene-2011 3:40:00 PM 0.898
    07-ene-2011 4:00:00 PM 2.8 07-ene-2011 4:00:00 PM 0.886
    07-ene-2011 4:10:00 PM 2.8 07-ene-2011 4:10:00 PM 0.886
    07-ene-2011 4:30:00 PM 2.8 07-ene-2011 4:30:00 PM 0.886
    07-ene-2011 4:40:00 PM 2.8 07-ene-2011 4:40:00 PM 0.886
    07-ene-2011 5:00:00 PM 2.8 07-ene-2011 5:00:00 PM 0.898
    07-ene-2011 5:10:00 PM 2.8 07-ene-2011 5:10:00 PM 0.898
    07-ene-2011 5:30:00 PM 2.2 07-ene-2011 5:30:00 PM 0.911
    07-ene-2011 5:40:00 PM 2.2 07-ene-2011 5:40:00 PM 0.911
    07-ene-2011 6:00:00 PM 2.2 07-ene-2011 6:00:00 PM 0.911
    07-ene-2011 6:10:00 PM 2.2 07-ene-2011 6:10:00 PM 0.924
    07-ene-2011 6:30:00 PM 2.8 07-ene-2011 6:30:00 PM 0.918
    07-ene-2011 6:40:00 PM 2.8 07-ene-2011 6:40:00 PM 0.918
    07-ene-2011 7:00:00 PM 2.8 07-ene-2011 7:00:00 PM 0.931
    07-ene-2011 7:10:00 PM 2.8 07-ene-2011 7:10:00 PM 0.931
    07-ene-2011 7:30:00 PM 2.8 07-ene-2011 7:30:00 PM 0.938
    07-ene-2011 7:40:00 PM 3.3 07-ene-2011 7:40:00 PM 0.945
    07-ene-2011 8:00:00 PM 3.3 07-ene-2011 8:00:00 PM 0.945
    07-ene-2011 8:10:00 PM 3.3 07-ene-2011 8:10:00 PM 0.945
    07-ene-2011 8:30:00 PM 3.9 07-ene-2011 8:30:00 PM 0.952
    07-ene-2011 8:40:00 PM 4.4 07-ene-2011 8:40:00 PM 0.952
    07-ene-2011 9:00:00 PM 4.4 07-ene-2011 9:00:00 PM 0.966
    07-ene-2011 9:10:00 PM 5 07-ene-2011 9:10:00 PM 0.959
    07-ene-2011 9:30:00 PM 5 07-ene-2011 9:30:00 PM 0.959
    07-ene-2011 9:40:00 PM 5 07-ene-2011 9:40:00 PM 0.959
    07-ene-2011 10:00:00 PM 5 07-ene-2011 10:00:00 PM 0.959
    07-ene-2011 10:10:00 PM 5.6 07-ene-2011 10:10:00 PM 0.959
    07-ene-2011 10:30:00 PM 5.6 07-ene-2011 10:30:00 PM 0.966
    07-ene-2011 10:40:00 PM 5.6 07-ene-2011 10:40:00 PM 0.959
    07-ene-2011 11:00:00 PM 5.6 07-ene-2011 11:00:00 PM 0.966
    07-ene-2011 11:10:00 PM 5.6 07-ene-2011 11:10:00 PM 0.966
    07-ene-2011 11:30:00 PM 6.1 07-ene-2011 11:30:00 PM 0.973
    07-ene-2011 11:40:00 PM 6.1 07-ene-2011 11:40:00 PM 0.973
    08-ene-2011 12:10:00 AM 6.1 08-ene-2011 12:10:00 AM 0.979
    08-ene-2011 12:30:00 AM 6.1 08-ene-2011 12:30:00 AM 0.979
    08-ene-2011 12:40:00 AM 6.1 08-ene-2011 12:40:00 AM 0.979
    08-ene-2011 1:00:00 AM 6.1 08-ene-2011 1:00:00 AM 0.979
    08-ene-2011 1:10:00 AM 6.1 08-ene-2011 1:10:00 AM 0.979
    08-ene-2011 1:30:00 AM 6.1 08-ene-2011 1:30:00 AM 0.979
    08-ene-2011 1:40:00 AM 6.7 08-ene-2011 1:40:00 AM 0.98
    08-ene-2011 2:10:00 AM 6.7 08-ene-2011 2:10:00 AM 0.98
    08-ene-2011 2:30:00 AM 6.7 08-ene-2011 2:30:00 AM 0.98
    08-ene-2011 2:40:00 AM 6.7 08-ene-2011 2:40:00 AM 0.98
    08-ene-2011 3:00:00 AM 7.2 08-ene-2011 3:00:00 AM 0.98
    08-ene-2011 3:10:00 AM 7.2 08-ene-2011 3:10:00 AM 0.98
    08-ene-2011 3:30:00 AM 7.2 08-ene-2011 3:30:00 AM 0.98
    08-ene-2011 3:40:00 AM 7.2 08-ene-2011 3:40:00 AM 0.98
    08-ene-2011 4:00:00 AM 7.2 08-ene-2011 4:00:00 AM 0.98
    08-ene-2011 4:10:00 AM 7.2 08-ene-2011 4:10:00 AM 0.98
    08-ene-2011 4:30:00 AM 7.2 08-ene-2011 4:30:00 AM 0.98
    08-ene-2011 4:40:00 AM 7.2 08-ene-2011 4:40:00 AM 0.98
    08-ene-2011 5:00:00 AM 7.2 08-ene-2011 5:00:00 AM 0.993
    08-ene-2011 5:10:00 AM 7.2 08-ene-2011 5:10:00 AM 0.993
    08-ene-2011 5:30:00 AM 7.2 08-ene-2011 5:30:00 AM 0.993
    08-ene-2011 5:40:00 AM 7.2 08-ene-2011 5:40:00 AM 0.993
    08-ene-2011 6:00:00 AM 6.7 08-ene-2011 6:00:00 AM 0.986
    08-ene-2011 6:10:00 AM 6.7 08-ene-2011 6:10:00 AM 0.986
    08-ene-2011 6:30:00 AM 6.7 08-ene-2011 6:30:00 AM 0.986
    08-ene-2011 6:40:00 AM 6.7 08-ene-2011 6:40:00 AM 0.986
    08-ene-2011 7:00:00 AM 6.7 08-ene-2011 7:00:00 AM 0.986
    08-ene-2011 7:10:00 AM 6.1 08-ene-2011 7:10:00 AM 0.979
    08-ene-2011 7:30:00 AM 5 08-ene-2011 7:30:00 AM 0.972
    08-ene-2011 7:40:00 AM 4.4 08-ene-2011 7:40:00 AM 0.966
    08-ene-2011 8:00:00 AM 3.9 08-ene-2011 8:00:00 AM 0.959
    08-ene-2011 8:10:00 AM 3.3 08-ene-2011 8:10:00 AM 0.965
    08-ene-2011 8:30:00 AM 3.3 08-ene-2011 8:30:00 AM 0.952
    08-ene-2011 8:40:00 AM 3.3 08-ene-2011 8:40:00 AM 0.952
    08-ene-2011 9:00:00 AM 3.3 08-ene-2011 9:00:00 AM 0.952
    08-ene-2011 9:10:00 AM 2.8 08-ene-2011 9:10:00 AM 0.938
    08-ene-2011 9:30:00 AM 2.8 08-ene-2011 9:30:00 AM 0.931
    08-ene-2011 9:40:00 AM 2.8 08-ene-2011 9:40:00 AM 0.918
    08-ene-2011 10:00:00 AM 3.3 08-ene-2011 10:00:00 AM 0.912
    08-ene-2011 10:10:00 AM 3.3 08-ene-2011 10:10:00 AM 0.905
    08-ene-2011 10:30:00 AM 3.3 08-ene-2011 10:30:00 AM 0.88
    08-ene-2011 11:00:00 AM 3.3 08-ene-2011 11:00:00 AM 0.861
    08-ene-2011 11:10:00 AM 3.9 08-ene-2011 11:10:00 AM 0.862
    08-ene-2011 11:30:00 AM 3.9 08-ene-2011 11:30:00 AM 0.849
    08-ene-2011 11:40:00 AM 4.4 08-ene-2011 11:40:00 AM 0.844
    08-ene-2011 12:00:00 PM 4.4 08-ene-2011 12:00:00 PM 0.832
    08-ene-2011 12:10:00 PM 4.4 08-ene-2011 12:10:00 PM 0.814
    08-ene-2011 12:30:00 PM 4.4 08-ene-2011 12:30:00 PM 0.791
    08-ene-2011 12:40:00 PM 5 08-ene-2011 12:40:00 PM 0.792
    08-ene-2011 1:00:00 PM 4.4 08-ene-2011 1:00:00 PM 0.814
    08-ene-2011 1:10:00 PM 4.4 08-ene-2011 1:10:00 PM 0.814
    08-ene-2011 1:30:00 PM 5 08-ene-2011 1:30:00 PM 0.809
    08-ene-2011 1:40:00 PM 5 08-ene-2011 1:40:00 PM 0.798
    08-ene-2011 2:00:00 PM 4.4 08-ene-2011 2:00:00 PM 0.814
    08-ene-2011 2:10:00 PM 4.4 08-ene-2011 2:10:00 PM 0.814
    08-ene-2011 2:30:00 PM 4.4 08-ene-2011 2:30:00 PM 0.82
    08-ene-2011 2:40:00 PM 4.4 08-ene-2011 2:40:00 PM 0.832
    08-ene-2011 3:00:00 PM 4.4 08-ene-2011 3:00:00 PM 0.82
    08-ene-2011 3:10:00 PM 4.4 08-ene-2011 3:10:00 PM 0.803
    08-ene-2011 3:30:00 PM 4.4 08-ene-2011 3:30:00 PM 0.774
    08-ene-2011 3:40:00 PM 4.4 08-ene-2011 3:40:00 PM 0.763
    08-ene-2011 4:00:00 PM 4.4 08-ene-2011 4:00:00 PM 0.763
    08-ene-2011 4:10:00 PM 4.4 08-ene-2011 4:10:00 PM 0.763
    08-ene-2011 4:30:00 PM 3.9 08-ene-2011 4:30:00 PM 0.762
    08-ene-2011 4:40:00 PM 3.9 08-ene-2011 4:40:00 PM 0.762
    08-ene-2011 5:00:00 PM 3.3 08-ene-2011 5:00:00 PM 0.745
    08-ene-2011 5:10:00 PM 3.3 08-ene-2011 5:10:00 PM 0.745
    08-ene-2011 5:30:00 PM 3.3 08-ene-2011 5:30:00 PM 0.745
    08-ene-2011 5:40:00 PM 3.3 08-ene-2011 5:40:00 PM 0.756
    08-ene-2011 6:00:00 PM 3.3 08-ene-2011 6:00:00 PM 0.767
    08-ene-2011 6:10:00 PM 3.3 08-ene-2011 6:10:00 PM 0.778
    08-ene-2011 6:30:00 PM 3.3 08-ene-2011 6:30:00 PM 0.778
    08-ene-2011 6:40:00 PM 3.3 08-ene-2011 6:40:00 PM 0.778
    08-ene-2011 7:00:00 PM 3.3 08-ene-2011 7:00:00 PM 0.767
    08-ene-2011 7:10:00 PM 3.3 08-ene-2011 7:10:00 PM 0.756
    08-ene-2011 7:30:00 PM 3.3 08-ene-2011 7:30:00 PM 0.756
    08-ene-2011 7:40:00 PM 3.3 08-ene-2011 7:40:00 PM 0.756
    08-ene-2011 8:00:00 PM 3.3 08-ene-2011 8:00:00 PM 0.756
    08-ene-2011 8:10:00 PM 3.3 08-ene-2011 8:10:00 PM 0.767
    08-ene-2011 8:30:00 PM 3.3 08-ene-2011 8:30:00 PM 0.767
    08-ene-2011 8:40:00 PM 3.3 08-ene-2011 8:40:00 PM 0.778
    08-ene-2011 9:00:00 PM 3.3 08-ene-2011 9:00:00 PM 0.789
    08-ene-2011 9:10:00 PM 3.3 08-ene-2011 9:10:00 PM 0.789
    08-ene-2011 9:30:00 PM 3.3 08-ene-2011 9:30:00 PM 0.801
    08-ene-2011 9:40:00 PM 3.3 08-ene-2011 9:40:00 PM 0.813
    08-ene-2011 10:00:00 PM 3.3 08-ene-2011 10:00:00 PM 0.813
    08-ene-2011 10:10:00 PM 3.3 08-ene-2011 10:10:00 PM 0.813
    08-ene-2011 10:30:00 PM 3.3 08-ene-2011 10:30:00 PM 0.824
    08-ene-2011 10:40:00 PM 3.3 08-ene-2011 10:40:00 PM 0.824
    08-ene-2011 11:00:00 PM 3.3 08-ene-2011 11:00:00 PM 0.83
    08-ene-2011 11:10:00 PM 3.3 08-ene-2011 11:10:00 PM 0.83
    08-ene-2011 11:30:00 PM 3.3 08-ene-2011 11:30:00 PM 0.824
    08-ene-2011 11:40:00 PM 3.9 08-ene-2011 11:40:00 PM 0.819
    09-ene-2011 12:10:00 AM 3.9 09-ene-2011 12:10:00 AM 0.808
    09-ene-2011 12:30:00 AM 4.4 09-ene-2011 12:30:00 AM 0.803
    09-ene-2011 12:40:00 AM 4.4 09-ene-2011 12:40:00 AM 0.803
    09-ene-2011 1:10:00 AM 4.4 09-ene-2011 1:10:00 AM 0.774
    09-ene-2011 1:30:00 AM 4.4 09-ene-2011 1:30:00 AM 0.752
    09-ene-2011 1:40:00 AM 4.4 09-ene-2011 1:40:00 AM 0.741
    09-ene-2011 2:00:00 AM 3.9 09-ene-2011 2:00:00 AM 0.757
    09-ene-2011 2:10:00 AM 3.9 09-ene-2011 2:10:00 AM 0.757
    09-ene-2011 2:30:00 AM 3.9 09-ene-2011 2:30:00 AM 0.746
    09-ene-2011 2:40:00 AM 3.9 09-ene-2011 2:40:00 AM 0.757
    09-ene-2011 3:00:00 AM 3.9 09-ene-2011 3:00:00 AM 0.746
    09-ene-2011 3:10:00 AM 3.9 09-ene-2011 3:10:00 AM 0.757
    09-ene-2011 3:30:00 AM 3.9 09-ene-2011 3:30:00 AM 0.762
    09-ene-2011 3:40:00 AM 3.9 09-ene-2011 3:40:00 AM 0.768
    09-ene-2011 4:00:00 AM 3.3 09-ene-2011 4:00:00 AM 0.789
    09-ene-2011 4:10:00 AM 2.8 09-ene-2011 4:10:00 AM 0.812
    09-ene-2011 4:30:00 AM 2.8 09-ene-2011 4:30:00 AM 0.83
    09-ene-2011 4:40:00 AM 2.8 09-ene-2011 4:40:00 AM 0.836
    09-ene-2011 5:00:00 AM 3.3 09-ene-2011 5:00:00 AM 0.843
    09-ene-2011 5:10:00 AM 3.3 09-ene-2011 5:10:00 AM 0.843
    09-ene-2011 5:30:00 AM 3.3 09-ene-2011 5:30:00 AM 0.843
    09-ene-2011 5:40:00 AM 3.3 09-ene-2011 5:40:00 AM 0.843
    09-ene-2011 6:00:00 AM 3.3 09-ene-2011 6:00:00 AM 0.83
    09-ene-2011 6:10:00 AM 3.3 09-ene-2011 6:10:00 AM 0.824
    09-ene-2011 6:30:00 AM 3.9 09-ene-2011 6:30:00 AM 0.808
    09-ene-2011 6:40:00 AM 3.9 09-ene-2011 6:40:00 AM 0.808
    09-ene-2011 7:00:00 AM 3.9 09-ene-2011 7:00:00 AM 0.808
    09-ene-2011 7:10:00 AM 3.9 09-ene-2011 7:10:00 AM 0.808
    09-ene-2011 7:30:00 AM 3.9 09-ene-2011 7:30:00 AM 0.808
    09-ene-2011 7:40:00 AM 3.9 09-ene-2011 7:40:00 AM 0.808
    09-ene-2011 8:00:00 AM 3.9 09-ene-2011 8:00:00 AM 0.808
    09-ene-2011 8:10:00 AM 3.9 09-ene-2011 8:10:00 AM 0.808
    09-ene-2011 8:30:00 AM 3.9 09-ene-2011 8:30:00 AM 0.808
    09-ene-2011 8:40:00 AM 3.9 09-ene-2011 8:40:00 AM 0.819
    09-ene-2011 9:00:00 AM 3.9 09-ene-2011 9:00:00 AM 0.819
    09-ene-2011 9:10:00 AM 3.9 09-ene-2011 9:10:00 AM 0.819
    09-ene-2011 9:30:00 AM 3.9 09-ene-2011 9:30:00 AM 0.831
    09-ene-2011 9:40:00 AM 4.4 09-ene-2011 9:40:00 AM 0.832
    09-ene-2011 10:00:00 AM 4.4 09-ene-2011 10:00:00 AM 0.832
    09-ene-2011 10:10:00 AM 4.4 09-ene-2011 10:10:00 AM 0.832
    09-ene-2011 10:30:00 AM 4.4 09-ene-2011 10:30:00 AM 0.832
    09-ene-2011 10:40:00 AM 4.4 09-ene-2011 10:40:00 AM 0.832
    09-ene-2011 11:00:00 AM 5 09-ene-2011 11:00:00 AM 0.833
    09-ene-2011 11:10:00 AM 5.6 09-ene-2011 11:10:00 AM 0.816
    09-ene-2011 11:30:00 AM 5.6 09-ene-2011 11:30:00 AM 0.816
    09-ene-2011 11:40:00 AM 5.6 09-ene-2011 11:40:00 AM 0.81
    09-ene-2011 12:11:00 PM 5.6 09-ene-2011 12:11:00 PM 0.81
    09-ene-2011 12:31:00 PM 6.1 09-ene-2011 12:31:00 PM 0.799
    09-ene-2011 12:41:00 PM 6.1 09-ene-2011 12:41:00 PM 0.799
    09-ene-2011 1:01:00 PM 6.1 09-ene-2011 1:01:00 PM 0.799
    09-ene-2011 1:11:00 PM 6.1 09-ene-2011 1:11:00 PM 0.799
    09-ene-2011 1:31:00 PM 6.1 09-ene-2011 1:31:00 PM 0.788
    09-ene-2011 1:41:00 PM 6.1 09-ene-2011 1:41:00 PM 0.783
    09-ene-2011 2:01:00 PM 6.1 09-ene-2011 2:01:00 PM 0.771
    09-ene-2011 2:11:00 PM 6.7 09-ene-2011 2:11:00 PM 0.767
    09-ene-2011 2:31:00 PM 6.7 09-ene-2011 2:31:00 PM 0.767
    09-ene-2011 2:41:00 PM 6.7 09-ene-2011 2:41:00 PM 0.767
    09-ene-2011 3:01:00 PM 6.1 09-ene-2011 3:01:00 PM 0.783
    09-ene-2011 3:11:00 PM 6.1 09-ene-2011 3:11:00 PM 0.783
    09-ene-2011 3:31:00 PM 5.6 09-ene-2011 3:31:00 PM 0.787
    09-ene-2011 3:41:00 PM 5.6 09-ene-2011 3:41:00 PM 0.787
    09-ene-2011 4:01:00 PM 5.6 09-ene-2011 4:01:00 PM 0.799
    09-ene-2011 4:11:00 PM 5.6 09-ene-2011 4:11:00 PM 0.81
    09-ene-2011 4:31:00 PM 5.6 09-ene-2011 4:31:00 PM 0.81
    09-ene-2011 4:41:00 PM 5 09-ene-2011 4:41:00 PM 0.809
    09-ene-2011 5:01:00 PM 5 09-ene-2011 5:01:00 PM 0.821
    09-ene-2011 5:11:00 PM 4.4 09-ene-2011 5:11:00 PM 0.82
    09-ene-2011 5:31:00 PM 4.4 09-ene-2011 5:31:00 PM 0.832
    09-ene-2011 5:41:00 PM 4.4 09-ene-2011 5:41:00 PM 0.832
    09-ene-2011 6:01:00 PM 3.9 09-ene-2011 6:01:00 PM 0.819
    09-ene-2011 6:11:00 PM 3.9 09-ene-2011 6:11:00 PM 0.819
    09-ene-2011 6:31:00 PM 3.3 09-ene-2011 6:31:00 PM 0.83
    09-ene-2011 6:41:00 PM 3.3 09-ene-2011 6:41:00 PM 0.843
    09-ene-2011 7:01:00 PM 3.3 09-ene-2011 7:01:00 PM 0.83
    09-ene-2011 7:11:00 PM 3.3 09-ene-2011 7:11:00 PM 0.83
    09-ene-2011 7:31:00 PM 2.8 09-ene-2011 7:31:00 PM 0.83
    09-ene-2011 7:41:00 PM 2.8 09-ene-2011 7:41:00 PM 0.818
    09-ene-2011 8:01:00 PM 2.8 09-ene-2011 8:01:00 PM 0.83
    09-ene-2011 8:11:00 PM 2.8 09-ene-2011 8:11:00 PM 0.83
    09-ene-2011 8:31:00 PM 3.3 09-ene-2011 8:31:00 PM 0.824
    09-ene-2011 8:41:00 PM 3.3 09-ene-2011 8:41:00 PM 0.824
    09-ene-2011 9:01:00 PM 2.8 09-ene-2011 9:01:00 PM 0.818
    09-ene-2011 9:11:00 PM 2.8 09-ene-2011 9:11:00 PM 0.812
    09-ene-2011 9:31:00 PM 2.2 09-ene-2011 9:31:00 PM 0.817
    09-ene-2011 9:41:00 PM 2.2 09-ene-2011 9:41:00 PM 0.817
    09-ene-2011 10:01:00 PM 1.7 09-ene-2011 10:01:00 PM 0.816
    09-ene-2011 10:11:00 PM 1.7 09-ene-2011 10:11:00 PM 0.822
    09-ene-2011 10:31:00 PM 1.7 09-ene-2011 10:31:00 PM 0.834
    09-ene-2011 10:41:00 PM 1.7 09-ene-2011 10:41:00 PM 0.834
    09-ene-2011 11:01:00 PM 1.7 09-ene-2011 11:01:00 PM 0.834
    09-ene-2011 11:11:00 PM 1.1 09-ene-2011 11:11:00 PM 0.846
    09-ene-2011 11:31:00 PM 1.1 09-ene-2011 11:31:00 PM 0.846
    09-ene-2011 11:41:00 PM 1.1 09-ene-2011 11:41:00 PM 0.859
    10-ene-2011 12:11:00 AM 1.1 10-ene-2011 12:11:00 AM 0.859
    10-ene-2011 12:31:00 AM 1.1 10-ene-2011 12:31:00 AM 0.865
    10-ene-2011 12:41:00 AM 1.1 10-ene-2011 12:41:00 AM 0.865
    10-ene-2011 1:01:00 AM 1.1 10-ene-2011 1:01:00 AM 0.865
    10-ene-2011 1:11:00 AM 1.1 10-ene-2011 1:11:00 AM 0.865
    10-ene-2011 1:31:00 AM 1.7 10-ene-2011 1:31:00 AM 0.872
    10-ene-2011 1:41:00 AM 1.7 10-ene-2011 1:41:00 AM 0.865
    10-ene-2011 2:01:00 AM 1.1 10-ene-2011 2:01:00 AM 0.865
    10-ene-2011 2:11:00 AM 1.1 10-ene-2011 2:11:00 AM 0.865
    10-ene-2011 2:31:00 AM 1.7 10-ene-2011 2:31:00 AM 0.865
    10-ene-2011 2:41:00 AM 1.7 10-ene-2011 2:41:00 AM 0.865
    10-ene-2011 3:01:00 AM 1.1 10-ene-2011 3:01:00 AM 0.859
    10-ene-2011 3:10:00 AM 1.1 10-ene-2011 3:10:00 AM 0.859
    10-ene-2011 3:31:00 AM 1.1 10-ene-2011 3:31:00 AM 0.859
    10-ene-2011 3:40:00 AM 1.1 10-ene-2011 3:40:00 AM 0.859
    10-ene-2011 4:00:00 AM 1.1 10-ene-2011 4:00:00 AM 0.846
    10-ene-2011 4:14:00 AM 1.1 10-ene-2011 4:14:00 AM 0.846
    10-ene-2011 4:30:00 AM 1.1 10-ene-2011 4:30:00 AM 0.846
    10-ene-2011 4:40:00 AM 1.1 10-ene-2011 4:40:00 AM 0.846
    10-ene-2011 5:11:00 AM 2.2 10-ene-2011 5:11:00 AM 0.854
    10-ene-2011 5:30:00 AM 2.2 10-ene-2011 5:30:00 AM 0.847
    10-ene-2011 5:40:00 AM 2.2 10-ene-2011 5:40:00 AM 0.847
    10-ene-2011 6:01:00 AM 2.8 10-ene-2011 6:01:00 AM 0.836
    10-ene-2011 6:10:00 AM 2.8 10-ene-2011 6:10:00 AM 0.836
    10-ene-2011 6:20:00 AM 2.8 10-ene-2011 6:20:00 AM 0.836
    10-ene-2011 6:40:00 AM 3.3 10-ene-2011 6:40:00 AM 0.855
    10-ene-2011 7:01:00 AM 3.3 10-ene-2011 7:01:00 AM 0.855
    10-ene-2011 7:10:00 AM 3.3 10-ene-2011 7:10:00 AM 0.855
    10-ene-2011 7:30:00 AM 3.3 10-ene-2011 7:30:00 AM 0.855
    10-ene-2011 7:41:00 AM 3.3 10-ene-2011 7:41:00 AM 0.855
    10-ene-2011 8:00:00 AM 3.9 10-ene-2011 8:00:00 AM 0.862
    10-ene-2011 8:11:00 AM 3.9 10-ene-2011 8:11:00 AM 0.862
    10-ene-2011 8:30:00 AM 3.9 10-ene-2011 8:30:00 AM 0.868
    10-ene-2011 8:41:00 AM 4.4 10-ene-2011 8:41:00 AM 0.881
    10-ene-2011 9:10:00 AM 4.4 10-ene-2011 9:10:00 AM 0.881
    10-ene-2011 9:30:00 AM 5 10-ene-2011 9:30:00 AM 0.881
    10-ene-2011 9:41:00 AM 5 10-ene-2011 9:41:00 AM 0.881
    10-ene-2011 10:00:00 AM 5 10-ene-2011 10:00:00 AM 0.881
    10-ene-2011 10:10:00 AM 5.6 10-ene-2011 10:10:00 AM 0.876
    10-ene-2011 10:30:00 AM 5.6 10-ene-2011 10:30:00 AM 0.876
    10-ene-2011 10:40:00 AM 5.6 10-ene-2011 10:40:00 AM 0.876
    10-ene-2011 11:00:00 AM 5.6 10-ene-2011 11:00:00 AM 0.876
    10-ene-2011 11:10:00 AM 5.6 10-ene-2011 11:10:00 AM 0.876
    10-ene-2011 11:30:00 AM 5.6 10-ene-2011 11:30:00 AM 0.876
    10-ene-2011 11:41:00 AM 6.1 10-ene-2011 11:41:00 AM 0.87
    10-ene-2011 12:01:00 PM 6.1 10-ene-2011 12:01:00 PM 0.882
    10-ene-2011 12:11:00 PM 6.1 10-ene-2011 12:11:00 PM 0.87
    10-ene-2011 12:30:00 PM 6.1 10-ene-2011 12:30:00 PM 0.87
    10-ene-2011 12:40:00 PM 6.1 10-ene-2011 12:40:00 PM 0.87
    10-ene-2011 1:00:00 PM 6.7 10-ene-2011 1:00:00 PM 0.871
    10-ene-2011 1:10:00 PM 6.7 10-ene-2011 1:10:00 PM 0.871
    10-ene-2011 1:30:00 PM 6.7 10-ene-2011 1:30:00 PM 0.859
    10-ene-2011 1:41:00 PM 6.7 10-ene-2011 1:41:00 PM 0.859
    10-ene-2011 2:00:00 PM 7.2 10-ene-2011 2:00:00 PM 0.859
    10-ene-2011 2:10:00 PM 7.2 10-ene-2011 2:10:00 PM 0.859
    10-ene-2011 2:30:00 PM 7.2 10-ene-2011 2:30:00 PM 0.853
    10-ene-2011 2:40:00 PM 7.8 10-ene-2011 2:40:00 PM 0.848
    10-ene-2011 3:00:00 PM 7.8 10-ene-2011 3:00:00 PM 0.836
    10-ene-2011 3:10:00 PM 7.8 10-ene-2011 3:10:00 PM 0.83
    10-ene-2011 3:30:00 PM 7.8 10-ene-2011 3:30:00 PM 0.807
    10-ene-2011 3:40:00 PM 7.8 10-ene-2011 3:40:00 PM 0.807
    10-ene-2011 4:00:00 PM 7.8 10-ene-2011 4:00:00 PM 0.791
    10-ene-2011 4:10:00 PM 7.8 10-ene-2011 4:10:00 PM 0.791
    10-ene-2011 4:30:00 PM 7.8 10-ene-2011 4:30:00 PM 0.78
    10-ene-2011 4:40:00 PM 7.8 10-ene-2011 4:40:00 PM 0.78
    10-ene-2011 5:00:00 PM 7.8 10-ene-2011 5:00:00 PM 0.78
    10-ene-2011 5:10:00 PM 7.8 10-ene-2011 5:10:00 PM 0.791
    10-ene-2011 5:30:00 PM 7.2 10-ene-2011 5:30:00 PM 0.801
    10-ene-2011 5:40:00 PM 7.2 10-ene-2011 5:40:00 PM 0.801
    10-ene-2011 6:00:00 PM 7.2 10-ene-2011 6:00:00 PM 0.812
    10-ene-2011 6:10:00 PM 7.2 10-ene-2011 6:10:00 PM 0.824
    10-ene-2011 6:30:00 PM 6.7 10-ene-2011 6:30:00 PM 0.829
    10-ene-2011 6:40:00 PM 6.7 10-ene-2011 6:40:00 PM 0.841
    10-ene-2011 7:00:00 PM 6.7 10-ene-2011 7:00:00 PM 0.847
    10-ene-2011 7:10:00 PM 6.7 10-ene-2011 7:10:00 PM 0.841
    10-ene-2011 7:30:00 PM 6.7 10-ene-2011 7:30:00 PM 0.847
    10-ene-2011 7:40:00 PM 6.7 10-ene-2011 7:40:00 PM 0.847
    10-ene-2011 8:00:00 PM 6.7 10-ene-2011 8:00:00 PM 0.847
    10-ene-2011 8:10:00 PM 6.7 10-ene-2011 8:10:00 PM 0.847
    10-ene-2011 8:30:00 PM 7.2 10-ene-2011 8:30:00 PM 0.841
    10-ene-2011 8:40:00 PM 7.2 10-ene-2011 8:40:00 PM 0.841
    10-ene-2011 9:00:00 PM 7.2 10-ene-2011 9:00:00 PM 0.841
    10-ene-2011 9:10:00 PM 7.2 10-ene-2011 9:10:00 PM 0.841
    10-ene-2011 9:30:00 PM 7.2 10-ene-2011 9:30:00 PM 0.853
    10-ene-2011 9:40:00 PM 7.2 10-ene-2011 9:40:00 PM 0.853
    10-ene-2011 10:00:00 PM 7.2 10-ene-2011 10:00:00 PM 0.853
    10-ene-2011 10:10:00 PM 7.2 10-ene-2011 10:10:00 PM 0.859
    10-ene-2011 10:30:00 PM 7.2 10-ene-2011 10:30:00 PM 0.859
    10-ene-2011 10:40:00 PM 7.2 10-ene-2011 10:40:00 PM 0.871
    10-ene-2011 11:00:00 PM 7.2 10-ene-2011 11:00:00 PM 0.883
    10-ene-2011 11:10:00 PM 7.2 10-ene-2011 11:10:00 PM 0.883
    10-ene-2011 11:30:00 PM 7.2 10-ene-2011 11:30:00 PM 0.889
    10-ene-2011 11:40:00 PM 7.2 10-ene-2011 11:40:00 PM 0.889
    11-ene-2011 12:00:00 AM 7.2 11-ene-2011 12:00:00 AM 0.889
    11-ene-2011 12:11:00 AM 7.2 11-ene-2011 12:11:00 AM 0.889
    11-ene-2011 12:30:00 AM 7.2 11-ene-2011 12:30:00 AM 0.889
    11-ene-2011 12:40:00 AM 7.2 11-ene-2011 12:40:00 AM 0.889
    11-ene-2011 1:00:00 AM 7.8 11-ene-2011 1:00:00 AM 0.89
    11-ene-2011 1:10:00 AM 7.8 11-ene-2011 1:10:00 AM 0.896
    11-ene-2011 1:30:00 AM 7.8 11-ene-2011 1:30:00 AM 0.896
    11-ene-2011 1:40:00 AM 7.8 11-ene-2011 1:40:00 AM 0.896
    11-ene-2011 2:00:00 AM 7.8 11-ene-2011 2:00:00 AM 0.896
    11-ene-2011 2:10:00 AM 7.8 11-ene-2011 2:10:00 AM 0.896
    11-ene-2011 2:30:00 AM 7.8 11-ene-2011 2:30:00 AM 0.896
    11-ene-2011 2:40:00 AM 7.8 11-ene-2011 2:40:00 AM 0.909
    11-ene-2011 3:00:00 AM 7.8 11-ene-2011 3:00:00 AM 0.909
    11-ene-2011 3:10:00 AM 7.8 11-ene-2011 3:10:00 AM 0.909
    11-ene-2011 3:30:00 AM 7.8 11-ene-2011 3:30:00 AM 0.909
    11-ene-2011 3:40:00 AM 7.8 11-ene-2011 3:40:00 AM 0.921
    11-ene-2011 4:00:00 AM 7.8 11-ene-2011 4:00:00 AM 0.921
    11-ene-2011 4:11:00 AM 7.8 11-ene-2011 4:11:00 AM 0.921
    11-ene-2011 4:30:00 AM 7.8 11-ene-2011 4:30:00 AM 0.921
    11-ene-2011 4:40:00 AM 7.2 11-ene-2011 4:40:00 AM 0.921
    11-ene-2011 5:00:00 AM 7.2 11-ene-2011 5:00:00 AM 0.921
    11-ene-2011 5:10:00 AM 7.2 11-ene-2011 5:10:00 AM 0.921
    11-ene-2011 5:30:00 AM 7.2 11-ene-2011 5:30:00 AM 0.921
    11-ene-2011 5:40:00 AM 7.2 11-ene-2011 5:40:00 AM 0.921
    11-ene-2011 6:00:00 AM 7.2 11-ene-2011 6:00:00 AM 0.921
    11-ene-2011 6:10:00 AM 6.7 11-ene-2011 6:10:00 AM 0.92
    11-ene-2011 6:30:00 AM 6.1 11-ene-2011 6:30:00 AM 0.901
    11-ene-2011 6:41:00 AM 5.6 11-ene-2011 6:41:00 AM 0.888
    11-ene-2011 7:00:00 AM 5 11-ene-2011 7:00:00 AM 0.888
    11-ene-2011 7:10:00 AM 5 11-ene-2011 7:10:00 AM 0.888
    11-ene-2011 7:30:00 AM 5 11-ene-2011 7:30:00 AM 0.881
    11-ene-2011 7:41:00 AM 4.4 11-ene-2011 7:41:00 AM 0.881
    11-ene-2011 8:00:00 AM 4.4 11-ene-2011 8:00:00 AM 0.881
    11-ene-2011 8:10:00 AM 4.4 11-ene-2011 8:10:00 AM 0.874
    11-ene-2011 8:30:00 AM 4.4 11-ene-2011 8:30:00 AM 0.862
    11-ene-2011 8:40:00 AM 4.4 11-ene-2011 8:40:00 AM 0.862
    11-ene-2011 9:00:00 AM 4.4 11-ene-2011 9:00:00 AM 0.85
    11-ene-2011 9:10:00 AM 4.4 11-ene-2011 9:10:00 AM 0.85
    11-ene-2011 9:31:00 AM 4.4 11-ene-2011 9:31:00 AM 0.844
    11-ene-2011 9:40:00 AM 4.4 11-ene-2011 9:40:00 AM 0.832
    11-ene-2011 10:01:00 AM 4.4 11-ene-2011 10:01:00 AM 0.832
    11-ene-2011 10:10:00 AM 4.4 11-ene-2011 10:10:00 AM 0.82
    11-ene-2011 10:30:00 AM 4.4 11-ene-2011 10:30:00 AM 0.814
    11-ene-2011 10:40:00 AM 4.4 11-ene-2011 10:40:00 AM 0.814
    11-ene-2011 11:01:00 AM 5 11-ene-2011 11:01:00 AM 0.792
    11-ene-2011 11:10:00 AM 5 11-ene-2011 11:10:00 AM 0.781
    11-ene-2011 11:30:00 AM 5.6 11-ene-2011 11:30:00 AM 0.765
    11-ene-2011 11:40:00 AM 5.6 11-ene-2011 11:40:00 AM 0.765
    11-ene-2011 12:00:00 PM 5.6 11-ene-2011 12:00:00 PM 0.738
    11-ene-2011 12:10:00 PM 5.6 11-ene-2011 12:10:00 PM 0.749
    11-ene-2011 12:30:00 PM 5.6 11-ene-2011 12:30:00 PM 0.749
    11-ene-2011 12:40:00 PM 5.6 11-ene-2011 12:40:00 PM 0.738
    11-ene-2011 1:00:00 PM 5.6 11-ene-2011 1:00:00 PM 0.738
    11-ene-2011 1:10:00 PM 5.6 11-ene-2011 1:10:00 PM 0.738
    11-ene-2011 1:30:00 PM 5.6 11-ene-2011 1:30:00 PM 0.738
    11-ene-2011 1:40:00 PM 5.6 11-ene-2011 1:40:00 PM 0.728
    11-ene-2011 2:00:00 PM 5.6 11-ene-2011 2:00:00 PM 0.728
    11-ene-2011 2:10:00 PM 5.6 11-ene-2011 2:10:00 PM 0.707
    11-ene-2011 2:30:00 PM 5.6 11-ene-2011 2:30:00 PM 0.687
    11-ene-2011 2:40:00 PM 5.6 11-ene-2011 2:40:00 PM 0.697
    11-ene-2011 3:00:00 PM 5.6 11-ene-2011 3:00:00 PM 0.697
    11-ene-2011 3:10:00 PM 5 11-ene-2011 3:10:00 PM 0.701
    11-ene-2011 3:30:00 PM 5 11-ene-2011 3:30:00 PM 0.701
    11-ene-2011 3:40:00 PM 5 11-ene-2011 3:40:00 PM 0.711
    11-ene-2011 4:00:00 PM 4.4 11-ene-2011 4:00:00 PM 0.72
    11-ene-2011 4:10:00 PM 4.4 11-ene-2011 4:10:00 PM 0.725
    11-ene-2011 4:30:00 PM 4.4 11-ene-2011 4:30:00 PM 0.731
    11-ene-2011 4:40:00 PM 4.4 11-ene-2011 4:40:00 PM 0.731
    11-ene-2011 5:00:00 PM 4.4 11-ene-2011 5:00:00 PM 0.752
    11-ene-2011 5:10:00 PM 3.9 11-ene-2011 5:10:00 PM 0.757
    11-ene-2011 5:30:00 PM 3.3 11-ene-2011 5:30:00 PM 0.767
    11-ene-2011 5:40:00 PM 3.9 11-ene-2011 5:40:00 PM 0.768
    11-ene-2011 6:00:00 PM 3.9 11-ene-2011 6:00:00 PM 0.79
    11-ene-2011 6:10:00 PM 3.9 11-ene-2011 6:10:00 PM 0.79
    11-ene-2011 6:30:00 PM 3.3 11-ene-2011 6:30:00 PM 0.789
    11-ene-2011 6:40:00 PM 3.3 11-ene-2011 6:40:00 PM 0.801
    11-ene-2011 7:00:00 PM 2.8 11-ene-2011 7:00:00 PM 0.812
    11-ene-2011 7:10:00 PM 2.8 11-ene-2011 7:10:00 PM 0.806
    11-ene-2011 7:30:00 PM 2.2 11-ene-2011 7:30:00 PM 0.817
    11-ene-2011 7:40:00 PM 2.2 11-ene-2011 7:40:00 PM 0.829
    11-ene-2011 8:00:00 PM 2.2 11-ene-2011 8:00:00 PM 0.829
    11-ene-2011 8:10:00 PM 2.2 11-ene-2011 8:10:00 PM 0.835
    11-ene-2011 8:30:00 PM 2.2 11-ene-2011 8:30:00 PM 0.835
    11-ene-2011 8:40:00 PM 2.2 11-ene-2011 8:40:00 PM 0.835
    11-ene-2011 9:00:00 PM 2.2 11-ene-2011 9:00:00 PM 0.847
    11-ene-2011 9:10:00 PM 2.2 11-ene-2011 9:10:00 PM 0.847
    11-ene-2011 9:30:00 PM 2.2 11-ene-2011 9:30:00 PM 0.854
    11-ene-2011 9:40:00 PM 2.2 11-ene-2011 9:40:00 PM 0.86
    11-ene-2011 10:00:00 PM 2.8 11-ene-2011 10:00:00 PM 0.86
    11-ene-2011 10:10:00 PM 2.8 11-ene-2011 10:10:00 PM 0.86
    11-ene-2011 10:30:00 PM 2.8 11-ene-2011 10:30:00 PM 0.86
    11-ene-2011 10:40:00 PM 2.8 11-ene-2011 10:40:00 PM 0.86
    11-ene-2011 11:30:00 PM 3.3 11-ene-2011 11:30:00 PM 0.861
    11-ene-2011 11:40:00 PM 3.3 11-ene-2011 11:40:00 PM 0.861
    11-ene-2011 11:50:00 PM 3.3 11-ene-2011 11:50:00 PM 0.861
    12-ene-2011 12:30:00 AM 3.9 12-ene-2011 12:30:00 AM 0.849
    12-ene-2011 12:40:00 AM 3.9 12-ene-2011 12:40:00 AM 0.849
    12-ene-2011 1:00:00 AM 4.4 12-ene-2011 1:00:00 AM 0.844
    12-ene-2011 1:10:00 AM 4.4 12-ene-2011 1:10:00 AM 0.844
    12-ene-2011 1:30:00 AM 4.4 12-ene-2011 1:30:00 AM 0.832
    12-ene-2011 1:40:00 AM 4.4 12-ene-2011 1:40:00 AM 0.832
    12-ene-2011 2:00:00 AM 4.4 12-ene-2011 2:00:00 AM 0.844
    12-ene-2011 2:10:00 AM 4.4 12-ene-2011 2:10:00 AM 0.844
    12-ene-2011 2:30:00 AM 3.9 12-ene-2011 2:30:00 AM 0.837
    12-ene-2011 2:40:00 AM 3.9 12-ene-2011 2:40:00 AM 0.849
    12-ene-2011 3:00:00 AM 3.9 12-ene-2011 3:00:00 AM 0.862
    12-ene-2011 3:10:00 AM 3.9 12-ene-2011 3:10:00 AM 0.868
    12-ene-2011 3:30:00 AM 3.3 12-ene-2011 3:30:00 AM 0.88
    12-ene-2011 3:40:00 AM 3.3 12-ene-2011 3:40:00 AM 0.892
    12-ene-2011 4:00:00 AM 3.3 12-ene-2011 4:00:00 AM 0.905
    12-ene-2011 4:11:00 AM 3.3 12-ene-2011 4:11:00 AM 0.905
    12-ene-2011 4:30:00 AM 3.9 12-ene-2011 4:30:00 AM 0.912
    12-ene-2011 4:40:00 AM 3.9 12-ene-2011 4:40:00 AM 0.912
    12-ene-2011 5:00:00 AM 3.9 12-ene-2011 5:00:00 AM 0.912
    12-ene-2011 5:10:00 AM 4.4 12-ene-2011 5:10:00 AM 0.926
    12-ene-2011 5:30:00 AM 4.4 12-ene-2011 5:30:00 AM 0.926
    12-ene-2011 5:40:00 AM 4.4 12-ene-2011 5:40:00 AM 0.932
    12-ene-2011 6:00:00 AM 5 12-ene-2011 6:00:00 AM 0.932
    12-ene-2011 6:10:00 AM 5 12-ene-2011 6:10:00 AM 0.932
    12-ene-2011 6:30:00 AM 5 12-ene-2011 6:30:00 AM 0.932
    12-ene-2011 6:40:00 AM 5 12-ene-2011 6:40:00 AM 0.939
    12-ene-2011 7:00:00 AM 5.6 12-ene-2011 7:00:00 AM 0.939
    12-ene-2011 7:10:00 AM 5.6 12-ene-2011 7:10:00 AM 0.939
    12-ene-2011 7:30:00 AM 5.6 12-ene-2011 7:30:00 AM 0.939
    12-ene-2011 7:40:00 AM 5.6 12-ene-2011 7:40:00 AM 0.946
    12-ene-2011 8:00:00 AM 6.1 12-ene-2011 8:00:00 AM 0.953
    12-ene-2011 8:10:00 AM 6.1 12-ene-2011 8:10:00 AM 0.953
    12-ene-2011 8:30:00 AM 6.1 12-ene-2011 8:30:00 AM 0.953
    12-ene-2011 8:40:00 AM 6.1 12-ene-2011 8:40:00 AM 0.953
    12-ene-2011 9:00:00 AM 6.7 12-ene-2011 9:00:00 AM 0.96
    12-ene-2011 9:10:00 AM 6.7 12-ene-2011 9:10:00 AM 0.96
    12-ene-2011 9:30:00 AM 6.1 12-ene-2011 9:30:00 AM 0.959
    12-ene-2011 9:40:00 AM 6.1 12-ene-2011 9:40:00 AM 0.959
    12-ene-2011 10:00:00 AM 6.1 12-ene-2011 10:00:00 AM 0.959
    12-ene-2011 10:10:00 AM 6.1 12-ene-2011 10:10:00 AM 0.959
    12-ene-2011 10:30:00 AM 6.1 12-ene-2011 10:30:00 AM 0.973
    12-ene-2011 10:40:00 AM 6.1 12-ene-2011 10:40:00 AM 0.973
    12-ene-2011 11:00:00 AM 6.7 12-ene-2011 11:00:00 AM 0.966
    12-ene-2011 11:10:00 AM 6.7 12-ene-2011 11:10:00 AM 0.98
    12-ene-2011 11:30:00 AM 7.2 12-ene-2011 11:30:00 AM 0.98
    12-ene-2011 11:40:00 AM 7.8 12-ene-2011 11:40:00 AM 0.986
    12-ene-2011 12:00:00 PM 7.8 12-ene-2011 12:00:00 PM 0.986
    12-ene-2011 12:10:00 PM 7.2 12-ene-2011 12:10:00 PM 0.993
    12-ene-2011 12:30:00 PM 7.2 12-ene-2011 12:30:00 PM 0.98
    12-ene-2011 12:40:00 PM 7.2 12-ene-2011 12:40:00 PM 0.993
    12-ene-2011 1:00:00 PM 7.8 12-ene-2011 1:00:00 PM 1
    12-ene-2011 1:10:00 PM 8.3 12-ene-2011 1:10:00 PM 1
    12-ene-2011 1:30:00 PM 8.3 12-ene-2011 1:30:00 PM 1
    12-ene-2011 1:40:00 PM 8.3 12-ene-2011 1:40:00 PM 1
    12-ene-2011 2:00:00 PM 8.9 12-ene-2011 2:00:00 PM 1
    12-ene-2011 2:10:00 PM 8.9 12-ene-2011 2:10:00 PM 1
    12-ene-2011 2:30:00 PM 9.4 12-ene-2011 2:30:00 PM 1
    12-ene-2011 2:40:00 PM 9.4 12-ene-2011 2:40:00 PM 1
    12-ene-2011 3:00:00 PM 9.4 12-ene-2011 3:00:00 PM 1
    12-ene-2011 3:10:00 PM 9.4 12-ene-2011 3:10:00 PM 1
    12-ene-2011 3:30:00 PM 10 12-ene-2011 3:30:00 PM 1
    12-ene-2011 3:40:00 PM 10 12-ene-2011 3:40:00 PM 1
    12-ene-2011 4:00:00 PM 9.4 12-ene-2011 4:00:00 PM 1
    12-ene-2011 4:10:00 PM 9.4 12-ene-2011 4:10:00 PM 1
    12-ene-2011 4:30:00 PM 9.4 12-ene-2011 4:30:00 PM 1
    12-ene-2011 4:40:00 PM 9.4 12-ene-2011 4:40:00 PM 1
    12-ene-2011 5:00:00 PM 9.4 12-ene-2011 5:00:00 PM 1
    12-ene-2011 5:10:00 PM 9.4 12-ene-2011 5:10:00 PM 1
    12-ene-2011 5:30:00 PM 9.4 12-ene-2011 5:30:00 PM 1
    12-ene-2011 5:40:00 PM 9.4 12-ene-2011 5:40:00 PM 1
    12-ene-2011 6:00:00 PM 9.4 12-ene-2011 6:00:00 PM 1
    12-ene-2011 6:10:00 PM 9.4 12-ene-2011 6:10:00 PM 1
    12-ene-2011 6:30:00 PM 9.4 12-ene-2011 6:30:00 PM 1
    12-ene-2011 6:40:00 PM 9.4 12-ene-2011 6:40:00 PM 1
    12-ene-2011 7:00:00 PM 9.4 12-ene-2011 7:00:00 PM 1
    12-ene-2011 7:10:00 PM 9.4 12-ene-2011 7:10:00 PM 1
    12-ene-2011 7:30:00 PM 9.4 12-ene-2011 7:30:00 PM 1
    12-ene-2011 7:40:00 PM 9.4 12-ene-2011 7:40:00 PM 1
    12-ene-2011 8:00:00 PM 9.4 12-ene-2011 8:00:00 PM 1
    12-ene-2011 8:30:00 PM 9.4 12-ene-2011 8:30:00 PM 1
    12-ene-2011 8:40:00 PM 9.4 12-ene-2011 8:40:00 PM 1
    12-ene-2011 8:50:00 PM 9.4 12-ene-2011 8:50:00 PM 1
    12-ene-2011 9:10:00 PM 9.4 12-ene-2011 9:10:00 PM 1
    12-ene-2011 9:30:00 PM 9.4 12-ene-2011 9:30:00 PM 1
    12-ene-2011 9:40:00 PM 9.4 12-ene-2011 9:40:00 PM 1
    12-ene-2011 10:00:00 PM 9.4 12-ene-2011 10:00:00 PM 1
    12-ene-2011 10:10:00 PM 9.4 12-ene-2011 10:10:00 PM 1
    12-ene-2011 10:30:00 PM 9.4 12-ene-2011 10:30:00 PM 1
    12-ene-2011 10:40:00 PM 9.4 12-ene-2011 10:40:00 PM 1
    12-ene-2011 11:00:00 PM 9.4 12-ene-2011 11:00:00 PM 1
    12-ene-2011 11:10:00 PM 9.4 12-ene-2011 11:10:00 PM 1
    12-ene-2011 11:30:00 PM 9.4 12-ene-2011 11:30:00 PM 1
    12-ene-2011 11:40:00 PM 9.4 12-ene-2011 11:40:00 PM 1
    13-ene-2011 12:10:00 AM 9.4 13-ene-2011 12:10:00 AM 1
    13-ene-2011 12:30:00 AM 9.4 13-ene-2011 12:30:00 AM 1
    13-ene-2011 12:40:00 AM 9.4 13-ene-2011 12:40:00 AM 1
    13-ene-2011 1:00:00 AM 9.4 13-ene-2011 1:00:00 AM 1
    13-ene-2011 1:10:00 AM 9.4 13-ene-2011 1:10:00 AM 1
    13-ene-2011 1:30:00 AM 9.4 13-ene-2011 1:30:00 AM 1
    13-ene-2011 1:40:00 AM 9.4 13-ene-2011 1:40:00 AM 1
    13-ene-2011 2:00:00 AM 9.4 13-ene-2011 2:00:00 AM 1
    13-ene-2011 2:10:00 AM 9.4 13-ene-2011 2:10:00 AM 1
    13-ene-2011 2:30:00 AM 9.4 13-ene-2011 2:30:00 AM 1
    13-ene-2011 2:40:00 AM 9.4 13-ene-2011 2:40:00 AM 1
    13-ene-2011 3:10:00 AM 9.4 13-ene-2011 3:10:00 AM 1
    13-ene-2011 3:30:00 AM 10 13-ene-2011 3:30:00 AM 1
    13-ene-2011 3:40:00 AM 10 13-ene-2011 3:40:00 AM 1
    13-ene-2011 4:00:00 AM 10 13-ene-2011 4:00:00 AM 1
    13-ene-2011 4:10:00 AM 10 13-ene-2011 4:10:00 AM 1
    13-ene-2011 4:30:00 AM 10 13-ene-2011 4:30:00 AM 1
    13-ene-2011 4:40:00 AM 10 13-ene-2011 4:40:00 AM 1
    13-ene-2011 5:00:00 AM 10 13-ene-2011 5:00:00 AM 1
    13-ene-2011 5:10:00 AM 10 13-ene-2011 5:10:00 AM 1
    13-ene-2011 5:30:00 AM 10 13-ene-2011 5:30:00 AM 1
    13-ene-2011 5:40:00 AM 10.6 13-ene-2011 5:40:00 AM 1
    13-ene-2011 6:00:00 AM 10.6 13-ene-2011 6:00:00 AM 1
    13-ene-2011 6:10:00 AM 10.6 13-ene-2011 6:10:00 AM 1
    13-ene-2011 6:30:00 AM 10.6 13-ene-2011 6:30:00 AM 1
    13-ene-2011 6:40:00 AM 10.6 13-ene-2011 6:40:00 AM 1
    13-ene-2011 7:00:00 AM 10.6 13-ene-2011 7:00:00 AM 1
    13-ene-2011 7:10:00 AM 10.6 13-ene-2011 7:10:00 AM 1
    13-ene-2011 7:30:00 AM 10.6 13-ene-2011 7:30:00 AM 1
    13-ene-2011 7:40:00 AM 10.6 13-ene-2011 7:40:00 AM 1
    13-ene-2011 8:10:00 AM 10.6 13-ene-2011 8:10:00 AM 1
    13-ene-2011 8:30:00 AM 10.6 13-ene-2011 8:30:00 AM 1
    13-ene-2011 8:40:00 AM 10.6 13-ene-2011 8:40:00 AM 1
    13-ene-2011 9:00:00 AM 10.6 13-ene-2011 9:00:00 AM 1
    13-ene-2011 9:10:00 AM 10.6 13-ene-2011 9:10:00 AM 1
    13-ene-2011 9:30:00 AM 10.6 13-ene-2011 9:30:00 AM 1
    13-ene-2011 9:40:00 AM 10.6 13-ene-2011 9:40:00 AM 1
    13-ene-2011 10:00:00 AM 11.1 13-ene-2011 10:00:00 AM 1
    13-ene-2011 10:10:00 AM 11.1 13-ene-2011 10:10:00 AM 1
    13-ene-2011 10:30:00 AM 11.1 13-ene-2011 10:30:00 AM 1
    13-ene-2011 10:40:00 AM 11.1 13-ene-2011 10:40:00 AM 1
    13-ene-2011 11:00:00 AM 11.1 13-ene-2011 11:00:00 AM 1
    13-ene-2011 11:10:00 AM 11.1 13-ene-2011 11:10:00 AM 1
    13-ene-2011 11:30:00 AM 11.1 13-ene-2011 11:30:00 AM 1
    13-ene-2011 11:40:00 AM 11.1 13-ene-2011 11:40:00 AM 1
    13-ene-2011 12:00:00 PM 11.1 13-ene-2011 12:00:00 PM 1
    13-ene-2011 12:10:00 PM 11.1 13-ene-2011 12:10:00 PM 1
    13-ene-2011 12:30:00 PM 11.7 13-ene-2011 12:30:00 PM 1
    13-ene-2011 1:00:00 PM 11.1 13-ene-2011 1:00:00 PM 1
    13-ene-2011 1:10:00 PM 11.1 13-ene-2011 1:10:00 PM 1
    13-ene-2011 1:30:00 PM 11.1 13-ene-2011 1:30:00 PM 1
    13-ene-2011 1:40:00 PM 11.1 13-ene-2011 1:40:00 PM 1
    13-ene-2011 2:00:00 PM 11.1 13-ene-2011 2:00:00 PM 1
    13-ene-2011 2:10:00 PM 11.1 13-ene-2011 2:10:00 PM 1
    13-ene-2011 2:30:00 PM 11.1 13-ene-2011 2:30:00 PM 1
    13-ene-2011 2:40:00 PM 11.1 13-ene-2011 2:40:00 PM 1
    13-ene-2011 3:00:00 PM 11.1 13-ene-2011 3:00:00 PM 1
    13-ene-2011 3:10:00 PM 11.1 13-ene-2011 3:10:00 PM 1
    13-ene-2011 3:30:00 PM 11.1 13-ene-2011 3:30:00 PM 1
    13-ene-2011 3:40:00 PM 11.1 13-ene-2011 3:40:00 PM 1
    13-ene-2011 4:00:00 PM 11.1 13-ene-2011 4:00:00 PM 1
    13-ene-2011 4:10:00 PM 11.1 13-ene-2011 4:10:00 PM 1
    13-ene-2011 4:30:00 PM 11.1 13-ene-2011 4:30:00 PM 1
    13-ene-2011 4:40:00 PM 11.1 13-ene-2011 4:40:00 PM 0.993
    13-ene-2011 5:00:00 PM 11.1 13-ene-2011 5:00:00 PM 0.993
    13-ene-2011 5:10:00 PM 11.1 13-ene-2011 5:10:00 PM 0.98
    13-ene-2011 5:30:00 PM 11.1 13-ene-2011 5:30:00 PM 0.98
    13-ene-2011 6:00:00 PM 10.6 13-ene-2011 6:00:00 PM 0.954
    13-ene-2011 6:10:00 PM 10.6 13-ene-2011 6:10:00 PM 0.967
    13-ene-2011 6:30:00 PM 10.6 13-ene-2011 6:30:00 PM 0.954
    13-ene-2011 6:40:00 PM 10.6 13-ene-2011 6:40:00 PM 0.948
    13-ene-2011 6:50:00 PM 10.6 13-ene-2011 6:50:00 PM 0.948
    13-ene-2011 7:10:00 PM 10.6 13-ene-2011 7:10:00 PM 0.948
    13-ene-2011 7:40:00 PM 10.6 13-ene-2011 7:40:00 PM 0.948
    13-ene-2011 8:00:00 PM 10.6 13-ene-2011 8:00:00 PM 0.935
    13-ene-2011 8:10:00 PM 10.6 13-ene-2011 8:10:00 PM 0.935
    13-ene-2011 8:30:00 PM 10.6 13-ene-2011 8:30:00 PM 0.935
    13-ene-2011 8:40:00 PM 10.6 13-ene-2011 8:40:00 PM 0.935
    13-ene-2011 9:00:00 PM 10.6 13-ene-2011 9:00:00 PM 0.935
    13-ene-2011 9:10:00 PM 10.6 13-ene-2011 9:10:00 PM 0.929
    13-ene-2011 9:30:00 PM 10.6 13-ene-2011 9:30:00 PM 0.935
    13-ene-2011 9:40:00 PM 10 13-ene-2011 9:40:00 PM 0.941
    13-ene-2011 10:00:00 PM 10 13-ene-2011 10:00:00 PM 0.941
    13-ene-2011 10:10:00 PM 10 13-ene-2011 10:10:00 PM 0.941
    13-ene-2011 10:30:00 PM 10 13-ene-2011 10:30:00 PM 0.941
    13-ene-2011 11:00:00 PM 10 13-ene-2011 11:00:00 PM 0.948
    13-ene-2011 11:10:00 PM 10 13-ene-2011 11:10:00 PM 0.948
    13-ene-2011 11:30:00 PM 10 13-ene-2011 11:30:00 PM 0.948
    13-ene-2011 11:40:00 PM 10 13-ene-2011 11:40:00 PM 0.948
    14-ene-2011 12:10:00 AM 10 14-ene-2011 12:10:00 AM 0.961
    14-ene-2011 12:30:00 AM 10 14-ene-2011 12:30:00 AM 0.948
    14-ene-2011 12:40:00 AM 10 14-ene-2011 12:40:00 AM 0.948
    14-ene-2011 1:00:00 AM 10 14-ene-2011 1:00:00 AM 0.961
    14-ene-2011 1:10:00 AM 10 14-ene-2011 1:10:00 AM 0.961
    14-ene-2011 1:30:00 AM 9.4 14-ene-2011 1:30:00 AM 0.96
    14-ene-2011 1:40:00 AM 9.4 14-ene-2011 1:40:00 AM 0.96
    14-ene-2011 2:00:00 AM 9.4 14-ene-2011 2:00:00 AM 0.973
    14-ene-2011 2:10:00 AM 9.4 14-ene-2011 2:10:00 AM 0.973
    14-ene-2011 2:30:00 AM 9.4 14-ene-2011 2:30:00 AM 0.973
    14-ene-2011 2:40:00 AM 9.4 14-ene-2011 2:40:00 AM 0.973
    14-ene-2011 3:00:00 AM 9.4 14-ene-2011 3:00:00 AM 0.973
    14-ene-2011 3:10:00 AM 10 14-ene-2011 3:10:00 AM 0.98
    14-ene-2011 3:30:00 AM 10 14-ene-2011 3:30:00 AM 0.98
    14-ene-2011 3:40:00 AM 10 14-ene-2011 3:40:00 AM 0.98
    14-ene-2011 4:00:00 AM 10 14-ene-2011 4:00:00 AM 0.98
    14-ene-2011 4:10:00 AM 10 14-ene-2011 4:10:00 AM 0.967
    14-ene-2011 4:30:00 AM 10 14-ene-2011 4:30:00 AM 0.98
    14-ene-2011 4:40:00 AM 10 14-ene-2011 4:40:00 AM 0.98
    14-ene-2011 5:00:00 AM 10 14-ene-2011 5:00:00 AM 0.98
    14-ene-2011 5:10:00 AM 10 14-ene-2011 5:10:00 AM 0.98
    14-ene-2011 5:30:00 AM 10 14-ene-2011 5:30:00 AM 0.98
    14-ene-2011 5:40:00 AM 10 14-ene-2011 5:40:00 AM 0.98
    14-ene-2011 6:00:00 AM 10 14-ene-2011 6:00:00 AM 0.98
    14-ene-2011 6:10:00 AM 10 14-ene-2011 6:10:00 AM 0.987
    14-ene-2011 6:30:00 AM 10 14-ene-2011 6:30:00 AM 0.98
    14-ene-2011 6:40:00 AM 10 14-ene-2011 6:40:00 AM 0.98
    14-ene-2011 7:00:00 AM 10 14-ene-2011 7:00:00 AM 0.98
    14-ene-2011 7:30:00 AM 10 14-ene-2011 7:30:00 AM 0.98
    14-ene-2011 7:40:00 AM 10 14-ene-2011 7:40:00 AM 0.967
    14-ene-2011 8:00:00 AM 10 14-ene-2011 8:00:00 AM 0.967
    14-ene-2011 8:10:00 AM 10 14-ene-2011 8:10:00 AM 0.961
    14-ene-2011 8:30:00 AM 10 14-ene-2011 8:30:00 AM 0.948
    14-ene-2011 8:40:00 AM 10 14-ene-2011 8:40:00 AM 0.941
    14-ene-2011 9:00:00 AM 10 14-ene-2011 9:00:00 AM 0.929
    14-ene-2011 9:10:00 AM 10 14-ene-2011 9:10:00 AM 0.922
    14-ene-2011 9:30:00 AM 10 14-ene-2011 9:30:00 AM 0.898
    14-ene-2011 9:40:00 AM 10 14-ene-2011 9:40:00 AM 0.892
    14-ene-2011 10:00:00 AM 10 14-ene-2011 10:00:00 AM 0.862
    14-ene-2011 10:10:00 AM 10 14-ene-2011 10:10:00 AM 0.85
    14-ene-2011 10:30:00 AM 10 14-ene-2011 10:30:00 AM 0.839
    14-ene-2011 10:40:00 AM 10.6 14-ene-2011 10:40:00 AM 0.84
    14-ene-2011 11:00:00 AM 10.6 14-ene-2011 11:00:00 AM 0.84
    14-ene-2011 11:10:00 AM 10.6 14-ene-2011 11:10:00 AM 0.84
    14-ene-2011 11:30:00 AM 10.6 14-ene-2011 11:30:00 AM 0.84
    14-ene-2011 11:40:00 AM 10.6 14-ene-2011 11:40:00 AM 0.84
    14-ene-2011 12:00:00 PM 10.6 14-ene-2011 12:00:00 PM 0.84
    14-ene-2011 12:10:00 PM 10.6 14-ene-2011 12:10:00 PM 0.828
    14-ene-2011 12:40:00 PM 10.6 14-ene-2011 12:40:00 PM 0.828
    14-ene-2011 1:00:00 PM 11.1 14-ene-2011 1:00:00 PM 0.812
    14-ene-2011 1:10:00 PM 11.1 14-ene-2011 1:10:00 PM 0.79
    14-ene-2011 1:30:00 PM 11.1 14-ene-2011 1:30:00 PM 0.78
    14-ene-2011 1:40:00 PM 10.6 14-ene-2011 1:40:00 PM 0.768
    14-ene-2011 2:00:00 PM 10.6 14-ene-2011 2:00:00 PM 0.758
    14-ene-2011 2:10:00 PM 10.6 14-ene-2011 2:10:00 PM 0.758
    14-ene-2011 2:30:00 PM 10.6 14-ene-2011 2:30:00 PM 0.747
    14-ene-2011 2:40:00 PM 10.6 14-ene-2011 2:40:00 PM 0.737
    14-ene-2011 3:00:00 PM 10.6 14-ene-2011 3:00:00 PM 0.737
    14-ene-2011 3:10:00 PM 10.6 14-ene-2011 3:10:00 PM 0.737
    14-ene-2011 3:30:00 PM 10.6 14-ene-2011 3:30:00 PM 0.737
    14-ene-2011 3:40:00 PM 10.6 14-ene-2011 3:40:00 PM 0.737
    14-ene-2011 4:00:00 PM 10.6 14-ene-2011 4:00:00 PM 0.737
    14-ene-2011 4:10:00 PM 10 14-ene-2011 4:10:00 PM 0.741
    14-ene-2011 4:30:00 PM 10 14-ene-2011 4:30:00 PM 0.741
    14-ene-2011 4:40:00 PM 10 14-ene-2011 4:40:00 PM 0.751
    14-ene-2011 5:00:00 PM 9.4 14-ene-2011 5:00:00 PM 0.761
    14-ene-2011 5:10:00 PM 9.4 14-ene-2011 5:10:00 PM 0.761
    14-ene-2011 5:30:00 PM 9.4 14-ene-2011 5:30:00 PM 0.771
    14-ene-2011 5:40:00 PM 8.9 14-ene-2011 5:40:00 PM 0.781
    14-ene-2011 6:00:00 PM 8.9 14-ene-2011 6:00:00 PM 0.781
    14-ene-2011 6:10:00 PM 8.9 14-ene-2011 6:10:00 PM 0.771
    14-ene-2011 6:30:00 PM 8.3 14-ene-2011 6:30:00 PM 0.764
    14-ene-2011 6:40:00 PM 8.3 14-ene-2011 6:40:00 PM 0.733
    14-ene-2011 7:00:00 PM 8.3 14-ene-2011 7:00:00 PM 0.733
    14-ene-2011 7:10:00 PM 7.8 14-ene-2011 7:10:00 PM 0.727
    14-ene-2011 7:30:00 PM 7.8 14-ene-2011 7:30:00 PM 0.722
    14-ene-2011 7:40:00 PM 7.8 14-ene-2011 7:40:00 PM 0.722
    14-ene-2011 8:00:00 PM 7.2 14-ene-2011 8:00:00 PM 0.72
    14-ene-2011 8:10:00 PM 7.2 14-ene-2011 8:10:00 PM 0.72
    14-ene-2011 8:30:00 PM 6.7 14-ene-2011 8:30:00 PM 0.73
    14-ene-2011 8:40:00 PM 6.7 14-ene-2011 8:40:00 PM 0.74
    14-ene-2011 9:00:00 PM 6.7 14-ene-2011 9:00:00 PM 0.767
    14-ene-2011 9:10:00 PM 6.7 14-ene-2011 9:10:00 PM 0.778
    14-ene-2011 9:30:00 PM 6.7 14-ene-2011 9:30:00 PM 0.789
    14-ene-2011 9:40:00 PM 6.7 14-ene-2011 9:40:00 PM 0.789
    14-ene-2011 10:00:00 PM 6.7 14-ene-2011 10:00:00 PM 0.8
    14-ene-2011 10:10:00 PM 6.7 14-ene-2011 10:10:00 PM 0.8
    14-ene-2011 10:30:00 PM 6.7 14-ene-2011 10:30:00 PM 0.8
    14-ene-2011 10:40:00 PM 6.7 14-ene-2011 10:40:00 PM 0.8
    14-ene-2011 11:10:00 PM 6.1 14-ene-2011 11:10:00 PM 0.799
    14-ene-2011 11:30:00 PM 6.1 14-ene-2011 11:30:00 PM 0.799
    14-ene-2011 11:40:00 PM 6.1 14-ene-2011 11:40:00 PM 0.799
    15-ene-2011 12:10:00 AM 5.6 15-ene-2011 12:10:00 AM 0.81
    15-ene-2011 12:30:00 AM 5.6 15-ene-2011 12:30:00 AM 0.816
    15-ene-2011 12:40:00 AM 5.6 15-ene-2011 12:40:00 AM 0.828
    15-ene-2011 1:10:00 AM 6.7 15-ene-2011 1:10:00 AM 0.841
    15-ene-2011 1:30:00 AM 6.7 15-ene-2011 1:30:00 AM 0.841
    15-ene-2011 1:40:00 AM 6.7 15-ene-2011 1:40:00 AM 0.841
    15-ene-2011 2:00:00 AM 7.2 15-ene-2011 2:00:00 AM 0.853
    15-ene-2011 2:10:00 AM 7.2 15-ene-2011 2:10:00 AM 0.853
    15-ene-2011 2:30:00 AM 7.8 15-ene-2011 2:30:00 AM 0.848
    15-ene-2011 3:00:00 AM 7.8 15-ene-2011 3:00:00 AM 0.836
    15-ene-2011 3:40:00 AM 8.3 15-ene-2011 3:40:00 AM 0.854
    15-ene-2011 4:00:00 AM 7.8 15-ene-2011 4:00:00 AM 0.86
    15-ene-2011 4:10:00 AM 7.8 15-ene-2011 4:10:00 AM 0.866
    15-ene-2011 4:30:00 AM 7.8 15-ene-2011 4:30:00 AM 0.878
    15-ene-2011 4:40:00 AM 8.3 15-ene-2011 4:40:00 AM 0.89
    15-ene-2011 5:00:00 AM 8.3 15-ene-2011 5:00:00 AM 0.89
    15-ene-2011 5:10:00 AM 8.3 15-ene-2011 5:10:00 AM 0.89
    15-ene-2011 5:30:00 AM 8.3 15-ene-2011 5:30:00 AM 0.89
    15-ene-2011 5:40:00 AM 8.3 15-ene-2011 5:40:00 AM 0.89
    15-ene-2011 6:00:00 AM 8.9 15-ene-2011 6:00:00 AM 0.891
    15-ene-2011 6:10:00 AM 8.9 15-ene-2011 6:10:00 AM 0.891
    15-ene-2011 6:30:00 AM 8.9 15-ene-2011 6:30:00 AM 0.891
    15-ene-2011 6:40:00 AM 8.9 15-ene-2011 6:40:00 AM 0.891
    15-ene-2011 7:10:00 AM 9.4 15-ene-2011 7:10:00 AM 0.885
    15-ene-2011 7:40:00 AM 9.4 15-ene-2011 7:40:00 AM 0.885
    15-ene-2011 8:00:00 AM 10 15-ene-2011 8:00:00 AM 0.892
    15-ene-2011 8:10:00 AM 10 15-ene-2011 8:10:00 AM 0.892
    15-ene-2011 8:40:00 AM 10 15-ene-2011 8:40:00 AM 0.898
    15-ene-2011 9:00:00 AM 10 15-ene-2011 9:00:00 AM 0.91
    15-ene-2011 9:10:00 AM 10 15-ene-2011 9:10:00 AM 0.91
    15-ene-2011 9:30:00 AM 10.6 15-ene-2011 9:30:00 AM 0.904
    15-ene-2011 10:00:00 AM 10.6 15-ene-2011 10:00:00 AM 0.904
    15-ene-2011 10:10:00 AM 10.6 15-ene-2011 10:10:00 AM 0.904
    15-ene-2011 10:30:00 AM 10.6 15-ene-2011 10:30:00 AM 0.917
    15-ene-2011 10:40:00 AM 10.6 15-ene-2011 10:40:00 AM 0.904
    15-ene-2011 11:00:00 AM 10.6 15-ene-2011 11:00:00 AM 0.904
    15-ene-2011 11:10:00 AM 10.6 15-ene-2011 11:10:00 AM 0.917
    15-ene-2011 11:30:00 AM 10.6 15-ene-2011 11:30:00 AM 0.917
    15-ene-2011 11:40:00 AM 10.6 15-ene-2011 11:40:00 AM 0.917
    15-ene-2011 12:00:00 PM 10.6 15-ene-2011 12:00:00 PM 0.917
    15-ene-2011 12:10:00 PM 10.6 15-ene-2011 12:10:00 PM 0.917
    15-ene-2011 12:30:00 PM 11.1 15-ene-2011 12:30:00 PM 0.911
    15-ene-2011 12:40:00 PM 11.1 15-ene-2011 12:40:00 PM 0.911
    15-ene-2011 1:00:00 PM 11.1 15-ene-2011 1:00:00 PM 0.893
    15-ene-2011 1:10:00 PM 11.1 15-ene-2011 1:10:00 PM 0.881
    15-ene-2011 1:30:00 PM 11.1 15-ene-2011 1:30:00 PM 0.881
    15-ene-2011 2:00:00 PM 11.1 15-ene-2011 2:00:00 PM 0.881
    15-ene-2011 2:10:00 PM 11.1 15-ene-2011 2:10:00 PM 0.881
    15-ene-2011 2:30:00 PM 11.1 15-ene-2011 2:30:00 PM 0.881
    15-ene-2011 2:40:00 PM 11.1 15-ene-2011 2:40:00 PM 0.869
    15-ene-2011 3:00:00 PM 11.1 15-ene-2011 3:00:00 PM 0.881
    15-ene-2011 3:10:00 PM 11.1 15-ene-2011 3:10:00 PM 0.881
    15-ene-2011 3:30:00 PM 11.1 15-ene-2011 3:30:00 PM 0.893
    15-ene-2011 3:40:00 PM 11.1 15-ene-2011 3:40:00 PM 0.893
    15-ene-2011 4:00:00 PM 11.1 15-ene-2011 4:00:00 PM 0.899
    15-ene-2011 4:10:00 PM 11.1 15-ene-2011 4:10:00 PM 0.899
    15-ene-2011 4:30:00 PM 11.1 15-ene-2011 4:30:00 PM 0.911
    15-ene-2011 4:40:00 PM 11.1 15-ene-2011 4:40:00 PM 0.899
    15-ene-2011 5:00:00 PM 11.1 15-ene-2011 5:00:00 PM 0.899
    15-ene-2011 5:10:00 PM 11.7 15-ene-2011 5:10:00 PM 0.899
    15-ene-2011 5:30:00 PM 11.7 15-ene-2011 5:30:00 PM 0.887
    15-ene-2011 5:40:00 PM 11.7 15-ene-2011 5:40:00 PM 0.887
    15-ene-2011 6:00:00 PM 11.7 15-ene-2011 6:00:00 PM 0.87
    15-ene-2011 6:10:00 PM 11.7 15-ene-2011 6:10:00 PM 0.858
    15-ene-2011 6:30:00 PM 11.7 15-ene-2011 6:30:00 PM 0.858
    15-ene-2011 6:40:00 PM 11.1 15-ene-2011 6:40:00 PM 0.863
    15-ene-2011 7:00:00 PM 11.1 15-ene-2011 7:00:00 PM 0.863
    15-ene-2011 7:10:00 PM 11.1 15-ene-2011 7:10:00 PM 0.863
    15-ene-2011 7:30:00 PM 11.1 15-ene-2011 7:30:00 PM 0.863
    15-ene-2011 8:00:00 PM 11.1 15-ene-2011 8:00:00 PM 0.863
    15-ene-2011 8:10:00 PM 11.1 15-ene-2011 8:10:00 PM 0.863
    15-ene-2011 8:30:00 PM 11.1 15-ene-2011 8:30:00 PM 0.863
    15-ene-2011 8:40:00 PM 11.1 15-ene-2011 8:40:00 PM 0.863
    15-ene-2011 9:00:00 PM 11.1 15-ene-2011 9:00:00 PM 0.863
    15-ene-2011 9:10:00 PM 11.1 15-ene-2011 9:10:00 PM 0.863
    15-ene-2011 9:30:00 PM 11.1 15-ene-2011 9:30:00 PM 0.852
    15-ene-2011 9:40:00 PM 11.1 15-ene-2011 9:40:00 PM 0.852
    15-ene-2011 11:00:00 PM 11.1 15-ene-2011 11:00:00 PM 0.812
    15-ene-2011 11:10:00 PM 11.1 15-ene-2011 11:10:00 PM 0.812
    15-ene-2011 11:20:00 PM 11.1 15-ene-2011 11:20:00 PM 0.812
    15-ene-2011 11:40:00 PM 11.1 15-ene-2011 11:40:00 PM 0.801
    16-ene-2011 12:10:00 AM 11.1 16-ene-2011 12:10:00 AM 0.801
    16-ene-2011 12:30:00 AM 11.1 16-ene-2011 12:30:00 AM 0.801
    16-ene-2011 12:40:00 AM 11.1 16-ene-2011 12:40:00 AM 0.801
    16-ene-2011 1:00:00 AM 11.1 16-ene-2011 1:00:00 AM 0.812
    16-ene-2011 1:10:00 AM 11.1 16-ene-2011 1:10:00 AM 0.812
    16-ene-2011 1:40:00 AM 11.1 16-ene-2011 1:40:00 AM 0.812
    16-ene-2011 2:00:00 AM 11.1 16-ene-2011 2:00:00 AM 0.812
    16-ene-2011 2:10:00 AM 11.1 16-ene-2011 2:10:00 AM 0.812
    16-ene-2011 2:30:00 AM 10.6 16-ene-2011 2:30:00 AM 0.806
    16-ene-2011 2:40:00 AM 10.6 16-ene-2011 2:40:00 AM 0.806
    16-ene-2011 3:00:00 AM 10.6 16-ene-2011 3:00:00 AM 0.806
    16-ene-2011 3:10:00 AM 10.6 16-ene-2011 3:10:00 AM 0.806
    16-ene-2011 3:40:00 AM 10.6 16-ene-2011 3:40:00 AM 0.806
    16-ene-2011 4:00:00 AM 10.6 16-ene-2011 4:00:00 AM 0.806
    16-ene-2011 4:10:00 AM 10.6 16-ene-2011 4:10:00 AM 0.806
    16-ene-2011 4:30:00 AM 10.6 16-ene-2011 4:30:00 AM 0.817
    16-ene-2011 4:40:00 AM 10.6 16-ene-2011 4:40:00 AM 0.817
    16-ene-2011 5:00:00 AM 10.6 16-ene-2011 5:00:00 AM 0.817
    16-ene-2011 5:10:00 AM 10.6 16-ene-2011 5:10:00 AM 0.817
    16-ene-2011 5:30:00 AM 10.6 16-ene-2011 5:30:00 AM 0.817
    16-ene-2011 5:40:00 AM 10.6 16-ene-2011 5:40:00 AM 0.817
    16-ene-2011 6:00:00 AM 11.1 16-ene-2011 6:00:00 AM 0.812
    16-ene-2011 6:10:00 AM 11.1 16-ene-2011 6:10:00 AM 0.823
    16-ene-2011 6:30:00 AM 11.1 16-ene-2011 6:30:00 AM 0.823
    16-ene-2011 6:40:00 AM 11.1 16-ene-2011 6:40:00 AM 0.829
    16-ene-2011 7:00:00 AM 11.1 16-ene-2011 7:00:00 AM 0.829
    16-ene-2011 7:10:00 AM 11.1 16-ene-2011 7:10:00 AM 0.829
    16-ene-2011 7:30:00 AM 11.1 16-ene-2011 7:30:00 AM 0.829
    16-ene-2011 7:40:00 AM 11.1 16-ene-2011 7:40:00 AM 0.84
    16-ene-2011 8:00:00 AM 11.1 16-ene-2011 8:00:00 AM 0.852
    16-ene-2011 8:10:00 AM 11.1 16-ene-2011 8:10:00 AM 0.863
    16-ene-2011 8:30:00 AM 11.1 16-ene-2011 8:30:00 AM 0.869
    16-ene-2011 8:40:00 AM 11.1 16-ene-2011 8:40:00 AM 0.863
    16-ene-2011 9:00:00 AM 11.1 16-ene-2011 9:00:00 AM 0.852
    16-ene-2011 9:10:00 AM 11.1 16-ene-2011 9:10:00 AM 0.852
    16-ene-2011 9:30:00 AM 11.1 16-ene-2011 9:30:00 AM 0.852
    16-ene-2011 9:40:00 AM 11.1 16-ene-2011 9:40:00 AM 0.863
    16-ene-2011 10:00:00 AM 11.1 16-ene-2011 10:00:00 AM 0.869
    16-ene-2011 10:10:00 AM 11.1 16-ene-2011 10:10:00 AM 0.869
    16-ene-2011 10:30:00 AM 11.1 16-ene-2011 10:30:00 AM 0.869
    16-ene-2011 10:40:00 AM 11.1 16-ene-2011 10:40:00 AM 0.869
    16-ene-2011 11:00:00 AM 11.1 16-ene-2011 11:00:00 AM 0.881
    16-ene-2011 11:10:00 AM 11.1 16-ene-2011 11:10:00 AM 0.893
    16-ene-2011 11:30:00 AM 11.1 16-ene-2011 11:30:00 AM 0.899
    16-ene-2011 11:40:00 AM 11.1 16-ene-2011 11:40:00 AM 0.911
    16-ene-2011 12:10:00 PM 11.1 16-ene-2011 12:10:00 PM 0.929
    16-ene-2011 12:30:00 PM 11.1 16-ene-2011 12:30:00 PM 0.929
    16-ene-2011 12:40:00 PM 11.1 16-ene-2011 12:40:00 PM 0.929
    16-ene-2011 1:00:00 PM 11.1 16-ene-2011 1:00:00 PM 0.929
    16-ene-2011 1:30:00 PM 10.6 16-ene-2011 1:30:00 PM 0.935
    16-ene-2011 1:40:00 PM 10.6 16-ene-2011 1:40:00 PM 0.935
    16-ene-2011 2:00:00 PM 10.6 16-ene-2011 2:00:00 PM 0.935
    16-ene-2011 2:10:00 PM 10 16-ene-2011 2:10:00 PM 0.941
    16-ene-2011 2:30:00 PM 10 16-ene-2011 2:30:00 PM 0.941
    16-ene-2011 2:40:00 PM 10 16-ene-2011 2:40:00 PM 0.941
    16-ene-2011 3:00:00 PM 10 16-ene-2011 3:00:00 PM 0.941
    16-ene-2011 3:10:00 PM 10 16-ene-2011 3:10:00 PM 0.941
    16-ene-2011 3:30:00 PM 10 16-ene-2011 3:30:00 PM 0.941
    16-ene-2011 3:40:00 PM 10 16-ene-2011 3:40:00 PM 0.941
    16-ene-2011 4:00:00 PM 10 16-ene-2011 4:00:00 PM 0.941
    16-ene-2011 4:10:00 PM 10 16-ene-2011 4:10:00 PM 0.941
    16-ene-2011 4:30:00 PM 10 16-ene-2011 4:30:00 PM 0.941
    16-ene-2011 4:40:00 PM 10 16-ene-2011 4:40:00 PM 0.941
    16-ene-2011 5:00:00 PM 10 16-ene-2011 5:00:00 PM 0.941
    16-ene-2011 5:10:00 PM 9.4 16-ene-2011 5:10:00 PM 0.941
    16-ene-2011 5:30:00 PM 9.4 16-ene-2011 5:30:00 PM 0.941
    16-ene-2011 5:40:00 PM 9.4 16-ene-2011 5:40:00 PM 0.941
    16-ene-2011 6:00:00 PM 8.9 16-ene-2011 6:00:00 PM 0.941
    16-ene-2011 6:10:00 PM 8.9 16-ene-2011 6:10:00 PM 0.941
    16-ene-2011 6:30:00 PM 8.9 16-ene-2011 6:30:00 PM 0.941
    16-ene-2011 6:40:00 PM 8.9 16-ene-2011 6:40:00 PM 0.928
    16-ene-2011 7:00:00 PM 8.3 16-ene-2011 7:00:00 PM 0.934
    16-ene-2011 7:10:00 PM 8.3 16-ene-2011 7:10:00 PM 0.934
    16-ene-2011 7:30:00 PM 8.3 16-ene-2011 7:30:00 PM 0.921
    16-ene-2011 7:40:00 PM 8.3 16-ene-2011 7:40:00 PM 0.921
    16-ene-2011 8:00:00 PM 7.8 16-ene-2011 8:00:00 PM 0.909
    16-ene-2011 8:10:00 PM 7.8 16-ene-2011 8:10:00 PM 0.909
    16-ene-2011 8:30:00 PM 7.2 16-ene-2011 8:30:00 PM 0.902
    16-ene-2011 8:40:00 PM 7.2 16-ene-2011 8:40:00 PM 0.902
    16-ene-2011 9:00:00 PM 7.2 16-ene-2011 9:00:00 PM 0.889
    16-ene-2011 9:10:00 PM 7.2 16-ene-2011 9:10:00 PM 0.889
    16-ene-2011 9:30:00 PM 6.7 16-ene-2011 9:30:00 PM 0.889
    16-ene-2011 9:40:00 PM 6.7 16-ene-2011 9:40:00 PM 0.889
    16-ene-2011 10:10:00 PM 6.7 16-ene-2011 10:10:00 PM 0.889
    16-ene-2011 10:30:00 PM 6.7 16-ene-2011 10:30:00 PM 0.889
    16-ene-2011 10:40:00 PM 6.7 16-ene-2011 10:40:00 PM 0.889
    16-ene-2011 11:00:00 PM 6.7 16-ene-2011 11:00:00 PM 0.889
    16-ene-2011 11:10:00 PM 6.7 16-ene-2011 11:10:00 PM 0.889
    16-ene-2011 11:30:00 PM 6.1 16-ene-2011 11:30:00 PM 0.888
    16-ene-2011 11:40:00 PM 6.1 16-ene-2011 11:40:00 PM 0.888
    17-ene-2011 12:10:00 AM 5.6 17-ene-2011 12:10:00 AM 0.888
    17-ene-2011 12:30:00 AM 5.6 17-ene-2011 12:30:00 AM 0.888
    17-ene-2011 12:40:00 AM 5.6 17-ene-2011 12:40:00 AM 0.888
    17-ene-2011 1:00:00 AM 5.6 17-ene-2011 1:00:00 AM 0.894
    17-ene-2011 1:10:00 AM 5.6 17-ene-2011 1:10:00 AM 0.888
    17-ene-2011 1:30:00 AM 5 17-ene-2011 1:30:00 AM 0.888
    17-ene-2011 1:40:00 AM 5 17-ene-2011 1:40:00 AM 0.9
    17-ene-2011 2:00:00 AM 5.6 17-ene-2011 2:00:00 AM 0.894
    17-ene-2011 2:10:00 AM 5.6 17-ene-2011 2:10:00 AM 0.907
    17-ene-2011 2:30:00 AM 5.6 17-ene-2011 2:30:00 AM 0.907
    17-ene-2011 2:40:00 AM 5.6 17-ene-2011 2:40:00 AM 0.907
    17-ene-2011 3:00:00 AM 5.6 17-ene-2011 3:00:00 AM 0.907
    17-ene-2011 3:10:00 AM 5.6 17-ene-2011 3:10:00 AM 0.907
    17-ene-2011 3:30:00 AM 5.6 17-ene-2011 3:30:00 AM 0.907
    17-ene-2011 3:40:00 AM 5.6 17-ene-2011 3:40:00 AM 0.907
    17-ene-2011 4:00:00 AM 5.6 17-ene-2011 4:00:00 AM 0.907
    17-ene-2011 4:10:00 AM 5.6 17-ene-2011 4:10:00 AM 0.907
    17-ene-2011 4:30:00 AM 5.6 17-ene-2011 4:30:00 AM 0.907
    17-ene-2011 4:40:00 AM 5 17-ene-2011 4:40:00 AM 0.913
    17-ene-2011 5:00:00 AM 5 17-ene-2011 5:00:00 AM 0.913
    17-ene-2011 5:10:00 AM 5 17-ene-2011 5:10:00 AM 0.919
    17-ene-2011 5:40:00 AM 4.4 17-ene-2011 5:40:00 AM 0.926
    17-ene-2011 6:00:00 AM 4.4 17-ene-2011 6:00:00 AM 0.932
    17-ene-2011 6:10:00 AM 4.4 17-ene-2011 6:10:00 AM 0.926
    17-ene-2011 6:30:00 AM 4.4 17-ene-2011 6:30:00 AM 0.932
    17-ene-2011 6:40:00 AM 4.4 17-ene-2011 6:40:00 AM 0.932
    17-ene-2011 7:00:00 AM 4.4 17-ene-2011 7:00:00 AM 0.932
    17-ene-2011 7:10:00 AM 4.4 17-ene-2011 7:10:00 AM 0.932
    17-ene-2011 7:30:00 AM 4.4 17-ene-2011 7:30:00 AM 0.932
    17-ene-2011 7:40:00 AM 4.4 17-ene-2011 7:40:00 AM 0.932
    17-ene-2011 8:10:00 AM 4.4 17-ene-2011 8:10:00 AM 0.945
    17-ene-2011 8:30:00 AM 4.4 17-ene-2011 8:30:00 AM 0.945
    17-ene-2011 8:40:00 AM 4.4 17-ene-2011 8:40:00 AM 0.945
    17-ene-2011 9:00:00 AM 4.4 17-ene-2011 9:00:00 AM 0.945
    17-ene-2011 9:10:00 AM 4.4 17-ene-2011 9:10:00 AM 0.952
    17-ene-2011 9:30:00 AM 4.4 17-ene-2011 9:30:00 AM 0.952
    17-ene-2011 9:40:00 AM 4.4 17-ene-2011 9:40:00 AM 0.945
    17-ene-2011 10:10:00 AM 4.4 17-ene-2011 10:10:00 AM 0.952
    17-ene-2011 10:30:00 AM 4.4 17-ene-2011 10:30:00 AM 0.952
    17-ene-2011 10:40:00 AM 4.4 17-ene-2011 10:40:00 AM 0.952
    17-ene-2011 11:00:00 AM 4.4 17-ene-2011 11:00:00 AM 0.966
    17-ene-2011 11:10:00 AM 5 17-ene-2011 11:10:00 AM 0.959
    17-ene-2011 11:30:00 AM 5 17-ene-2011 11:30:00 AM 0.972
    17-ene-2011 11:40:00 AM 5.6 17-ene-2011 11:40:00 AM 0.966
    17-ene-2011 12:00:00 PM 5.6 17-ene-2011 12:00:00 PM 0.966
    17-ene-2011 12:10:00 PM 5.6 17-ene-2011 12:10:00 PM 0.966
    17-ene-2011 12:30:00 PM 6.1 17-ene-2011 12:30:00 PM 0.973
    17-ene-2011 12:40:00 PM 6.1 17-ene-2011 12:40:00 PM 0.973
    17-ene-2011 1:00:00 PM 6.1 17-ene-2011 1:00:00 PM 0.973
    17-ene-2011 1:10:00 PM 6.1 17-ene-2011 1:10:00 PM 0.973
    17-ene-2011 1:30:00 PM 6.1 17-ene-2011 1:30:00 PM 0.959
    17-ene-2011 1:40:00 PM 6.7 17-ene-2011 1:40:00 PM 0.966
    17-ene-2011 2:00:00 PM 6.7 17-ene-2011 2:00:00 PM 0.96
    17-ene-2011 2:10:00 PM 6.7 17-ene-2011 2:10:00 PM 0.946
    17-ene-2011 2:30:00 PM 7.2 17-ene-2011 2:30:00 PM 0.953
    17-ene-2011 2:40:00 PM 7.2 17-ene-2011 2:40:00 PM 0.94
    17-ene-2011 3:00:00 PM 7.2 17-ene-2011 3:00:00 PM 0.934
    17-ene-2011 3:30:00 PM 7.2 17-ene-2011 3:30:00 PM 0.902
    17-ene-2011 3:40:00 PM 7.2 17-ene-2011 3:40:00 PM 0.889
    17-ene-2011 4:00:00 PM 6.7 17-ene-2011 4:00:00 PM 0.889
    17-ene-2011 4:10:00 PM 6.7 17-ene-2011 4:10:00 PM 0.877
    17-ene-2011 4:30:00 PM 6.7 17-ene-2011 4:30:00 PM 0.871
    17-ene-2011 4:40:00 PM 6.1 17-ene-2011 4:40:00 PM 0.882
    17-ene-2011 5:00:00 PM 6.1 17-ene-2011 5:00:00 PM 0.882
    17-ene-2011 5:10:00 PM 6.1 17-ene-2011 5:10:00 PM 0.882
    17-ene-2011 5:30:00 PM 6.1 17-ene-2011 5:30:00 PM 0.888
    17-ene-2011 5:40:00 PM 6.1 17-ene-2011 5:40:00 PM 0.888
    17-ene-2011 6:00:00 PM 6.1 17-ene-2011 6:00:00 PM 0.888
    17-ene-2011 6:10:00 PM 6.1 17-ene-2011 6:10:00 PM 0.888
    17-ene-2011 6:30:00 PM 6.1 17-ene-2011 6:30:00 PM 0.888
    17-ene-2011 6:40:00 PM 5.6 17-ene-2011 6:40:00 PM 0.888
    17-ene-2011 7:00:00 PM 5.6 17-ene-2011 7:00:00 PM 0.888
    17-ene-2011 7:10:00 PM 5.6 17-ene-2011 7:10:00 PM 0.888
    17-ene-2011 7:40:00 PM 5.6 17-ene-2011 7:40:00 PM 0.894
    17-ene-2011 8:00:00 PM 5.6 17-ene-2011 8:00:00 PM 0.894
    17-ene-2011 8:10:00 PM 5.6 17-ene-2011 8:10:00 PM 0.894
    17-ene-2011 8:30:00 PM 5 17-ene-2011 8:30:00 PM 0.9
    17-ene-2011 8:40:00 PM 5 17-ene-2011 8:40:00 PM 0.913
    17-ene-2011 9:00:00 PM 5 17-ene-2011 9:00:00 PM 0.913
    17-ene-2011 9:10:00 PM 5 17-ene-2011 9:10:00 PM 0.913
    17-ene-2011 9:30:00 PM 5 17-ene-2011 9:30:00 PM 0.913
    17-ene-2011 9:40:00 PM 4.4 17-ene-2011 9:40:00 PM 0.913
    17-ene-2011 10:00:00 PM 4.4 17-ene-2011 10:00:00 PM 0.926
    17-ene-2011 10:10:00 PM 5 17-ene-2011 10:10:00 PM 0.919
    17-ene-2011 10:30:00 PM 5 17-ene-2011 10:30:00 PM 0.919
    17-ene-2011 10:40:00 PM 4.4 17-ene-2011 10:40:00 PM 0.926
    17-ene-2011 11:10:00 PM 4.4 17-ene-2011 11:10:00 PM 0.932
    17-ene-2011 11:30:00 PM 3.9 17-ene-2011 11:30:00 PM 0.919
    17-ene-2011 11:40:00 PM 3.9 17-ene-2011 11:40:00 PM 0.919
    18-ene-2011 12:10:00 AM 3.9 18-ene-2011 12:10:00 AM 0.932
    18-ene-2011 12:30:00 AM 3.9 18-ene-2011 12:30:00 AM 0.932
    18-ene-2011 12:40:00 AM 3.9 18-ene-2011 12:40:00 AM 0.932
    18-ene-2011 1:00:00 AM 3.9 18-ene-2011 1:00:00 AM 0.932
    18-ene-2011 1:10:00 AM 3.9 18-ene-2011 1:10:00 AM 0.938
    18-ene-2011 1:30:00 AM 3.9 18-ene-2011 1:30:00 AM 0.938
    18-ene-2011 1:40:00 AM 3.9 18-ene-2011 1:40:00 AM 0.938
    18-ene-2011 2:00:00 AM 3.9 18-ene-2011 2:00:00 AM 0.938
    18-ene-2011 2:10:00 AM 3.9 18-ene-2011 2:10:00 AM 0.938
    18-ene-2011 2:30:00 AM 3.9 18-ene-2011 2:30:00 AM 0.938
    18-ene-2011 2:40:00 AM 3.9 18-ene-2011 2:40:00 AM 0.938
    18-ene-2011 3:10:00 AM 3.9 18-ene-2011 3:10:00 AM 0.938
    18-ene-2011 3:30:00 AM 3.9 18-ene-2011 3:30:00 AM 0.952
    18-ene-2011 3:40:00 AM 3.3 18-ene-2011 3:40:00 AM 0.952
    18-ene-2011 4:30:00 AM 3.3 18-ene-2011 4:30:00 AM 0.952
    18-ene-2011 4:40:00 AM 3.3 18-ene-2011 4:40:00 AM 0.965
    18-ene-2011 5:00:00 AM 3.3 18-ene-2011 5:00:00 AM 0.965
    18-ene-2011 5:30:00 AM 3.3 18-ene-2011 5:30:00 AM 0.965
    18-ene-2011 5:40:00 AM 3.3 18-ene-2011 5:40:00 AM 0.972
    18-ene-2011 6:00:00 AM 3.9 18-ene-2011 6:00:00 AM 0.959
    18-ene-2011 6:10:00 AM 3.3 18-ene-2011 6:10:00 AM 0.965
    18-ene-2011 6:30:00 AM 3.9 18-ene-2011 6:30:00 AM 0.972
    18-ene-2011 6:40:00 AM 3.9 18-ene-2011 6:40:00 AM 0.972
    18-ene-2011 7:00:00 AM 3.9 18-ene-2011 7:00:00 AM 0.972
    18-ene-2011 7:10:00 AM 3.9 18-ene-2011 7:10:00 AM 0.972
    18-ene-2011 7:30:00 AM 3.9 18-ene-2011 7:30:00 AM 0.972
    18-ene-2011 7:40:00 AM 3.3 18-ene-2011 7:40:00 AM 0.972
    18-ene-2011 8:00:00 AM 3.3 18-ene-2011 8:00:00 AM 0.972
    18-ene-2011 8:10:00 AM 3.3 18-ene-2011 8:10:00 AM 0.972
    18-ene-2011 8:30:00 AM 3.3 18-ene-2011 8:30:00 AM 0.986
    18-ene-2011 9:00:00 AM 3.3 18-ene-2011 9:00:00 AM 0.972
    18-ene-2011 9:10:00 AM 3.3 18-ene-2011 9:10:00 AM 0.986
    18-ene-2011 9:30:00 AM 3.3 18-ene-2011 9:30:00 AM 0.986
    18-ene-2011 9:40:00 AM 3.3 18-ene-2011 9:40:00 AM 0.986
    18-ene-2011 10:00:00 AM 3.3 18-ene-2011 10:00:00 AM 0.986
    18-ene-2011 10:10:00 AM 3.9 18-ene-2011 10:10:00 AM 0.979
    18-ene-2011 10:30:00 AM 3.9 18-ene-2011 10:30:00 AM 0.979
    18-ene-2011 10:40:00 AM 3.9 18-ene-2011 10:40:00 AM 0.979
    18-ene-2011 11:00:00 AM 5 18-ene-2011 11:00:00 AM 0.993
    18-ene-2011 11:10:00 AM 5 18-ene-2011 11:10:00 AM 0.993
    18-ene-2011 11:30:00 AM 5 18-ene-2011 11:30:00 AM 0.993
    18-ene-2011 11:40:00 AM 5 18-ene-2011 11:40:00 AM 0.993
    18-ene-2011 12:00:00 PM 5 18-ene-2011 12:00:00 PM 0.993
    18-ene-2011 12:10:00 PM 5.6 18-ene-2011 12:10:00 PM 0.986
    18-ene-2011 12:30:00 PM 5.6 18-ene-2011 12:30:00 PM 0.986
    18-ene-2011 12:40:00 PM 5.6 18-ene-2011 12:40:00 PM 0.986
    18-ene-2011 1:00:00 PM 5.6 18-ene-2011 1:00:00 PM 0.979
    18-ene-2011 1:10:00 PM 6.1 18-ene-2011 1:10:00 PM 0.979
    18-ene-2011 1:30:00 PM 5.6 18-ene-2011 1:30:00 PM 0.966
    18-ene-2011 1:40:00 PM 5.6 18-ene-2011 1:40:00 PM 0.959
    18-ene-2011 2:00:00 PM 6.1 18-ene-2011 2:00:00 PM 0.933
    18-ene-2011 2:10:00 PM 6.1 18-ene-2011 2:10:00 PM 0.92
    18-ene-2011 2:30:00 PM 6.1 18-ene-2011 2:30:00 PM 0.888
    18-ene-2011 2:40:00 PM 6.1 18-ene-2011 2:40:00 PM 0.87
    18-ene-2011 3:00:00 PM 6.7 18-ene-2011 3:00:00 PM 0.841
    18-ene-2011 3:10:00 PM 6.1 18-ene-2011 3:10:00 PM 0.811
    18-ene-2011 3:30:00 PM 6.1 18-ene-2011 3:30:00 PM 0.799
    18-ene-2011 3:40:00 PM 6.1 18-ene-2011 3:40:00 PM 0.799
    18-ene-2011 4:00:00 PM 6.1 18-ene-2011 4:00:00 PM 0.799
    18-ene-2011 4:10:00 PM 6.1 18-ene-2011 4:10:00 PM 0.811
    18-ene-2011 4:30:00 PM 5.6 18-ene-2011 4:30:00 PM 0.81
    18-ene-2011 4:40:00 PM 5.6 18-ene-2011 4:40:00 PM 0.81
    18-ene-2011 5:00:00 PM 5.6 18-ene-2011 5:00:00 PM 0.816
    18-ene-2011 5:10:00 PM 5.6 18-ene-2011 5:10:00 PM 0.828
    18-ene-2011 5:30:00 PM 5.6 18-ene-2011 5:30:00 PM 0.828
    18-ene-2011 6:00:00 PM 5 18-ene-2011 6:00:00 PM 0.833
    18-ene-2011 6:10:00 PM 5 18-ene-2011 6:10:00 PM 0.839
    18-ene-2011 6:30:00 PM 4.4 18-ene-2011 6:30:00 PM 0.85
    18-ene-2011 6:40:00 PM 4.4 18-ene-2011 6:40:00 PM 0.85
    18-ene-2011 7:00:00 PM 4.4 18-ene-2011 7:00:00 PM 0.85
    18-ene-2011 7:10:00 PM 4.4 18-ene-2011 7:10:00 PM 0.85
    18-ene-2011 8:30:00 PM 3.9 18-ene-2011 8:30:00 PM 0.868
    18-ene-2011 8:40:00 PM 3.3 18-ene-2011 8:40:00 PM 0.873
    18-ene-2011 9:00:00 PM 3.9 18-ene-2011 9:00:00 PM 0.88
    18-ene-2011 9:10:00 PM 3.9 18-ene-2011 9:10:00 PM 0.88
    18-ene-2011 9:30:00 PM 3.3 18-ene-2011 9:30:00 PM 0.88
    18-ene-2011 9:40:00 PM 3.3 18-ene-2011 9:40:00 PM 0.88
    18-ene-2011 10:00:00 PM 3.3 18-ene-2011 10:00:00 PM 0.88
    18-ene-2011 10:10:00 PM 2.8 18-ene-2011 10:10:00 PM 0.886
    18-ene-2011 10:30:00 PM 2.8 18-ene-2011 10:30:00 PM 0.886
    18-ene-2011 10:40:00 PM 2.8 18-ene-2011 10:40:00 PM 0.886
    18-ene-2011 11:00:00 PM 2.2 18-ene-2011 11:00:00 PM 0.891
    18-ene-2011 11:10:00 PM 2.8 18-ene-2011 11:10:00 PM 0.898
    18-ene-2011 11:30:00 PM 2.8 18-ene-2011 11:30:00 PM 0.898
    18-ene-2011 11:40:00 PM 2.8 18-ene-2011 11:40:00 PM 0.898
    19-ene-2011 12:10:00 AM 2.8 19-ene-2011 12:10:00 AM 0.911
    19-ene-2011 12:30:00 AM 2.2 19-ene-2011 12:30:00 AM 0.911
    19-ene-2011 12:40:00 AM 2.2 19-ene-2011 12:40:00 AM 0.911
    19-ene-2011 1:00:00 AM 2.2 19-ene-2011 1:00:00 AM 0.924
    19-ene-2011 1:10:00 AM 2.2 19-ene-2011 1:10:00 AM 0.924
    19-ene-2011 1:30:00 AM 2.2 19-ene-2011 1:30:00 AM 0.911
    19-ene-2011 1:40:00 AM 2.2 19-ene-2011 1:40:00 AM 0.924
    19-ene-2011 2:00:00 AM 2.2 19-ene-2011 2:00:00 AM 0.931
    19-ene-2011 2:10:00 AM 2.8 19-ene-2011 2:10:00 AM 0.931
    19-ene-2011 2:30:00 AM 2.8 19-ene-2011 2:30:00 AM 0.931
    19-ene-2011 2:40:00 AM 3.3 19-ene-2011 2:40:00 AM 0.945
    19-ene-2011 3:00:00 AM 3.3 19-ene-2011 3:00:00 AM 0.945
    19-ene-2011 3:10:00 AM 3.3 19-ene-2011 3:10:00 AM 0.945
    19-ene-2011 3:30:00 AM 3.3 19-ene-2011 3:30:00 AM 0.945
    19-ene-2011 3:40:00 AM 3.3 19-ene-2011 3:40:00 AM 0.945
    19-ene-2011 4:00:00 AM 3.3 19-ene-2011 4:00:00 AM 0.945
    19-ene-2011 4:11:00 AM 3.3 19-ene-2011 4:11:00 AM 0.945
    19-ene-2011 4:30:00 AM 3.3 19-ene-2011 4:30:00 AM 0.952
    19-ene-2011 4:40:00 AM 3.3 19-ene-2011 4:40:00 AM 0.952
    19-ene-2011 6:00:00 AM 3.3 19-ene-2011 6:00:00 AM 0.952
    19-ene-2011 6:10:00 AM 3.3 19-ene-2011 6:10:00 AM 0.952
    19-ene-2011 6:30:00 AM 3.3 19-ene-2011 6:30:00 AM 0.952
    19-ene-2011 6:40:00 AM 2.8 19-ene-2011 6:40:00 AM 0.951
    19-ene-2011 7:00:00 AM 2.8 19-ene-2011 7:00:00 AM 0.951
    19-ene-2011 7:10:00 AM 2.8 19-ene-2011 7:10:00 AM 0.951
    19-ene-2011 7:30:00 AM 2.8 19-ene-2011 7:30:00 AM 0.951
    19-ene-2011 7:40:00 AM 2.8 19-ene-2011 7:40:00 AM 0.951
    19-ene-2011 8:00:00 AM 2.8 19-ene-2011 8:00:00 AM 0.951
    19-ene-2011 8:10:00 AM 2.8 19-ene-2011 8:10:00 AM 0.951
    19-ene-2011 8:30:00 AM 2.8 19-ene-2011 8:30:00 AM 0.951
    19-ene-2011 8:40:00 AM 2.8 19-ene-2011 8:40:00 AM 0.951
    19-ene-2011 9:00:00 AM 2.8 19-ene-2011 9:00:00 AM 0.958
    19-ene-2011 9:10:00 AM 2.8 19-ene-2011 9:10:00 AM 0.958
    19-ene-2011 9:30:00 AM 3.3 19-ene-2011 9:30:00 AM 0.965
    19-ene-2011 9:40:00 AM 3.3 19-ene-2011 9:40:00 AM 0.965
    19-ene-2011 10:00:00 AM 3.3 19-ene-2011 10:00:00 AM 0.972
    19-ene-2011 10:10:00 AM 3.3 19-ene-2011 10:10:00 AM 0.972
    19-ene-2011 10:30:00 AM 3.3 19-ene-2011 10:30:00 AM 0.972
    19-ene-2011 10:40:00 AM 3.3 19-ene-2011 10:40:00 AM 0.972
    19-ene-2011 11:00:00 AM 3.3 19-ene-2011 11:00:00 AM 0.972
    19-ene-2011 11:10:00 AM 3.3 19-ene-2011 11:10:00 AM 0.972
    19-ene-2011 11:30:00 AM 3.9 19-ene-2011 11:30:00 AM 0.979
    19-ene-2011 11:40:00 AM 3.9 19-ene-2011 11:40:00 AM 0.979
    19-ene-2011 12:00:00 PM 4.4 19-ene-2011 12:00:00 PM 0.986
    19-ene-2011 12:10:00 PM 4.4 19-ene-2011 12:10:00 PM 0.986
    19-ene-2011 12:30:00 PM 4.4 19-ene-2011 12:30:00 PM 0.986
    19-ene-2011 12:40:00 PM 4.4 19-ene-2011 12:40:00 PM 0.986
    19-ene-2011 1:00:00 PM 4.4 19-ene-2011 1:00:00 PM 0.986
    19-ene-2011 1:10:00 PM 4.4 19-ene-2011 1:10:00 PM 0.986
    19-ene-2011 1:30:00 PM 4.4 19-ene-2011 1:30:00 PM 0.993
    19-ene-2011 1:40:00 PM 4.4 19-ene-2011 1:40:00 PM 0.986
    19-ene-2011 2:00:00 PM 5 19-ene-2011 2:00:00 PM 0.979
    19-ene-2011 2:10:00 PM 4.4 19-ene-2011 2:10:00 PM 0.986
    19-ene-2011 2:30:00 PM 4.4 19-ene-2011 2:30:00 PM 0.986
    19-ene-2011 2:40:00 PM 5 19-ene-2011 2:40:00 PM 0.979
    19-ene-2011 3:00:00 PM 5 19-ene-2011 3:00:00 PM 0.979
    19-ene-2011 3:10:00 PM 5 19-ene-2011 3:10:00 PM 0.979
    19-ene-2011 3:30:00 PM 4.4 19-ene-2011 3:30:00 PM 0.972
    19-ene-2011 3:40:00 PM 4.4 19-ene-2011 3:40:00 PM 0.986
    19-ene-2011 4:00:00 PM 4.4 19-ene-2011 4:00:00 PM 0.986
    19-ene-2011 4:10:00 PM 4.4 19-ene-2011 4:10:00 PM 0.986
    19-ene-2011 4:30:00 PM 4.4 19-ene-2011 4:30:00 PM 0.972
    19-ene-2011 4:40:00 PM 4.4 19-ene-2011 4:40:00 PM 0.972
    19-ene-2011 5:00:00 PM 3.9 19-ene-2011 5:00:00 PM 0.972
    19-ene-2011 5:10:00 PM 3.9 19-ene-2011 5:10:00 PM 0.972
    19-ene-2011 5:30:00 PM 3.9 19-ene-2011 5:30:00 PM 0.972
    19-ene-2011 5:40:00 PM 3.3 19-ene-2011 5:40:00 PM 0.965
    19-ene-2011 6:00:00 PM 3.3 19-ene-2011 6:00:00 PM 0.972
    19-ene-2011 6:10:00 PM 3.3 19-ene-2011 6:10:00 PM 0.972
    19-ene-2011 6:30:00 PM 3.3 19-ene-2011 6:30:00 PM 0.965
    19-ene-2011 6:40:00 PM 2.8 19-ene-2011 6:40:00 PM 0.958
    19-ene-2011 7:00:00 PM 2.8 19-ene-2011 7:00:00 PM 0.958
    19-ene-2011 7:10:00 PM 2.8 19-ene-2011 7:10:00 PM 0.965
    19-ene-2011 7:30:00 PM 2.2 19-ene-2011 7:30:00 PM 0.965
    19-ene-2011 7:40:00 PM 2.8 19-ene-2011 7:40:00 PM 0.965
    19-ene-2011 8:00:00 PM 2.2 19-ene-2011 8:00:00 PM 0.965
    19-ene-2011 8:10:00 PM 2.2 19-ene-2011 8:10:00 PM 0.965
    19-ene-2011 8:30:00 PM 2.2 19-ene-2011 8:30:00 PM 0.965
    19-ene-2011 8:40:00 PM 1.7 19-ene-2011 8:40:00 PM 0.958
    19-ene-2011 9:00:00 PM 1.7 19-ene-2011 9:00:00 PM 0.958
    19-ene-2011 9:10:00 PM 1.7 19-ene-2011 9:10:00 PM 0.958
    19-ene-2011 9:30:00 PM 1.7 19-ene-2011 9:30:00 PM 0.958
    19-ene-2011 9:40:00 PM 1.7 19-ene-2011 9:40:00 PM 0.958
    19-ene-2011 10:00:00 PM 1.1 19-ene-2011 10:00:00 PM 0.958
    19-ene-2011 10:10:00 PM 1.1 19-ene-2011 10:10:00 PM 0.958
    19-ene-2011 10:30:00 PM 1.1 19-ene-2011 10:30:00 PM 0.972
    19-ene-2011 10:40:00 PM 1.1 19-ene-2011 10:40:00 PM 0.972
    19-ene-2011 11:00:00 PM 1.7 19-ene-2011 11:00:00 PM 0.965
    19-ene-2011 11:10:00 PM 1.7 19-ene-2011 11:10:00 PM 0.965
    19-ene-2011 11:30:00 PM 1.7 19-ene-2011 11:30:00 PM 0.979
    19-ene-2011 11:40:00 PM 1.7 19-ene-2011 11:40:00 PM 0.979
    20-ene-2011 12:10:00 AM 1.7 20-ene-2011 12:10:00 AM 0.979
    20-ene-2011 12:30:00 AM 1.7 20-ene-2011 12:30:00 AM 0.979
    20-ene-2011 12:40:00 AM 1.7 20-ene-2011 12:40:00 AM 0.979
    20-ene-2011 1:00:00 AM 1.7 20-ene-2011 1:00:00 AM 0.979
    20-ene-2011 1:10:00 AM 1.7 20-ene-2011 1:10:00 AM 0.979
    20-ene-2011 1:30:00 AM 1.7 20-ene-2011 1:30:00 AM 0.979
    20-ene-2011 1:40:00 AM 1.7 20-ene-2011 1:40:00 AM 0.979
    20-ene-2011 2:00:00 AM 1.7 20-ene-2011 2:00:00 AM 0.979
    20-ene-2011 2:10:00 AM 1.7 20-ene-2011 2:10:00 AM 0.979
    20-ene-2011 2:30:00 AM 1.1 20-ene-2011 2:30:00 AM 0.979
    20-ene-2011 2:40:00 AM 1.1 20-ene-2011 2:40:00 AM 0.979
    20-ene-2011 2:50:00 AM 1.1 20-ene-2011 2:50:00 AM 0.979
    20-ene-2011 3:10:00 AM 0.6 20-ene-2011 3:10:00 AM 0.964
    20-ene-2011 3:30:00 AM 0 20-ene-2011 3:30:00 AM 0.986
    20-ene-2011 3:40:00 AM 0 20-ene-2011 3:40:00 AM 0.986
    20-ene-2011 4:00:00 AM 0 20-ene-2011 4:00:00 AM 0.978
    20-ene-2011 4:10:00 AM 0 20-ene-2011 4:10:00 AM 0.986
    20-ene-2011 4:30:00 AM 0 20-ene-2011 4:30:00 AM 0.986
    20-ene-2011 4:40:00 AM 0 20-ene-2011 4:40:00 AM 0.986
    20-ene-2011 5:00:00 AM -0.5 20-ene-2011 5:00:00 AM 0.986
    20-ene-2011 5:10:00 AM -0.5 20-ene-2011 5:10:00 AM 0.986
    20-ene-2011 5:30:00 AM -0.5 20-ene-2011 5:30:00 AM 0.986
    20-ene-2011 5:40:00 AM -0.5 20-ene-2011 5:40:00 AM 0.986
    20-ene-2011 6:00:00 AM -0.5 20-ene-2011 6:00:00 AM 0.971
    20-ene-2011 6:10:00 AM -1 20-ene-2011 6:10:00 AM 0.978
    20-ene-2011 6:30:00 AM -0.5 20-ene-2011 6:30:00 AM 0.986
    20-ene-2011 6:40:00 AM -0.5 20-ene-2011 6:40:00 AM 0.986
    20-ene-2011 7:00:00 AM -1 20-ene-2011 7:00:00 AM 0.978
    20-ene-2011 7:10:00 AM -1 20-ene-2011 7:10:00 AM 0.971
    20-ene-2011 7:30:00 AM -1 20-ene-2011 7:30:00 AM 0.971
    20-ene-2011 7:40:00 AM -1 20-ene-2011 7:40:00 AM 0.978
    20-ene-2011 8:00:00 AM -1 20-ene-2011 8:00:00 AM 0.978
    20-ene-2011 8:10:00 AM -1.6 20-ene-2011 8:10:00 AM 0.971
    20-ene-2011 8:30:00 AM -1 20-ene-2011 8:30:00 AM 0.978
    20-ene-2011 8:40:00 AM -1 20-ene-2011 8:40:00 AM 0.978
    20-ene-2011 9:00:00 AM -1 20-ene-2011 9:00:00 AM 0.978
    20-ene-2011 9:10:00 AM -1 20-ene-2011 9:10:00 AM 0.978
    20-ene-2011 9:30:00 AM -1.6 20-ene-2011 9:30:00 AM 0.985
    20-ene-2011 9:40:00 AM -1.6 20-ene-2011 9:40:00 AM 0.971
    20-ene-2011 10:00:00 AM -1.6 20-ene-2011 10:00:00 AM 0.971
    20-ene-2011 10:10:00 AM -1.6 20-ene-2011 10:10:00 AM 0.985
    20-ene-2011 10:30:00 AM -1.6 20-ene-2011 10:30:00 AM 0.985
    20-ene-2011 10:40:00 AM -1 20-ene-2011 10:40:00 AM 0.978
    20-ene-2011 11:00:00 AM -1 20-ene-2011 11:00:00 AM 0.978
    20-ene-2011 11:10:00 AM -1 20-ene-2011 11:10:00 AM 0.978
    20-ene-2011 11:30:00 AM -1 20-ene-2011 11:30:00 AM 0.978
    20-ene-2011 11:40:00 AM -0.5 20-ene-2011 11:40:00 AM 0.986
    20-ene-2011 12:00:00 PM -0.5 20-ene-2011 12:00:00 PM 0.986
    20-ene-2011 12:10:00 PM -1 20-ene-2011 12:10:00 PM 0.978
    20-ene-2011 12:30:00 PM -0.5 20-ene-2011 12:30:00 PM 0.986
    20-ene-2011 12:40:00 PM -0.5 20-ene-2011 12:40:00 PM 0.986
    20-ene-2011 1:00:00 PM 0 20-ene-2011 1:00:00 PM 1
    20-ene-2011 1:10:00 PM 0 20-ene-2011 1:10:00 PM 0.986
    20-ene-2011 2:10:00 PM -0.5 20-ene-2011 2:10:00 PM 0.986
    20-ene-2011 2:30:00 PM -0.5 20-ene-2011 2:30:00 PM 0.986
    20-ene-2011 2:40:00 PM -0.5 20-ene-2011 2:40:00 PM 0.986
    20-ene-2011 3:00:00 PM -0.5 20-ene-2011 3:00:00 PM 0.986
    20-ene-2011 3:10:00 PM -0.5 20-ene-2011 3:10:00 PM 0.986
    20-ene-2011 3:30:00 PM -0.5 20-ene-2011 3:30:00 PM 0.986
    20-ene-2011 3:40:00 PM -0.5 20-ene-2011 3:40:00 PM 0.986
    20-ene-2011 4:00:00 PM -1 20-ene-2011 4:00:00 PM 0.978
    20-ene-2011 4:10:00 PM -1 20-ene-2011 4:10:00 PM 0.978
    20-ene-2011 4:30:00 PM -1 20-ene-2011 4:30:00 PM 0.978
    20-ene-2011 4:40:00 PM -1 20-ene-2011 4:40:00 PM 0.978
    20-ene-2011 5:00:00 PM -1 20-ene-2011 5:00:00 PM 0.978
    20-ene-2011 5:10:00 PM -1 20-ene-2011 5:10:00 PM 0.978
    20-ene-2011 5:30:00 PM -1 20-ene-2011 5:30:00 PM 0.978
    20-ene-2011 5:40:00 PM -1 20-ene-2011 5:40:00 PM 0.978
    20-ene-2011 6:00:00 PM -1 20-ene-2011 6:00:00 PM 0.978
    20-ene-2011 6:10:00 PM -1 20-ene-2011 6:10:00 PM 0.978
    20-ene-2011 6:30:00 PM -1 20-ene-2011 6:30:00 PM 0.978
    20-ene-2011 6:40:00 PM -1 20-ene-2011 6:40:00 PM 0.978
    20-ene-2011 7:00:00 PM -1 20-ene-2011 7:00:00 PM 0.978
    20-ene-2011 7:10:00 PM -1 20-ene-2011 7:10:00 PM 0.978
    20-ene-2011 7:30:00 PM -1 20-ene-2011 7:30:00 PM 0.978
    20-ene-2011 7:40:00 PM -1 20-ene-2011 7:40:00 PM 0.978
    20-ene-2011 8:00:00 PM -1.6 20-ene-2011 8:00:00 PM 0.985
    20-ene-2011 8:10:00 PM -1 20-ene-2011 8:10:00 PM 0.978
    20-ene-2011 8:30:00 PM -1 20-ene-2011 8:30:00 PM 0.978
    20-ene-2011 8:40:00 PM -1 20-ene-2011 8:40:00 PM 0.978
    20-ene-2011 9:00:00 PM -1.6 20-ene-2011 9:00:00 PM 0.985
    20-ene-2011 9:10:00 PM -1.6 20-ene-2011 9:10:00 PM 0.985
    20-ene-2011 9:30:00 PM -1.6 20-ene-2011 9:30:00 PM 0.985
    20-ene-2011 9:40:00 PM -1.6 20-ene-2011 9:40:00 PM 0.985
    20-ene-2011 10:00:00 PM -2.1 20-ene-2011 10:00:00 PM 0.978
    20-ene-2011 10:10:00 PM -2.1 20-ene-2011 10:10:00 PM 0.978
    20-ene-2011 10:30:00 PM -2.1 20-ene-2011 10:30:00 PM 0.978
    20-ene-2011 10:40:00 PM -2.1 20-ene-2011 10:40:00 PM 0.978
    20-ene-2011 11:00:00 PM -2.1 20-ene-2011 11:00:00 PM 0.978
    20-ene-2011 11:10:00 PM -2.1 20-ene-2011 11:10:00 PM 0.978
    20-ene-2011 11:30:00 PM -1.6 20-ene-2011 11:30:00 PM 0.985
    20-ene-2011 11:40:00 PM -1.6 20-ene-2011 11:40:00 PM 0.985
    21-ene-2011 12:10:00 AM -2.1 21-ene-2011 12:10:00 AM 0.978
    21-ene-2011 12:30:00 AM -2.1 21-ene-2011 12:30:00 AM 0.978
    21-ene-2011 12:40:00 AM -2.1 21-ene-2011 12:40:00 AM 0.978
    21-ene-2011 1:00:00 AM -2.1 21-ene-2011 1:00:00 AM 0.978
    21-ene-2011 1:10:00 AM -2.1 21-ene-2011 1:10:00 AM 0.971
    21-ene-2011 1:30:00 AM -1.6 21-ene-2011 1:30:00 AM 0.985
    21-ene-2011 1:40:00 AM -1.6 21-ene-2011 1:40:00 AM 0.985
    21-ene-2011 2:00:00 AM -1.6 21-ene-2011 2:00:00 AM 0.985
    21-ene-2011 2:10:00 AM -1 21-ene-2011 2:10:00 AM 0.978
    21-ene-2011 2:30:00 AM -1 21-ene-2011 2:30:00 AM 0.978
    21-ene-2011 2:40:00 AM -1 21-ene-2011 2:40:00 AM 0.978
    21-ene-2011 3:00:00 AM -1 21-ene-2011 3:00:00 AM 0.978
    21-ene-2011 3:10:00 AM -1 21-ene-2011 3:10:00 AM 0.978
    21-ene-2011 3:30:00 AM -1 21-ene-2011 3:30:00 AM 0.978
    21-ene-2011 3:40:00 AM -1 21-ene-2011 3:40:00 AM 0.978
    21-ene-2011 4:00:00 AM -1 21-ene-2011 4:00:00 AM 0.978
    21-ene-2011 4:10:00 AM -1 21-ene-2011 4:10:00 AM 0.978
    21-ene-2011 4:30:00 AM -0.5 21-ene-2011 4:30:00 AM 0.986
    21-ene-2011 4:40:00 AM -0.5 21-ene-2011 4:40:00 AM 0.986
    21-ene-2011 5:00:00 AM -0.5 21-ene-2011 5:00:00 AM 0.986
    21-ene-2011 5:10:00 AM -1 21-ene-2011 5:10:00 AM 0.978
    21-ene-2011 5:30:00 AM -0.5 21-ene-2011 5:30:00 AM 0.986
    21-ene-2011 5:40:00 AM -0.5 21-ene-2011 5:40:00 AM 0.986
    21-ene-2011 6:00:00 AM -0.5 21-ene-2011 6:00:00 AM 0.993
    21-ene-2011 6:10:00 AM -0.5 21-ene-2011 6:10:00 AM 0.993
    21-ene-2011 6:30:00 AM -0.5 21-ene-2011 6:30:00 AM 0.986
    21-ene-2011 6:40:00 AM -0.5 21-ene-2011 6:40:00 AM 0.986
    21-ene-2011 7:00:00 AM -0.5 21-ene-2011 7:00:00 AM 0.986
    21-ene-2011 7:10:00 AM -0.5 21-ene-2011 7:10:00 AM 0.986
    21-ene-2011 7:30:00 AM -0.5 21-ene-2011 7:30:00 AM 0.986
    21-ene-2011 7:40:00 AM 0 21-ene-2011 7:40:00 AM 0.986
    21-ene-2011 8:00:00 AM 0 21-ene-2011 8:00:00 AM 0.986
    21-ene-2011 8:10:00 AM 0 21-ene-2011 8:10:00 AM 0.986
    21-ene-2011 8:30:00 AM -0.5 21-ene-2011 8:30:00 AM 0.986
    21-ene-2011 8:40:00 AM 0 21-ene-2011 8:40:00 AM 0.986
    21-ene-2011 9:00:00 AM 0 21-ene-2011 9:00:00 AM 0.986
    21-ene-2011 9:10:00 AM 0 21-ene-2011 9:10:00 AM 0.986
    21-ene-2011 9:30:00 AM 0 21-ene-2011 9:30:00 AM 0.986
    21-ene-2011 9:40:00 AM 0 21-ene-2011 9:40:00 AM 0.986
    21-ene-2011 10:00:00 AM 0.6 21-ene-2011 10:00:00 AM 0.979
    21-ene-2011 10:10:00 AM 0.6 21-ene-2011 10:10:00 AM 0.979
    21-ene-2011 10:30:00 AM 0.6 21-ene-2011 10:30:00 AM 0.979
    21-ene-2011 10:40:00 AM 0.6 21-ene-2011 10:40:00 AM 0.964
    21-ene-2011 11:00:00 AM 1.1 21-ene-2011 11:00:00 AM 0.972
    21-ene-2011 11:10:00 AM 1.1 21-ene-2011 11:10:00 AM 0.958
    21-ene-2011 11:30:00 AM 1.1 21-ene-2011 11:30:00 AM 0.951
    21-ene-2011 11:40:00 AM 1.1 21-ene-2011 11:40:00 AM 0.944
    21-ene-2011 12:00:00 PM 1.7 21-ene-2011 12:00:00 PM 0.911
    21-ene-2011 12:10:00 PM 1.7 21-ene-2011 12:10:00 PM 0.898
    21-ene-2011 12:30:00 PM 2.2 21-ene-2011 12:30:00 PM 0.872
    21-ene-2011 12:40:00 PM 2.2 21-ene-2011 12:40:00 PM 0.854
    21-ene-2011 1:00:00 PM 2.8 21-ene-2011 1:00:00 PM 0.812
    21-ene-2011 1:10:00 PM 2.8 21-ene-2011 1:10:00 PM 0.794
    21-ene-2011 1:30:00 PM 3.3 21-ene-2011 1:30:00 PM 0.778
    21-ene-2011 1:40:00 PM 3.3 21-ene-2011 1:40:00 PM 0.756
    21-ene-2011 2:00:00 PM 3.9 21-ene-2011 2:00:00 PM 0.724
    21-ene-2011 2:10:00 PM 3.9 21-ene-2011 2:10:00 PM 0.693
    21-ene-2011 2:30:00 PM 3.9 21-ene-2011 2:30:00 PM 0.735
    21-ene-2011 2:40:00 PM 3.9 21-ene-2011 2:40:00 PM 0.746
    21-ene-2011 3:00:00 PM 3.9 21-ene-2011 3:00:00 PM 0.762
    21-ene-2011 3:10:00 PM 3.9 21-ene-2011 3:10:00 PM 0.762
    21-ene-2011 3:30:00 PM 3.3 21-ene-2011 3:30:00 PM 0.778
    21-ene-2011 3:40:00 PM 3.3 21-ene-2011 3:40:00 PM 0.778
    21-ene-2011 4:00:00 PM 3.3 21-ene-2011 4:00:00 PM 0.778
    21-ene-2011 4:10:00 PM 3.3 21-ene-2011 4:10:00 PM 0.778
    21-ene-2011 4:30:00 PM 3.3 21-ene-2011 4:30:00 PM 0.778
    21-ene-2011 4:40:00 PM 2.8 21-ene-2011 4:40:00 PM 0.772
    21-ene-2011 5:00:00 PM 2.8 21-ene-2011 5:00:00 PM 0.772
    21-ene-2011 5:10:00 PM 2.8 21-ene-2011 5:10:00 PM 0.772
    21-ene-2011 5:30:00 PM 2.2 21-ene-2011 5:30:00 PM 0.788
    21-ene-2011 5:40:00 PM 2.2 21-ene-2011 5:40:00 PM 0.776
    21-ene-2011 6:00:00 PM 2.2 21-ene-2011 6:00:00 PM 0.765
    21-ene-2011 6:10:00 PM 2.2 21-ene-2011 6:10:00 PM 0.759
    21-ene-2011 6:30:00 PM 2.2 21-ene-2011 6:30:00 PM 0.759
    21-ene-2011 6:40:00 PM 2.2 21-ene-2011 6:40:00 PM 0.759
    21-ene-2011 7:00:00 PM 1.7 21-ene-2011 7:00:00 PM 0.753
    21-ene-2011 7:10:00 PM 1.7 21-ene-2011 7:10:00 PM 0.753
    21-ene-2011 7:30:00 PM 1.7 21-ene-2011 7:30:00 PM 0.764
    21-ene-2011 7:40:00 PM 1.7 21-ene-2011 7:40:00 PM 0.775
    21-ene-2011 8:00:00 PM 1.7 21-ene-2011 8:00:00 PM 0.775
    21-ene-2011 8:10:00 PM 1.7 21-ene-2011 8:10:00 PM 0.775
    21-ene-2011 8:30:00 PM 1.1 21-ene-2011 8:30:00 PM 0.774
    21-ene-2011 8:40:00 PM 1.1 21-ene-2011 8:40:00 PM 0.774
    21-ene-2011 9:00:00 PM 1.1 21-ene-2011 9:00:00 PM 0.786
    21-ene-2011 9:10:00 PM 0.6 21-ene-2011 9:10:00 PM 0.785
    21-ene-2011 9:30:00 PM 0.6 21-ene-2011 9:30:00 PM 0.791
    21-ene-2011 9:40:00 PM 0.6 21-ene-2011 9:40:00 PM 0.791
    21-ene-2011 10:00:00 PM 0 21-ene-2011 10:00:00 PM 0.808
    21-ene-2011 10:10:00 PM 0 21-ene-2011 10:10:00 PM 0.814
    21-ene-2011 10:30:00 PM 0 21-ene-2011 10:30:00 PM 0.814
    21-ene-2011 10:40:00 PM 0 21-ene-2011 10:40:00 PM 0.814
    21-ene-2011 11:00:00 PM 0 21-ene-2011 11:00:00 PM 0.814
    21-ene-2011 11:10:00 PM 0 21-ene-2011 11:10:00 PM 0.826
    21-ene-2011 11:30:00 PM 0 21-ene-2011 11:30:00 PM 0.826
    21-ene-2011 11:40:00 PM -0.5 21-ene-2011 11:40:00 PM 0.825
    22-ene-2011 12:10:00 AM -0.5 22-ene-2011 12:10:00 AM 0.825
    22-ene-2011 12:30:00 AM -1 22-ene-2011 12:30:00 AM 0.831
    22-ene-2011 12:40:00 AM -1 22-ene-2011 12:40:00 AM 0.831
    22-ene-2011 1:00:00 AM -1 22-ene-2011 1:00:00 AM 0.831
    22-ene-2011 1:10:00 AM -1 22-ene-2011 1:10:00 AM 0.837
    22-ene-2011 1:30:00 AM -1 22-ene-2011 1:30:00 AM 0.837
    22-ene-2011 1:40:00 AM -1 22-ene-2011 1:40:00 AM 0.837
    22-ene-2011 2:00:00 AM -1 22-ene-2011 2:00:00 AM 0.837
    22-ene-2011 2:10:00 AM -1 22-ene-2011 2:10:00 AM 0.85
    22-ene-2011 2:30:00 AM -1 22-ene-2011 2:30:00 AM 0.85
    22-ene-2011 2:40:00 AM -1 22-ene-2011 2:40:00 AM 0.85
    22-ene-2011 3:00:00 AM -1 22-ene-2011 3:00:00 AM 0.85
    22-ene-2011 3:10:00 AM -1 22-ene-2011 3:10:00 AM 0.85
    22-ene-2011 3:30:00 AM -1 22-ene-2011 3:30:00 AM 0.856
    22-ene-2011 3:40:00 AM -1 22-ene-2011 3:40:00 AM 0.856
    22-ene-2011 4:00:00 AM -1.6 22-ene-2011 4:00:00 AM 0.862
    22-ene-2011 4:10:00 AM -1 22-ene-2011 4:10:00 AM 0.856
    22-ene-2011 4:30:00 AM -1 22-ene-2011 4:30:00 AM 0.869
    22-ene-2011 4:40:00 AM -1 22-ene-2011 4:40:00 AM 0.869
    22-ene-2011 5:00:00 AM -1 22-ene-2011 5:00:00 AM 0.856
    22-ene-2011 5:10:00 AM -1.6 22-ene-2011 5:10:00 AM 0.875
    22-ene-2011 5:30:00 AM -1.6 22-ene-2011 5:30:00 AM 0.862
    22-ene-2011 5:40:00 AM -2.1 22-ene-2011 5:40:00 AM 0.861
    22-ene-2011 6:00:00 AM -2.1 22-ene-2011 6:00:00 AM 0.861
    22-ene-2011 6:10:00 AM -1.6 22-ene-2011 6:10:00 AM 0.862
    22-ene-2011 6:30:00 AM -1.6 22-ene-2011 6:30:00 AM 0.875
    22-ene-2011 6:40:00 AM -1.6 22-ene-2011 6:40:00 AM 0.875
    22-ene-2011 7:00:00 AM -1.6 22-ene-2011 7:00:00 AM 0.875
    22-ene-2011 7:10:00 AM -1.6 22-ene-2011 7:10:00 AM 0.875
    22-ene-2011 7:30:00 AM -1 22-ene-2011 7:30:00 AM 0.869
    22-ene-2011 7:40:00 AM -1 22-ene-2011 7:40:00 AM 0.869
    22-ene-2011 8:00:00 AM -1 22-ene-2011 8:00:00 AM 0.869
    22-ene-2011 8:10:00 AM -1 22-ene-2011 8:10:00 AM 0.882
    22-ene-2011 8:30:00 AM -1 22-ene-2011 8:30:00 AM 0.869
    22-ene-2011 8:40:00 AM -1 22-ene-2011 8:40:00 AM 0.882
    22-ene-2011 9:00:00 AM -1 22-ene-2011 9:00:00 AM 0.882
    22-ene-2011 9:10:00 AM -1 22-ene-2011 9:10:00 AM 0.882
    22-ene-2011 9:30:00 AM -1 22-ene-2011 9:30:00 AM 0.882
    22-ene-2011 9:40:00 AM -1 22-ene-2011 9:40:00 AM 0.882
    22-ene-2011 10:00:00 AM -0.5 22-ene-2011 10:00:00 AM 0.883
    22-ene-2011 10:10:00 AM -0.5 22-ene-2011 10:10:00 AM 0.883
    22-ene-2011 10:30:00 AM -0.5 22-ene-2011 10:30:00 AM 0.883
    22-ene-2011 10:40:00 AM -0.5 22-ene-2011 10:40:00 AM 0.883
    22-ene-2011 11:00:00 AM -0.5 22-ene-2011 11:00:00 AM 0.883
    22-ene-2011 11:10:00 AM 0 22-ene-2011 11:10:00 AM 0.89
    22-ene-2011 11:30:00 AM 0 22-ene-2011 11:30:00 AM 0.89
    22-ene-2011 11:40:00 AM 0 22-ene-2011 11:40:00 AM 0.89
    22-ene-2011 12:00:00 PM 0.6 22-ene-2011 12:00:00 PM 0.884
    22-ene-2011 12:10:00 PM 0.6 22-ene-2011 12:10:00 PM 0.884
    22-ene-2011 12:30:00 PM 1.1 22-ene-2011 12:30:00 PM 0.884
    22-ene-2011 12:40:00 PM 1.1 22-ene-2011 12:40:00 PM 0.884
    22-ene-2011 1:00:00 PM 1.7 22-ene-2011 1:00:00 PM 0.872
    22-ene-2011 1:10:00 PM 1.7 22-ene-2011 1:10:00 PM 0.872
    22-ene-2011 1:30:00 PM 1.7 22-ene-2011 1:30:00 PM 0.872
    22-ene-2011 1:40:00 PM 1.7 22-ene-2011 1:40:00 PM 0.865
    22-ene-2011 2:00:00 PM 2.2 22-ene-2011 2:00:00 PM 0.86
    22-ene-2011 2:10:00 PM 2.2 22-ene-2011 2:10:00 PM 0.86
    22-ene-2011 2:30:00 PM 2.2 22-ene-2011 2:30:00 PM 0.854
    22-ene-2011 2:40:00 PM 2.2 22-ene-2011 2:40:00 PM 0.86
    22-ene-2011 3:00:00 PM 2.8 22-ene-2011 3:00:00 PM 0.86
    22-ene-2011 3:10:00 PM 2.8 22-ene-2011 3:10:00 PM 0.848
    22-ene-2011 3:30:00 PM 2.8 22-ene-2011 3:30:00 PM 0.848
    22-ene-2011 3:40:00 PM 2.8 22-ene-2011 3:40:00 PM 0.848
    22-ene-2011 4:00:00 PM 3.3 22-ene-2011 4:00:00 PM 0.855
    22-ene-2011 4:10:00 PM 3.3 22-ene-2011 4:10:00 PM 0.855
    22-ene-2011 4:30:00 PM 3.3 22-ene-2011 4:30:00 PM 0.855
    22-ene-2011 4:40:00 PM 2.8 22-ene-2011 4:40:00 PM 0.848
    22-ene-2011 5:00:00 PM 2.8 22-ene-2011 5:00:00 PM 0.848
    22-ene-2011 5:30:00 PM 3.3 22-ene-2011 5:30:00 PM 0.861
    22-ene-2011 5:40:00 PM 3.3 22-ene-2011 5:40:00 PM 0.861
    22-ene-2011 6:00:00 PM 3.3 22-ene-2011 6:00:00 PM 0.861
    22-ene-2011 6:10:00 PM 3.3 22-ene-2011 6:10:00 PM 0.873
    22-ene-2011 6:30:00 PM 3.9 22-ene-2011 6:30:00 PM 0.868
    22-ene-2011 6:40:00 PM 4.4 22-ene-2011 6:40:00 PM 0.881
    22-ene-2011 7:00:00 PM 5 22-ene-2011 7:00:00 PM 0.888
    22-ene-2011 7:10:00 PM 5.6 22-ene-2011 7:10:00 PM 0.876
    22-ene-2011 7:30:00 PM 5.6 22-ene-2011 7:30:00 PM 0.869
    22-ene-2011 8:00:00 PM 5.6 22-ene-2011 8:00:00 PM 0.869
    22-ene-2011 8:10:00 PM 5.6 22-ene-2011 8:10:00 PM 0.857
    22-ene-2011 8:30:00 PM 5.6 22-ene-2011 8:30:00 PM 0.845
    22-ene-2011 8:40:00 PM 5.6 22-ene-2011 8:40:00 PM 0.839
    22-ene-2011 9:00:00 PM 5.6 22-ene-2011 9:00:00 PM 0.839
    22-ene-2011 9:10:00 PM 5.6 22-ene-2011 9:10:00 PM 0.839
    22-ene-2011 9:30:00 PM 5 22-ene-2011 9:30:00 PM 0.833
    22-ene-2011 9:40:00 PM 4.4 22-ene-2011 9:40:00 PM 0.82
    22-ene-2011 10:00:00 PM 4.4 22-ene-2011 10:00:00 PM 0.832
    22-ene-2011 10:10:00 PM 4.4 22-ene-2011 10:10:00 PM 0.85
    22-ene-2011 10:30:00 PM 5 22-ene-2011 10:30:00 PM 0.851
    22-ene-2011 10:40:00 PM 4.4 22-ene-2011 10:40:00 PM 0.85
    22-ene-2011 11:00:00 PM 4.4 22-ene-2011 11:00:00 PM 0.844
    22-ene-2011 11:10:00 PM 4.4 22-ene-2011 11:10:00 PM 0.844
    22-ene-2011 11:30:00 PM 3.9 22-ene-2011 11:30:00 PM 0.837
    22-ene-2011 11:40:00 PM 3.9 22-ene-2011 11:40:00 PM 0.837
    23-ene-2011 12:10:00 AM 3.9 23-ene-2011 12:10:00 AM 0.849
    23-ene-2011 12:30:00 AM 3.3 23-ene-2011 12:30:00 AM 0.843
    23-ene-2011 12:40:00 AM 3.3 23-ene-2011 12:40:00 AM 0.843
    23-ene-2011 1:00:00 AM 3.3 23-ene-2011 1:00:00 AM 0.843
    23-ene-2011 1:10:00 AM 3.3 23-ene-2011 1:10:00 AM 0.843
    23-ene-2011 1:30:00 AM 3.3 23-ene-2011 1:30:00 AM 0.843
    23-ene-2011 1:40:00 AM 3.3 23-ene-2011 1:40:00 AM 0.843
    23-ene-2011 2:00:00 AM 3.3 23-ene-2011 2:00:00 AM 0.83
    23-ene-2011 2:10:00 AM 3.3 23-ene-2011 2:10:00 AM 0.824
    23-ene-2011 2:30:00 AM 3.3 23-ene-2011 2:30:00 AM 0.813
    23-ene-2011 2:40:00 AM 3.3 23-ene-2011 2:40:00 AM 0.813
    23-ene-2011 3:00:00 AM 3.3 23-ene-2011 3:00:00 AM 0.813
    23-ene-2011 3:10:00 AM 3.3 23-ene-2011 3:10:00 AM 0.813
    23-ene-2011 3:30:00 AM 3.3 23-ene-2011 3:30:00 AM 0.801
    23-ene-2011 3:40:00 AM 3.3 23-ene-2011 3:40:00 AM 0.801
    23-ene-2011 4:00:00 AM 3.3 23-ene-2011 4:00:00 AM 0.813
    23-ene-2011 4:10:00 AM 2.8 23-ene-2011 4:10:00 AM 0.812
    23-ene-2011 4:30:00 AM 2.2 23-ene-2011 4:30:00 AM 0.829
    23-ene-2011 4:40:00 AM 2.2 23-ene-2011 4:40:00 AM 0.829
    23-ene-2011 5:00:00 AM 2.2 23-ene-2011 5:00:00 AM 0.835
    23-ene-2011 5:10:00 AM 2.2 23-ene-2011 5:10:00 AM 0.847
    23-ene-2011 5:30:00 AM 2.8 23-ene-2011 5:30:00 AM 0.836
    23-ene-2011 5:40:00 AM 2.8 23-ene-2011 5:40:00 AM 0.836
    23-ene-2011 6:00:00 AM 2.8 23-ene-2011 6:00:00 AM 0.848
    23-ene-2011 6:10:00 AM 3.3 23-ene-2011 6:10:00 AM 0.861
    23-ene-2011 6:30:00 AM 3.9 23-ene-2011 6:30:00 AM 0.849
    23-ene-2011 6:40:00 AM 3.9 23-ene-2011 6:40:00 AM 0.837
    23-ene-2011 7:00:00 AM 3.9 23-ene-2011 7:00:00 AM 0.831
    23-ene-2011 7:10:00 AM 3.9 23-ene-2011 7:10:00 AM 0.831
    23-ene-2011 7:30:00 AM 5 23-ene-2011 7:30:00 AM 0.833
    23-ene-2011 7:40:00 AM 5 23-ene-2011 7:40:00 AM 0.821
    23-ene-2011 8:00:00 AM 5 23-ene-2011 8:00:00 AM 0.821
    23-ene-2011 8:10:00 AM 5.6 23-ene-2011 8:10:00 AM 0.816
    23-ene-2011 8:20:00 AM 5 23-ene-2011 8:20:00 AM 0.821
    23-ene-2011 9:00:00 AM 5 23-ene-2011 9:00:00 AM 0.821
    23-ene-2011 9:10:00 AM 5 23-ene-2011 9:10:00 AM 0.833
    23-ene-2011 9:30:00 AM 5.6 23-ene-2011 9:30:00 AM 0.828
    23-ene-2011 9:40:00 AM 5.6 23-ene-2011 9:40:00 AM 0.828
    23-ene-2011 10:00:00 AM 5.6 23-ene-2011 10:00:00 AM 0.828
    23-ene-2011 10:10:00 AM 5.6 23-ene-2011 10:10:00 AM 0.828
    23-ene-2011 10:30:00 AM 6.1 23-ene-2011 10:30:00 AM 0.828
    23-ene-2011 10:40:00 AM 6.1 23-ene-2011 10:40:00 AM 0.822
    23-ene-2011 11:00:00 AM 6.7 23-ene-2011 11:00:00 AM 0.817
    23-ene-2011 11:10:00 AM 6.7 23-ene-2011 11:10:00 AM 0.806
    23-ene-2011 11:30:00 AM 6.7 23-ene-2011 11:30:00 AM 0.789
    23-ene-2011 11:40:00 AM 7.2 23-ene-2011 11:40:00 AM 0.773
    23-ene-2011 12:00:00 PM 7.2 23-ene-2011 12:00:00 PM 0.752
    23-ene-2011 12:10:00 PM 7.2 23-ene-2011 12:10:00 PM 0.741
    23-ene-2011 12:30:00 PM 7.2 23-ene-2011 12:30:00 PM 0.731
    23-ene-2011 12:40:00 PM 7.2 23-ene-2011 12:40:00 PM 0.72
    23-ene-2011 1:00:00 PM 7.2 23-ene-2011 1:00:00 PM 0.71
    23-ene-2011 1:10:00 PM 7.8 23-ene-2011 1:10:00 PM 0.701
    23-ene-2011 1:30:00 PM 7.8 23-ene-2011 1:30:00 PM 0.687
    23-ene-2011 1:40:00 PM 7.8 23-ene-2011 1:40:00 PM 0.667
    23-ene-2011 2:00:00 PM 7.8 23-ene-2011 2:00:00 PM 0.667
    23-ene-2011 2:10:00 PM 7.8 23-ene-2011 2:10:00 PM 0.667
    23-ene-2011 2:30:00 PM 7.8 23-ene-2011 2:30:00 PM 0.648
    23-ene-2011 2:40:00 PM 7.8 23-ene-2011 2:40:00 PM 0.658
    23-ene-2011 3:00:00 PM 7.8 23-ene-2011 3:00:00 PM 0.658
    23-ene-2011 3:10:00 PM 7.8 23-ene-2011 3:10:00 PM 0.658
    23-ene-2011 3:30:00 PM 7.2 23-ene-2011 3:30:00 PM 0.671
    23-ene-2011 3:40:00 PM 7.2 23-ene-2011 3:40:00 PM 0.68
    23-ene-2011 4:00:00 PM 7.2 23-ene-2011 4:00:00 PM 0.68
    23-ene-2011 4:10:00 PM 7.2 23-ene-2011 4:10:00 PM 0.69
    23-ene-2011 4:30:00 PM 7.2 23-ene-2011 4:30:00 PM 0.7
    23-ene-2011 4:40:00 PM 6.7 23-ene-2011 4:40:00 PM 0.699
    23-ene-2011 5:00:00 PM 6.7 23-ene-2011 5:00:00 PM 0.709
    23-ene-2011 5:10:00 PM 6.7 23-ene-2011 5:10:00 PM 0.709
    23-ene-2011 5:30:00 PM 6.7 23-ene-2011 5:30:00 PM 0.709
    23-ene-2011 5:40:00 PM 6.7 23-ene-2011 5:40:00 PM 0.719
    23-ene-2011 6:00:00 PM 6.7 23-ene-2011 6:00:00 PM 0.73
    23-ene-2011 6:10:00 PM 6.1 23-ene-2011 6:10:00 PM 0.729
    23-ene-2011 6:30:00 PM 6.1 23-ene-2011 6:30:00 PM 0.739
    23-ene-2011 6:40:00 PM 6.1 23-ene-2011 6:40:00 PM 0.75
    23-ene-2011 7:00:00 PM 5.6 23-ene-2011 7:00:00 PM 0.76
    23-ene-2011 7:10:00 PM 5.6 23-ene-2011 7:10:00 PM 0.76
    23-ene-2011 7:30:00 PM 5.6 23-ene-2011 7:30:00 PM 0.765
    23-ene-2011 7:40:00 PM 5 23-ene-2011 7:40:00 PM 0.77
    23-ene-2011 8:00:00 PM 5.6 23-ene-2011 8:00:00 PM 0.776
    23-ene-2011 8:10:00 PM 5 23-ene-2011 8:10:00 PM 0.781
    23-ene-2011 8:30:00 PM 5.6 23-ene-2011 8:30:00 PM 0.787
    23-ene-2011 8:40:00 PM 5.6 23-ene-2011 8:40:00 PM 0.787
    23-ene-2011 9:00:00 PM 6.1 23-ene-2011 9:00:00 PM 0.783
    23-ene-2011 9:10:00 PM 6.1 23-ene-2011 9:10:00 PM 0.783
    23-ene-2011 9:30:00 PM 5.6 23-ene-2011 9:30:00 PM 0.776
    23-ene-2011 9:40:00 PM 5.6 23-ene-2011 9:40:00 PM 0.776
    23-ene-2011 10:00:00 PM 5.6 23-ene-2011 10:00:00 PM 0.787
    23-ene-2011 10:10:00 PM 5.6 23-ene-2011 10:10:00 PM 0.787
    23-ene-2011 10:30:00 PM 5.6 23-ene-2011 10:30:00 PM 0.787
    23-ene-2011 10:40:00 PM 5.6 23-ene-2011 10:40:00 PM 0.787
    23-ene-2011 11:00:00 PM 5.6 23-ene-2011 11:00:00 PM 0.787
    23-ene-2011 11:10:00 PM 5.6 23-ene-2011 11:10:00 PM 0.787
    23-ene-2011 11:30:00 PM 5.6 23-ene-2011 11:30:00 PM 0.787
    23-ene-2011 11:40:00 PM 5.6 23-ene-2011 11:40:00 PM 0.787
    24-ene-2011 12:10:00 AM 5.6 24-ene-2011 12:10:00 AM 0.787
    24-ene-2011 12:30:00 AM 5.6 24-ene-2011 12:30:00 AM 0.787
    24-ene-2011 12:40:00 AM 5.6 24-ene-2011 12:40:00 AM 0.787
    24-ene-2011 1:00:00 AM 5.6 24-ene-2011 1:00:00 AM 0.776
    24-ene-2011 1:10:00 AM 5.6 24-ene-2011 1:10:00 AM 0.776
    24-ene-2011 1:30:00 AM 5.6 24-ene-2011 1:30:00 AM 0.776
    24-ene-2011 1:40:00 AM 5.6 24-ene-2011 1:40:00 AM 0.776
    24-ene-2011 2:00:00 AM 5.6 24-ene-2011 2:00:00 AM 0.765
    24-ene-2011 2:10:00 AM 5.6 24-ene-2011 2:10:00 AM 0.765
    24-ene-2011 2:30:00 AM 5.6 24-ene-2011 2:30:00 AM 0.765
    24-ene-2011 2:40:00 AM 5.6 24-ene-2011 2:40:00 AM 0.765
    24-ene-2011 3:00:00 AM 5.6 24-ene-2011 3:00:00 AM 0.76
    24-ene-2011 3:10:00 AM 5.6 24-ene-2011 3:10:00 AM 0.749
    24-ene-2011 3:30:00 AM 5.6 24-ene-2011 3:30:00 AM 0.749
    24-ene-2011 3:40:00 AM 5.6 24-ene-2011 3:40:00 AM 0.749
    24-ene-2011 4:00:00 AM 5 24-ene-2011 4:00:00 AM 0.759
    24-ene-2011 4:10:00 AM 5 24-ene-2011 4:10:00 AM 0.759
    24-ene-2011 4:30:00 AM 5 24-ene-2011 4:30:00 AM 0.759
    24-ene-2011 4:40:00 AM 5.6 24-ene-2011 4:40:00 AM 0.76
    24-ene-2011 5:00:00 AM 5.6 24-ene-2011 5:00:00 AM 0.749
    24-ene-2011 5:10:00 AM 5.6 24-ene-2011 5:10:00 AM 0.749
    24-ene-2011 5:30:00 AM 5 24-ene-2011 5:30:00 AM 0.759
    24-ene-2011 5:40:00 AM 5 24-ene-2011 5:40:00 AM 0.759
    24-ene-2011 6:00:00 AM 5 24-ene-2011 6:00:00 AM 0.759
    24-ene-2011 6:10:00 AM 5 24-ene-2011 6:10:00 AM 0.759
    24-ene-2011 6:30:00 AM 5 24-ene-2011 6:30:00 AM 0.748
    24-ene-2011 6:40:00 AM 5 24-ene-2011 6:40:00 AM 0.748
    24-ene-2011 7:00:00 AM 5 24-ene-2011 7:00:00 AM 0.759
    24-ene-2011 7:10:00 AM 4.4 24-ene-2011 7:10:00 AM 0.763
    24-ene-2011 7:30:00 AM 4.4 24-ene-2011 7:30:00 AM 0.774
    24-ene-2011 7:40:00 AM 4.4 24-ene-2011 7:40:00 AM 0.774
    24-ene-2011 8:00:00 AM 4.4 24-ene-2011 8:00:00 AM 0.78
    24-ene-2011 8:10:00 AM 5 24-ene-2011 8:10:00 AM 0.781
    24-ene-2011 8:30:00 AM 5 24-ene-2011 8:30:00 AM 0.781
    24-ene-2011 8:40:00 AM 5 24-ene-2011 8:40:00 AM 0.781
    24-ene-2011 9:00:00 AM 5 24-ene-2011 9:00:00 AM 0.792
    24-ene-2011 9:10:00 AM 5 24-ene-2011 9:10:00 AM 0.798
    24-ene-2011 9:30:00 AM 5 24-ene-2011 9:30:00 AM 0.809
    24-ene-2011 9:40:00 AM 5 24-ene-2011 9:40:00 AM 0.809
    24-ene-2011 10:00:00 AM 5.6 24-ene-2011 10:00:00 AM 0.816
    24-ene-2011 10:10:00 AM 5.6 24-ene-2011 10:10:00 AM 0.816
    24-ene-2011 10:30:00 AM 6.1 24-ene-2011 10:30:00 AM 0.828
    24-ene-2011 10:40:00 AM 6.1 24-ene-2011 10:40:00 AM 0.822
    24-ene-2011 11:00:00 AM 6.1 24-ene-2011 11:00:00 AM 0.828
    24-ene-2011 11:10:00 AM 6.1 24-ene-2011 11:10:00 AM 0.828
    24-ene-2011 11:30:00 AM 6.1 24-ene-2011 11:30:00 AM 0.828
    24-ene-2011 11:40:00 AM 6.1 24-ene-2011 11:40:00 AM 0.828
    24-ene-2011 12:00:00 PM 6.7 24-ene-2011 12:00:00 PM 0.829
    24-ene-2011 12:30:00 PM 6.7 24-ene-2011 12:30:00 PM 0.817
    24-ene-2011 12:40:00 PM 6.1 24-ene-2011 12:40:00 PM 0.822
    24-ene-2011 1:00:00 PM 6.7 24-ene-2011 1:00:00 PM 0.817
    24-ene-2011 1:10:00 PM 6.7 24-ene-2011 1:10:00 PM 0.829
    24-ene-2011 1:30:00 PM 6.7 24-ene-2011 1:30:00 PM 0.817
    24-ene-2011 1:40:00 PM 6.7 24-ene-2011 1:40:00 PM 0.817
    24-ene-2011 2:00:00 PM 6.7 24-ene-2011 2:00:00 PM 0.817
    24-ene-2011 2:10:00 PM 6.7 24-ene-2011 2:10:00 PM 0.806
    24-ene-2011 2:30:00 PM 6.7 24-ene-2011 2:30:00 PM 0.806
    24-ene-2011 2:40:00 PM 6.7 24-ene-2011 2:40:00 PM 0.806
    24-ene-2011 3:00:00 PM 6.7 24-ene-2011 3:00:00 PM 0.806
    24-ene-2011 3:10:00 PM 6.7 24-ene-2011 3:10:00 PM 0.806
    24-ene-2011 3:30:00 PM 6.7 24-ene-2011 3:30:00 PM 0.8
    24-ene-2011 3:40:00 PM 6.7 24-ene-2011 3:40:00 PM 0.806
    24-ene-2011 4:00:00 PM 6.7 24-ene-2011 4:00:00 PM 0.806
    24-ene-2011 4:10:00 PM 6.7 24-ene-2011 4:10:00 PM 0.806
    24-ene-2011 4:30:00 PM 6.7 24-ene-2011 4:30:00 PM 0.817
    24-ene-2011 4:40:00 PM 6.7 24-ene-2011 4:40:00 PM 0.817
    24-ene-2011 5:00:00 PM 6.7 24-ene-2011 5:00:00 PM 0.829
    24-ene-2011 5:10:00 PM 6.7 24-ene-2011 5:10:00 PM 0.817
    24-ene-2011 5:30:00 PM 6.7 24-ene-2011 5:30:00 PM 0.829
    24-ene-2011 5:40:00 PM 6.1 24-ene-2011 5:40:00 PM 0.828
    24-ene-2011 6:00:00 PM 6.1 24-ene-2011 6:00:00 PM 0.84
    24-ene-2011 6:10:00 PM 6.1 24-ene-2011 6:10:00 PM 0.852
    24-ene-2011 6:30:00 PM 6.1 24-ene-2011 6:30:00 PM 0.852
    24-ene-2011 6:40:00 PM 6.1 24-ene-2011 6:40:00 PM 0.852
    24-ene-2011 7:00:00 PM 6.1 24-ene-2011 7:00:00 PM 0.858
    24-ene-2011 7:10:00 PM 6.1 24-ene-2011 7:10:00 PM 0.858
    24-ene-2011 7:30:00 PM 6.1 24-ene-2011 7:30:00 PM 0.858
    24-ene-2011 7:40:00 PM 6.1 24-ene-2011 7:40:00 PM 0.858
    24-ene-2011 8:00:00 PM 6.1 24-ene-2011 8:00:00 PM 0.858
    24-ene-2011 8:10:00 PM 6.1 24-ene-2011 8:10:00 PM 0.87
    24-ene-2011 8:30:00 PM 6.1 24-ene-2011 8:30:00 PM 0.87
    24-ene-2011 8:40:00 PM 6.1 24-ene-2011 8:40:00 PM 0.858
    24-ene-2011 9:00:00 PM 6.1 24-ene-2011 9:00:00 PM 0.87
    24-ene-2011 9:10:00 PM 6.1 24-ene-2011 9:10:00 PM 0.87
    24-ene-2011 9:30:00 PM 6.1 24-ene-2011 9:30:00 PM 0.87
    24-ene-2011 9:40:00 PM 6.7 24-ene-2011 9:40:00 PM 0.871
    24-ene-2011 10:00:00 PM 6.7 24-ene-2011 10:00:00 PM 0.859
    24-ene-2011 10:10:00 PM 6.7 24-ene-2011 10:10:00 PM 0.859
    24-ene-2011 10:30:00 PM 6.7 24-ene-2011 10:30:00 PM 0.871
    24-ene-2011 10:40:00 PM 6.7 24-ene-2011 10:40:00 PM 0.859
    24-ene-2011 11:00:00 PM 6.7 24-ene-2011 11:00:00 PM 0.859
    24-ene-2011 11:10:00 PM 6.7 24-ene-2011 11:10:00 PM 0.871
    24-ene-2011 11:30:00 PM 6.7 24-ene-2011 11:30:00 PM 0.877
    24-ene-2011 11:40:00 PM 6.7 24-ene-2011 11:40:00 PM 0.877
    25-ene-2011 12:10:00 AM 7.2 25-ene-2011 12:10:00 AM 0.889
    25-ene-2011 12:30:00 AM 7.2 25-ene-2011 12:30:00 AM 0.889
    25-ene-2011 12:40:00 AM 7.2 25-ene-2011 12:40:00 AM 0.889
    25-ene-2011 1:00:00 AM 7.2 25-ene-2011 1:00:00 AM 0.902
    25-ene-2011 1:10:00 AM 7.2 25-ene-2011 1:10:00 AM 0.902
    25-ene-2011 1:30:00 AM 7.2 25-ene-2011 1:30:00 AM 0.908
    25-ene-2011 1:40:00 AM 7.2 25-ene-2011 1:40:00 AM 0.908
    25-ene-2011 2:00:00 AM 7.2 25-ene-2011 2:00:00 AM 0.921
    25-ene-2011 2:10:00 AM 7.2 25-ene-2011 2:10:00 AM 0.921
    25-ene-2011 2:30:00 AM 7.2 25-ene-2011 2:30:00 AM 0.921
    25-ene-2011 2:40:00 AM 7.2 25-ene-2011 2:40:00 AM 0.921
    25-ene-2011 3:00:00 AM 7.2 25-ene-2011 3:00:00 AM 0.934
    25-ene-2011 3:10:00 AM 7.2 25-ene-2011 3:10:00 AM 0.934
    25-ene-2011 3:30:00 AM 7.2 25-ene-2011 3:30:00 AM 0.934
    25-ene-2011 3:40:00 AM 7.2 25-ene-2011 3:40:00 AM 0.934
    25-ene-2011 4:00:00 AM 7.2 25-ene-2011 4:00:00 AM 0.934
    25-ene-2011 4:10:00 AM 7.2 25-ene-2011 4:10:00 AM 0.94
    25-ene-2011 4:30:00 AM 7.2 25-ene-2011 4:30:00 AM 0.934
    25-ene-2011 4:40:00 AM 7.2 25-ene-2011 4:40:00 AM 0.94
    25-ene-2011 5:00:00 AM 7.2 25-ene-2011 5:00:00 AM 0.94
    25-ene-2011 5:10:00 AM 7.2 25-ene-2011 5:10:00 AM 0.94
    25-ene-2011 5:30:00 AM 7.2 25-ene-2011 5:30:00 AM 0.94
    25-ene-2011 5:41:00 AM 7.2 25-ene-2011 5:41:00 AM 0.94
    25-ene-2011 6:00:00 AM 7.2 25-ene-2011 6:00:00 AM 0.953
    25-ene-2011 6:10:00 AM 7.2 25-ene-2011 6:10:00 AM 0.953
    25-ene-2011 6:30:00 AM 7.2 25-ene-2011 6:30:00 AM 0.953
    25-ene-2011 6:40:00 AM 7.2 25-ene-2011 6:40:00 AM 0.953
    25-ene-2011 7:00:00 AM 7.2 25-ene-2011 7:00:00 AM 0.953
    25-ene-2011 7:10:00 AM 7.2 25-ene-2011 7:10:00 AM 0.953
    25-ene-2011 7:30:00 AM 7.2 25-ene-2011 7:30:00 AM 0.953
    25-ene-2011 7:40:00 AM 7.2 25-ene-2011 7:40:00 AM 0.953
    25-ene-2011 8:00:00 AM 7.2 25-ene-2011 8:00:00 AM 0.953
    25-ene-2011 8:10:00 AM 7.2 25-ene-2011 8:10:00 AM 0.953
    25-ene-2011 8:30:00 AM 7.2 25-ene-2011 8:30:00 AM 0.96
    25-ene-2011 8:40:00 AM 7.2 25-ene-2011 8:40:00 AM 0.96
    25-ene-2011 9:00:00 AM 7.2 25-ene-2011 9:00:00 AM 0.96
    25-ene-2011 9:10:00 AM 7.2 25-ene-2011 9:10:00 AM 0.96
    25-ene-2011 9:30:00 AM 7.8 25-ene-2011 9:30:00 AM 0.96
    25-ene-2011 9:40:00 AM 7.8 25-ene-2011 9:40:00 AM 0.966
    25-ene-2011 10:00:00 AM 7.8 25-ene-2011 10:00:00 AM 0.966
    25-ene-2011 10:10:00 AM 7.8 25-ene-2011 10:10:00 AM 0.966
    25-ene-2011 10:30:00 AM 7.8 25-ene-2011 10:30:00 AM 0.966
    25-ene-2011 10:40:00 AM 7.8 25-ene-2011 10:40:00 AM 0.966
    25-ene-2011 11:00:00 AM 7.8 25-ene-2011 11:00:00 AM 0.966
    25-ene-2011 11:10:00 AM 7.8 25-ene-2011 11:10:00 AM 0.966
    25-ene-2011 11:30:00 AM 7.8 25-ene-2011 11:30:00 AM 0.966
    25-ene-2011 11:40:00 AM 7.8 25-ene-2011 11:40:00 AM 0.966
    25-ene-2011 12:00:00 PM 8.3 25-ene-2011 12:00:00 PM 0.98
    25-ene-2011 12:10:00 PM 8.3 25-ene-2011 12:10:00 PM 0.973
    25-ene-2011 12:30:00 PM 8.3 25-ene-2011 12:30:00 PM 0.98
    25-ene-2011 12:40:00 PM 8.3 25-ene-2011 12:40:00 PM 0.98
    25-ene-2011 1:00:00 PM 8.3 25-ene-2011 1:00:00 PM 0.98
    25-ene-2011 1:10:00 PM 8.3 25-ene-2011 1:10:00 PM 0.98
    25-ene-2011 1:30:00 PM 8.3 25-ene-2011 1:30:00 PM 0.98
    25-ene-2011 1:40:00 PM 8.3 25-ene-2011 1:40:00 PM 0.98
    25-ene-2011 2:00:00 PM 8.3 25-ene-2011 2:00:00 PM 0.98
    25-ene-2011 2:10:00 PM 8.3 25-ene-2011 2:10:00 PM 0.98
    25-ene-2011 2:30:00 PM 8.3 25-ene-2011 2:30:00 PM 0.98
    25-ene-2011 2:40:00 PM 8.3 25-ene-2011 2:40:00 PM 0.98
    25-ene-2011 3:00:00 PM 8.3 25-ene-2011 3:00:00 PM 0.98
    25-ene-2011 3:10:00 PM 8.3 25-ene-2011 3:10:00 PM 0.973
    25-ene-2011 3:30:00 PM 7.8 25-ene-2011 3:30:00 PM 0.966
    25-ene-2011 3:40:00 PM 7.8 25-ene-2011 3:40:00 PM 0.966
    25-ene-2011 4:00:00 PM 7.2 25-ene-2011 4:00:00 PM 0.96
    25-ene-2011 4:10:00 PM 7.2 25-ene-2011 4:10:00 PM 0.96
    25-ene-2011 4:30:00 PM 7.2 25-ene-2011 4:30:00 PM 0.96
    25-ene-2011 4:40:00 PM 7.2 25-ene-2011 4:40:00 PM 0.96
    25-ene-2011 5:00:00 PM 7.2 25-ene-2011 5:00:00 PM 0.96
    25-ene-2011 5:10:00 PM 7.2 25-ene-2011 5:10:00 PM 0.96
    25-ene-2011 5:30:00 PM 7.2 25-ene-2011 5:30:00 PM 0.96
    25-ene-2011 5:40:00 PM 7.2 25-ene-2011 5:40:00 PM 0.96
    25-ene-2011 6:00:00 PM 7.2 25-ene-2011 6:00:00 PM 0.96
    25-ene-2011 6:10:00 PM 7.2 25-ene-2011 6:10:00 PM 0.953
    25-ene-2011 6:30:00 PM 6.7 25-ene-2011 6:30:00 PM 0.946
    25-ene-2011 6:40:00 PM 6.7 25-ene-2011 6:40:00 PM 0.946
    25-ene-2011 7:00:00 PM 6.7 25-ene-2011 7:00:00 PM 0.946
    25-ene-2011 7:10:00 PM 6.7 25-ene-2011 7:10:00 PM 0.946
    25-ene-2011 7:30:00 PM 6.7 25-ene-2011 7:30:00 PM 0.94
    25-ene-2011 7:40:00 PM 6.7 25-ene-2011 7:40:00 PM 0.94
    25-ene-2011 8:00:00 PM 6.7 25-ene-2011 8:00:00 PM 0.94
    25-ene-2011 8:10:00 PM 6.7 25-ene-2011 8:10:00 PM 0.94
    25-ene-2011 8:30:00 PM 6.7 25-ene-2011 8:30:00 PM 0.94
    25-ene-2011 8:40:00 PM 6.7 25-ene-2011 8:40:00 PM 0.94
    25-ene-2011 9:00:00 PM 6.7 25-ene-2011 9:00:00 PM 0.94
    25-ene-2011 9:10:00 PM 6.7 25-ene-2011 9:10:00 PM 0.94
    25-ene-2011 9:30:00 PM 6.7 25-ene-2011 9:30:00 PM 0.94
    25-ene-2011 9:40:00 PM 6.7 25-ene-2011 9:40:00 PM 0.94
    25-ene-2011 10:00:00 PM 6.7 25-ene-2011 10:00:00 PM 0.94
    25-ene-2011 10:10:00 PM 6.7 25-ene-2011 10:10:00 PM 0.94
    25-ene-2011 10:30:00 PM 6.7 25-ene-2011 10:30:00 PM 0.94
    25-ene-2011 10:40:00 PM 6.7 25-ene-2011 10:40:00 PM 0.94
    25-ene-2011 11:00:00 PM 6.7 25-ene-2011 11:00:00 PM 0.94
    25-ene-2011 11:10:00 PM 6.7 25-ene-2011 11:10:00 PM 0.94
    25-ene-2011 11:30:00 PM 6.7 25-ene-2011 11:30:00 PM 0.94
    25-ene-2011 11:40:00 PM 6.7 25-ene-2011 11:40:00 PM 0.94
    26-ene-2011 12:10:00 AM 6.1 26-ene-2011 12:10:00 AM 0.94
    26-ene-2011 12:30:00 AM 6.1 26-ene-2011 12:30:00 AM 0.94
    26-ene-2011 12:40:00 AM 6.1 26-ene-2011 12:40:00 AM 0.94
    26-ene-2011 1:00:00 AM 6.1 26-ene-2011 1:00:00 AM 0.94
    26-ene-2011 1:10:00 AM 6.1 26-ene-2011 1:10:00 AM 0.94
    26-ene-2011 1:30:00 AM 6.1 26-ene-2011 1:30:00 AM 0.94
    26-ene-2011 1:40:00 AM 6.1 26-ene-2011 1:40:00 AM 0.94
    26-ene-2011 2:00:00 AM 6.1 26-ene-2011 2:00:00 AM 0.94
    26-ene-2011 2:10:00 AM 6.1 26-ene-2011 2:10:00 AM 0.94
    26-ene-2011 2:30:00 AM 6.1 26-ene-2011 2:30:00 AM 0.94
    26-ene-2011 2:40:00 AM 6.1 26-ene-2011 2:40:00 AM 0.94
    26-ene-2011 3:00:00 AM 6.1 26-ene-2011 3:00:00 AM 0.94
    26-ene-2011 3:10:00 AM 6.1 26-ene-2011 3:10:00 AM 0.94
    26-ene-2011 3:30:00 AM 5.6 26-ene-2011 3:30:00 AM 0.926
    26-ene-2011 3:40:00 AM 5.6 26-ene-2011 3:40:00 AM 0.926
    26-ene-2011 4:00:00 AM 5.6 26-ene-2011 4:00:00 AM 0.92
    26-ene-2011 4:30:00 AM 5.6 26-ene-2011 4:30:00 AM 0.888
    26-ene-2011 4:40:00 AM 5.6 26-ene-2011 4:40:00 AM 0.888
    26-ene-2011 5:00:00 AM 5.6 26-ene-2011 5:00:00 AM 0.839
    26-ene-2011 5:10:00 AM 5.6 26-ene-2011 5:10:00 AM 0.828
    26-ene-2011 5:30:00 AM 5.6 26-ene-2011 5:30:00 AM 0.816
    26-ene-2011 5:40:00 AM 5.6 26-ene-2011 5:40:00 AM 0.81
    26-ene-2011 6:00:00 AM 5.6 26-ene-2011 6:00:00 AM 0.799
    26-ene-2011 6:10:00 AM 5 26-ene-2011 6:10:00 AM 0.781
    26-ene-2011 6:30:00 AM 5 26-ene-2011 6:30:00 AM 0.748
    26-ene-2011 6:40:00 AM 5 26-ene-2011 6:40:00 AM 0.742
    26-ene-2011 7:00:00 AM 5 26-ene-2011 7:00:00 AM 0.732
    26-ene-2011 7:10:00 AM 4.4 26-ene-2011 7:10:00 AM 0.731
    26-ene-2011 7:30:00 AM 4.4 26-ene-2011 7:30:00 AM 0.741
    26-ene-2011 7:40:00 AM 4.4 26-ene-2011 7:40:00 AM 0.741
    26-ene-2011 8:00:00 AM 3.9 26-ene-2011 8:00:00 AM 0.746
    26-ene-2011 8:10:00 AM 3.9 26-ene-2011 8:10:00 AM 0.746
    26-ene-2011 8:30:00 AM 3.9 26-ene-2011 8:30:00 AM 0.746
    26-ene-2011 8:40:00 AM 3.9 26-ene-2011 8:40:00 AM 0.746
    26-ene-2011 9:00:00 AM 3.9 26-ene-2011 9:00:00 AM 0.757
    26-ene-2011 9:10:00 AM 3.9 26-ene-2011 9:10:00 AM 0.746
    26-ene-2011 9:30:00 AM 3.9 26-ene-2011 9:30:00 AM 0.746
    26-ene-2011 9:40:00 AM 4.4 26-ene-2011 9:40:00 AM 0.731
    26-ene-2011 10:00:00 AM 4.4 26-ene-2011 10:00:00 AM 0.731
    26-ene-2011 10:10:00 AM 5 26-ene-2011 10:10:00 AM 0.721
    26-ene-2011 10:30:00 AM 5 26-ene-2011 10:30:00 AM 0.711
    26-ene-2011 10:40:00 AM 5 26-ene-2011 10:40:00 AM 0.711
    26-ene-2011 11:00:00 AM 5.6 26-ene-2011 11:00:00 AM 0.707
    26-ene-2011 11:30:00 AM 5.6 26-ene-2011 11:30:00 AM 0.697
    26-ene-2011 11:40:00 AM 5.6 26-ene-2011 11:40:00 AM 0.707
    26-ene-2011 12:00:00 PM 6.1 26-ene-2011 12:00:00 PM 0.718
    26-ene-2011 12:10:00 PM 6.1 26-ene-2011 12:10:00 PM 0.729
    26-ene-2011 12:30:00 PM 5.6 26-ene-2011 12:30:00 PM 0.76
    26-ene-2011 12:40:00 PM 5.6 26-ene-2011 12:40:00 PM 0.76
    26-ene-2011 1:00:00 PM 5.6 26-ene-2011 1:00:00 PM 0.776
    26-ene-2011 1:10:00 PM 5.6 26-ene-2011 1:10:00 PM 0.776
    26-ene-2011 1:30:00 PM 6.1 26-ene-2011 1:30:00 PM 0.799
    26-ene-2011 1:40:00 PM 6.1 26-ene-2011 1:40:00 PM 0.811
    26-ene-2011 2:00:00 PM 6.1 26-ene-2011 2:00:00 PM 0.822
    26-ene-2011 2:10:00 PM 5.6 26-ene-2011 2:10:00 PM 0.828
    26-ene-2011 2:30:00 PM 5.6 26-ene-2011 2:30:00 PM 0.81
    26-ene-2011 2:40:00 PM 6.1 26-ene-2011 2:40:00 PM 0.788
    26-ene-2011 3:00:00 PM 5.6 26-ene-2011 3:00:00 PM 0.776
    26-ene-2011 3:10:00 PM 5.6 26-ene-2011 3:10:00 PM 0.765
    26-ene-2011 3:30:00 PM 5.6 26-ene-2011 3:30:00 PM 0.749
    26-ene-2011 3:40:00 PM 5.6 26-ene-2011 3:40:00 PM 0.76
    26-ene-2011 4:00:00 PM 5.6 26-ene-2011 4:00:00 PM 0.738
    26-ene-2011 4:10:00 PM 5 26-ene-2011 4:10:00 PM 0.742
    26-ene-2011 4:30:00 PM 5 26-ene-2011 4:30:00 PM 0.732
    26-ene-2011 4:40:00 PM 5 26-ene-2011 4:40:00 PM 0.732
    26-ene-2011 5:00:00 PM 4.4 26-ene-2011 5:00:00 PM 0.741
    26-ene-2011 5:10:00 PM 4.4 26-ene-2011 5:10:00 PM 0.752
    26-ene-2011 5:30:00 PM 4.4 26-ene-2011 5:30:00 PM 0.763
    26-ene-2011 5:40:00 PM 4.4 26-ene-2011 5:40:00 PM 0.763
    26-ene-2011 6:00:00 PM 4.4 26-ene-2011 6:00:00 PM 0.774
    26-ene-2011 6:10:00 PM 3.9 26-ene-2011 6:10:00 PM 0.768
    26-ene-2011 6:30:00 PM 4.4 26-ene-2011 6:30:00 PM 0.774
    26-ene-2011 6:40:00 PM 4.4 26-ene-2011 6:40:00 PM 0.78
    26-ene-2011 7:00:00 PM 4.4 26-ene-2011 7:00:00 PM 0.763
    26-ene-2011 7:10:00 PM 4.4 26-ene-2011 7:10:00 PM 0.763
    26-ene-2011 7:30:00 PM 4.4 26-ene-2011 7:30:00 PM 0.725
    26-ene-2011 7:40:00 PM 3.9 26-ene-2011 7:40:00 PM 0.714
    26-ene-2011 8:00:00 PM 3.9 26-ene-2011 8:00:00 PM 0.693
    26-ene-2011 8:10:00 PM 3.3 26-ene-2011 8:10:00 PM 0.687
    26-ene-2011 8:30:00 PM 3.3 26-ene-2011 8:30:00 PM 0.697
    26-ene-2011 8:40:00 PM 3.3 26-ene-2011 8:40:00 PM 0.677
    26-ene-2011 9:00:00 PM 3.3 26-ene-2011 9:00:00 PM 0.657
    26-ene-2011 9:10:00 PM 3.3 26-ene-2011 9:10:00 PM 0.647
    26-ene-2011 9:30:00 PM 3.3 26-ene-2011 9:30:00 PM 0.638
    26-ene-2011 9:40:00 PM 3.3 26-ene-2011 9:40:00 PM 0.624
    26-ene-2011 10:00:00 PM 2.8 26-ene-2011 10:00:00 PM 0.632
    26-ene-2011 10:10:00 PM 2.8 26-ene-2011 10:10:00 PM 0.632
    26-ene-2011 10:30:00 PM 3.3 26-ene-2011 10:30:00 PM 0.647
    26-ene-2011 10:40:00 PM 3.3 26-ene-2011 10:40:00 PM 0.647
    26-ene-2011 11:00:00 PM 2.8 26-ene-2011 11:00:00 PM 0.656
    26-ene-2011 11:10:00 PM 2.8 26-ene-2011 11:10:00 PM 0.666
    26-ene-2011 11:30:00 PM 2.8 26-ene-2011 11:30:00 PM 0.686
    26-ene-2011 11:40:00 PM 2.8 26-ene-2011 11:40:00 PM 0.686
    27-ene-2011 12:10:00 AM 3.3 27-ene-2011 12:10:00 AM 0.687
    27-ene-2011 12:30:00 AM 3.3 27-ene-2011 12:30:00 AM 0.687
    27-ene-2011 12:40:00 AM 2.8 27-ene-2011 12:40:00 AM 0.696
    27-ene-2011 1:00:00 AM 2.8 27-ene-2011 1:00:00 AM 0.696
    27-ene-2011 1:10:00 AM 2.8 27-ene-2011 1:10:00 AM 0.696
    27-ene-2011 1:30:00 AM 2.8 27-ene-2011 1:30:00 AM 0.686
    27-ene-2011 1:40:00 AM 2.8 27-ene-2011 1:40:00 AM 0.686
    27-ene-2011 2:00:00 AM 2.8 27-ene-2011 2:00:00 AM 0.686
    27-ene-2011 2:10:00 AM 2.8 27-ene-2011 2:10:00 AM 0.676
    27-ene-2011 2:30:00 AM 2.8 27-ene-2011 2:30:00 AM 0.676
    27-ene-2011 2:40:00 AM 2.8 27-ene-2011 2:40:00 AM 0.676
    27-ene-2011 3:00:00 AM 2.8 27-ene-2011 3:00:00 AM 0.686
    27-ene-2011 3:10:00 AM 2.2 27-ene-2011 3:10:00 AM 0.684
    27-ene-2011 3:30:00 AM 2.2 27-ene-2011 3:30:00 AM 0.684
    27-ene-2011 3:40:00 AM 2.2 27-ene-2011 3:40:00 AM 0.684
    27-ene-2011 4:00:00 AM 2.2 27-ene-2011 4:00:00 AM 0.684
    27-ene-2011 4:10:00 AM 2.2 27-ene-2011 4:10:00 AM 0.695
    27-ene-2011 4:30:00 AM 2.2 27-ene-2011 4:30:00 AM 0.695
    27-ene-2011 4:40:00 AM 2.2 27-ene-2011 4:40:00 AM 0.695
    27-ene-2011 5:00:00 AM 2.2 27-ene-2011 5:00:00 AM 0.695
    27-ene-2011 5:10:00 AM 2.2 27-ene-2011 5:10:00 AM 0.695
    27-ene-2011 5:30:00 AM 2.2 27-ene-2011 5:30:00 AM 0.705
    27-ene-2011 5:40:00 AM 2.2 27-ene-2011 5:40:00 AM 0.705
    27-ene-2011 6:00:00 AM 2.2 27-ene-2011 6:00:00 AM 0.705
    27-ene-2011 6:10:00 AM 2.2 27-ene-2011 6:10:00 AM 0.705
    27-ene-2011 6:30:00 AM 1.7 27-ene-2011 6:30:00 AM 0.704
    27-ene-2011 6:40:00 AM 1.7 27-ene-2011 6:40:00 AM 0.694
    27-ene-2011 7:00:00 AM 1.7 27-ene-2011 7:00:00 AM 0.704
    27-ene-2011 7:10:00 AM 1.7 27-ene-2011 7:10:00 AM 0.704
    27-ene-2011 7:30:00 AM 1.7 27-ene-2011 7:30:00 AM 0.704
    27-ene-2011 7:40:00 AM 1.7 27-ene-2011 7:40:00 AM 0.704
    27-ene-2011 8:00:00 AM 1.7 27-ene-2011 8:00:00 AM 0.704
    27-ene-2011 8:10:00 AM 1.7 27-ene-2011 8:10:00 AM 0.704
    27-ene-2011 8:30:00 AM 1.7 27-ene-2011 8:30:00 AM 0.704
    27-ene-2011 8:40:00 AM 1.7 27-ene-2011 8:40:00 AM 0.704
    27-ene-2011 9:00:00 AM 1.7 27-ene-2011 9:00:00 AM 0.694
    27-ene-2011 9:10:00 AM 1.7 27-ene-2011 9:10:00 AM 0.683
    27-ene-2011 9:30:00 AM 1.7 27-ene-2011 9:30:00 AM 0.683
    27-ene-2011 9:40:00 AM 1.7 27-ene-2011 9:40:00 AM 0.663
    27-ene-2011 10:00:00 AM 1.7 27-ene-2011 10:00:00 AM 0.663
    27-ene-2011 10:10:00 AM 1.7 27-ene-2011 10:10:00 AM 0.653
    27-ene-2011 10:30:00 AM 1.7 27-ene-2011 10:30:00 AM 0.644
    27-ene-2011 10:40:00 AM 1.7 27-ene-2011 10:40:00 AM 0.634
    27-ene-2011 11:00:00 AM 1.7 27-ene-2011 11:00:00 AM 0.615
    27-ene-2011 11:10:00 AM 1.7 27-ene-2011 11:10:00 AM 0.615
    27-ene-2011 11:30:00 AM 1.7 27-ene-2011 11:30:00 AM 0.592
    27-ene-2011 11:40:00 AM 1.7 27-ene-2011 11:40:00 AM 0.592
    27-ene-2011 12:00:00 PM 2.2 27-ene-2011 12:00:00 PM 0.584
    27-ene-2011 12:10:00 PM 2.2 27-ene-2011 12:10:00 PM 0.584
    27-ene-2011 12:30:00 PM 2.2 27-ene-2011 12:30:00 PM 0.576
    27-ene-2011 12:40:00 PM 2.2 27-ene-2011 12:40:00 PM 0.584
    27-ene-2011 1:00:00 PM 1.7 27-ene-2011 1:00:00 PM 0.592
    27-ene-2011 1:10:00 PM 1.7 27-ene-2011 1:10:00 PM 0.583
    27-ene-2011 1:30:00 PM 2.2 27-ene-2011 1:30:00 PM 0.593
    27-ene-2011 1:40:00 PM 1.7 27-ene-2011 1:40:00 PM 0.592
    27-ene-2011 2:00:00 PM 1.7 27-ene-2011 2:00:00 PM 0.583
    27-ene-2011 2:10:00 PM 1.7 27-ene-2011 2:10:00 PM 0.583
    27-ene-2011 2:30:00 PM 1.7 27-ene-2011 2:30:00 PM 0.583
    27-ene-2011 2:40:00 PM 1.7 27-ene-2011 2:40:00 PM 0.583
    27-ene-2011 2:50:00 PM 1.7 27-ene-2011 2:50:00 PM 0.583
    27-ene-2011 3:30:00 PM 2.2 27-ene-2011 3:30:00 PM 0.584
    27-ene-2011 3:40:00 PM 1.7 27-ene-2011 3:40:00 PM 0.592
    27-ene-2011 4:00:00 PM 1.7 27-ene-2011 4:00:00 PM 0.601
    27-ene-2011 4:10:00 PM 1.7 27-ene-2011 4:10:00 PM 0.601
    27-ene-2011 4:30:00 PM 1.7 27-ene-2011 4:30:00 PM 0.615
    27-ene-2011 4:40:00 PM 1.7 27-ene-2011 4:40:00 PM 0.624
    27-ene-2011 5:00:00 PM 1.1 27-ene-2011 5:00:00 PM 0.628
    27-ene-2011 5:10:00 PM 1.7 27-ene-2011 5:10:00 PM 0.624
    27-ene-2011 5:30:00 PM 1.7 27-ene-2011 5:30:00 PM 0.634
    27-ene-2011 5:40:00 PM 1.7 27-ene-2011 5:40:00 PM 0.634
    27-ene-2011 6:00:00 PM 1.7 27-ene-2011 6:00:00 PM 0.644
    27-ene-2011 6:10:00 PM 1.1 27-ene-2011 6:10:00 PM 0.647
    27-ene-2011 6:30:00 PM 1.1 27-ene-2011 6:30:00 PM 0.657
    27-ene-2011 6:40:00 PM 1.1 27-ene-2011 6:40:00 PM 0.657
    27-ene-2011 7:00:00 PM 1.1 27-ene-2011 7:00:00 PM 0.667
    27-ene-2011 7:10:00 PM 1.1 27-ene-2011 7:10:00 PM 0.657
    27-ene-2011 7:30:00 PM 1.1 27-ene-2011 7:30:00 PM 0.657
    27-ene-2011 7:40:00 PM 1.7 27-ene-2011 7:40:00 PM 0.644
    27-ene-2011 8:00:00 PM 1.7 27-ene-2011 8:00:00 PM 0.644
    27-ene-2011 8:10:00 PM 1.1 27-ene-2011 8:10:00 PM 0.637
    27-ene-2011 8:30:00 PM 1.7 27-ene-2011 8:30:00 PM 0.634
    27-ene-2011 8:40:00 PM 1.7 27-ene-2011 8:40:00 PM 0.634
    27-ene-2011 9:00:00 PM 1.7 27-ene-2011 9:00:00 PM 0.644
    27-ene-2011 9:10:00 PM 1.7 27-ene-2011 9:10:00 PM 0.644
    27-ene-2011 9:30:00 PM 1.1 27-ene-2011 9:30:00 PM 0.657
    27-ene-2011 9:40:00 PM 1.1 27-ene-2011 9:40:00 PM 0.667
    27-ene-2011 10:00:00 PM 1.7 27-ene-2011 10:00:00 PM 0.673
    27-ene-2011 10:10:00 PM 1.7 27-ene-2011 10:10:00 PM 0.673
    27-ene-2011 10:30:00 PM 1.7 27-ene-2011 10:30:00 PM 0.683
    27-ene-2011 10:40:00 PM 1.7 27-ene-2011 10:40:00 PM 0.683
    27-ene-2011 11:00:00 PM 1.7 27-ene-2011 11:00:00 PM 0.683
    27-ene-2011 11:10:00 PM 1.7 27-ene-2011 11:10:00 PM 0.683
    27-ene-2011 11:30:00 PM 1.1 27-ene-2011 11:30:00 PM 0.698
    27-ene-2011 11:40:00 PM 1.7 27-ene-2011 11:40:00 PM 0.694
    28-ene-2011 12:10:00 AM 1.7 28-ene-2011 12:10:00 AM 0.704
    28-ene-2011 12:30:00 AM 1.1 28-ene-2011 12:30:00 AM 0.713
    28-ene-2011 12:40:00 AM 1.1 28-ene-2011 12:40:00 AM 0.713
    28-ene-2011 1:00:00 AM 1.1 28-ene-2011 1:00:00 AM 0.735
    28-ene-2011 1:10:00 AM 1.1 28-ene-2011 1:10:00 AM 0.735
    28-ene-2011 1:30:00 AM 1.1 28-ene-2011 1:30:00 AM 0.757
    28-ene-2011 1:40:00 AM 1.1 28-ene-2011 1:40:00 AM 0.757
    28-ene-2011 2:00:00 AM 1.1 28-ene-2011 2:00:00 AM 0.769
    28-ene-2011 2:10:00 AM 1.1 28-ene-2011 2:10:00 AM 0.769
    28-ene-2011 2:30:00 AM 1.1 28-ene-2011 2:30:00 AM 0.774
    28-ene-2011 2:40:00 AM 1.1 28-ene-2011 2:40:00 AM 0.774
    28-ene-2011 3:00:00 AM 1.1 28-ene-2011 3:00:00 AM 0.786
    28-ene-2011 3:10:00 AM 1.1 28-ene-2011 3:10:00 AM 0.786
    28-ene-2011 3:30:00 AM 1.1 28-ene-2011 3:30:00 AM 0.786
    28-ene-2011 3:40:00 AM 1.1 28-ene-2011 3:40:00 AM 0.798
    28-ene-2011 4:00:00 AM 1.1 28-ene-2011 4:00:00 AM 0.798
    28-ene-2011 4:10:00 AM 1.1 28-ene-2011 4:10:00 AM 0.798
    28-ene-2011 4:30:00 AM 1.1 28-ene-2011 4:30:00 AM 0.798
    28-ene-2011 4:40:00 AM 1.1 28-ene-2011 4:40:00 AM 0.804
    28-ene-2011 5:00:00 AM 0.6 28-ene-2011 5:00:00 AM 0.803
    28-ene-2011 5:10:00 AM 0.6 28-ene-2011 5:10:00 AM 0.803
    28-ene-2011 5:30:00 AM 0.6 28-ene-2011 5:30:00 AM 0.803
    28-ene-2011 5:40:00 AM 0.6 28-ene-2011 5:40:00 AM 0.803
    28-ene-2011 6:00:00 AM 0.6 28-ene-2011 6:00:00 AM 0.803
    28-ene-2011 6:10:00 AM 0.6 28-ene-2011 6:10:00 AM 0.791
    28-ene-2011 6:30:00 AM 0 28-ene-2011 6:30:00 AM 0.784
    28-ene-2011 6:40:00 AM 0 28-ene-2011 6:40:00 AM 0.784
    28-ene-2011 7:00:00 AM 0 28-ene-2011 7:00:00 AM 0.778
    28-ene-2011 7:10:00 AM 0 28-ene-2011 7:10:00 AM 0.778
    28-ene-2011 7:30:00 AM -0.5 28-ene-2011 7:30:00 AM 0.772
    28-ene-2011 7:40:00 AM -0.5 28-ene-2011 7:40:00 AM 0.772
    28-ene-2011 8:00:00 AM 0 28-ene-2011 8:00:00 AM 0.778
    28-ene-2011 8:10:00 AM -0.5 28-ene-2011 8:10:00 AM 0.772
    28-ene-2011 8:30:00 AM 0 28-ene-2011 8:30:00 AM 0.778
    28-ene-2011 8:40:00 AM 0 28-ene-2011 8:40:00 AM 0.778
    28-ene-2011 9:00:00 AM 0 28-ene-2011 9:00:00 AM 0.778
    28-ene-2011 9:10:00 AM 0 28-ene-2011 9:10:00 AM 0.767
    28-ene-2011 9:30:00 AM 0.6 28-ene-2011 9:30:00 AM 0.734
    28-ene-2011 9:40:00 AM 0.6 28-ene-2011 9:40:00 AM 0.723
    28-ene-2011 10:00:00 AM 1.1 28-ene-2011 10:00:00 AM 0.698
    28-ene-2011 10:10:00 AM 1.1 28-ene-2011 10:10:00 AM 0.687
    28-ene-2011 10:30:00 AM 1.1 28-ene-2011 10:30:00 AM 0.677
    28-ene-2011 10:40:00 AM 1.7 28-ene-2011 10:40:00 AM 0.663
    28-ene-2011 11:00:00 AM 1.7 28-ene-2011 11:00:00 AM 0.644
    28-ene-2011 11:10:00 AM 1.7 28-ene-2011 11:10:00 AM 0.634
    28-ene-2011 11:30:00 AM 2.2 28-ene-2011 11:30:00 AM 0.626
    28-ene-2011 11:40:00 AM 2.2 28-ene-2011 11:40:00 AM 0.616
    28-ene-2011 12:00:00 PM 2.2 28-ene-2011 12:00:00 PM 0.616
    28-ene-2011 12:10:00 PM 2.2 28-ene-2011 12:10:00 PM 0.607
    28-ene-2011 12:30:00 PM 2.2 28-ene-2011 12:30:00 PM 0.607
    28-ene-2011 12:40:00 PM 2.2 28-ene-2011 12:40:00 PM 0.593
    28-ene-2011 1:00:00 PM 2.2 28-ene-2011 1:00:00 PM 0.593
    28-ene-2011 1:10:00 PM 2.8 28-ene-2011 1:10:00 PM 0.595
    28-ene-2011 1:30:00 PM 2.8 28-ene-2011 1:30:00 PM 0.604
    28-ene-2011 1:40:00 PM 2.8 28-ene-2011 1:40:00 PM 0.604
    28-ene-2011 2:00:00 PM 2.8 28-ene-2011 2:00:00 PM 0.582
    28-ene-2011 2:10:00 PM 2.8 28-ene-2011 2:10:00 PM 0.595
    28-ene-2011 2:30:00 PM 2.2 28-ene-2011 2:30:00 PM 0.593
    28-ene-2011 2:40:00 PM 2.2 28-ene-2011 2:40:00 PM 0.593
    28-ene-2011 3:00:00 PM 2.2 28-ene-2011 3:00:00 PM 0.593
    28-ene-2011 3:10:00 PM 2.8 28-ene-2011 3:10:00 PM 0.604
    28-ene-2011 3:30:00 PM 2.2 28-ene-2011 3:30:00 PM 0.607
    28-ene-2011 3:40:00 PM 2.2 28-ene-2011 3:40:00 PM 0.616
    28-ene-2011 4:00:00 PM 2.2 28-ene-2011 4:00:00 PM 0.626
    28-ene-2011 4:10:00 PM 2.2 28-ene-2011 4:10:00 PM 0.626
    28-ene-2011 4:30:00 PM 1.7 28-ene-2011 4:30:00 PM 0.634
    28-ene-2011 4:40:00 PM 1.7 28-ene-2011 4:40:00 PM 0.644
    28-ene-2011 5:00:00 PM 1.7 28-ene-2011 5:00:00 PM 0.653
    28-ene-2011 5:10:00 PM 1.1 28-ene-2011 5:10:00 PM 0.657
    28-ene-2011 5:30:00 PM 1.1 28-ene-2011 5:30:00 PM 0.667
    28-ene-2011 5:40:00 PM 1.1 28-ene-2011 5:40:00 PM 0.677
    28-ene-2011 6:00:00 PM 1.1 28-ene-2011 6:00:00 PM 0.677
    28-ene-2011 6:10:00 PM 0.6 28-ene-2011 6:10:00 PM 0.681
    28-ene-2011 6:30:00 PM 0.6 28-ene-2011 6:30:00 PM 0.691
    28-ene-2011 6:40:00 PM 0.6 28-ene-2011 6:40:00 PM 0.691
    28-ene-2011 7:00:00 PM 0 28-ene-2011 7:00:00 PM 0.706
    28-ene-2011 7:10:00 PM 0 28-ene-2011 7:10:00 PM 0.706
    28-ene-2011 7:30:00 PM 0.6 28-ene-2011 7:30:00 PM 0.702
    28-ene-2011 7:40:00 PM 0 28-ene-2011 7:40:00 PM 0.706
    28-ene-2011 8:00:00 PM 0 28-ene-2011 8:00:00 PM 0.727
    28-ene-2011 8:10:00 PM -0.5 28-ene-2011 8:10:00 PM 0.732
    28-ene-2011 8:30:00 PM -0.5 28-ene-2011 8:30:00 PM 0.743
    28-ene-2011 8:40:00 PM -0.5 28-ene-2011 8:40:00 PM 0.754
    28-ene-2011 9:00:00 PM 0 28-ene-2011 9:00:00 PM 0.744
    28-ene-2011 9:10:00 PM -0.5 28-ene-2011 9:10:00 PM 0.743
    28-ene-2011 9:30:00 PM -0.5 28-ene-2011 9:30:00 PM 0.743
    28-ene-2011 9:40:00 PM -0.5 28-ene-2011 9:40:00 PM 0.743
    28-ene-2011 10:00:00 PM -0.5 28-ene-2011 10:00:00 PM 0.754
    28-ene-2011 10:10:00 PM -1 28-ene-2011 10:10:00 PM 0.759
    28-ene-2011 10:30:00 PM -1 28-ene-2011 10:30:00 PM 0.759
    28-ene-2011 10:40:00 PM -1 28-ene-2011 10:40:00 PM 0.759
    28-ene-2011 11:00:00 PM -1 28-ene-2011 11:00:00 PM 0.759
    28-ene-2011 11:10:00 PM -1 28-ene-2011 11:10:00 PM 0.759
    28-ene-2011 11:30:00 PM -1 28-ene-2011 11:30:00 PM 0.759
    28-ene-2011 11:40:00 PM -1 28-ene-2011 11:40:00 PM 0.759
    29-ene-2011 12:10:00 AM -1 29-ene-2011 12:10:00 AM 0.759
    29-ene-2011 12:30:00 AM -1.6 29-ene-2011 12:30:00 AM 0.77
    29-ene-2011 12:40:00 AM -1 29-ene-2011 12:40:00 AM 0.771
    29-ene-2011 1:00:00 AM -1.6 29-ene-2011 1:00:00 AM 0.764
    29-ene-2011 1:10:00 AM -1.6 29-ene-2011 1:10:00 AM 0.77
    29-ene-2011 1:30:00 AM -2.1 29-ene-2011 1:30:00 AM 0.769
    29-ene-2011 1:40:00 AM -2.1 29-ene-2011 1:40:00 AM 0.781
    29-ene-2011 2:00:00 AM -2.1 29-ene-2011 2:00:00 AM 0.787
    29-ene-2011 2:10:00 AM -2.1 29-ene-2011 2:10:00 AM 0.787
    29-ene-2011 2:30:00 AM -2.1 29-ene-2011 2:30:00 AM 0.781
    29-ene-2011 2:40:00 AM -2.1 29-ene-2011 2:40:00 AM 0.781
    29-ene-2011 3:00:00 AM -2.1 29-ene-2011 3:00:00 AM 0.787
    29-ene-2011 3:10:00 AM -2.1 29-ene-2011 3:10:00 AM 0.781
    29-ene-2011 3:30:00 AM -1.6 29-ene-2011 3:30:00 AM 0.793
    29-ene-2011 3:40:00 AM -1.6 29-ene-2011 3:40:00 AM 0.782
    29-ene-2011 4:00:00 AM -1 29-ene-2011 4:00:00 AM 0.771
    29-ene-2011 4:10:00 AM -1.6 29-ene-2011 4:10:00 AM 0.764
    29-ene-2011 4:30:00 AM -1.6 29-ene-2011 4:30:00 AM 0.764
    29-ene-2011 4:40:00 AM -1.6 29-ene-2011 4:40:00 AM 0.764
    29-ene-2011 5:00:00 AM -1.6 29-ene-2011 5:00:00 AM 0.764
    29-ene-2011 5:10:00 AM -2.1 29-ene-2011 5:10:00 AM 0.757
    29-ene-2011 5:30:00 AM -2.1 29-ene-2011 5:30:00 AM 0.757
    29-ene-2011 5:40:00 AM -2.1 29-ene-2011 5:40:00 AM 0.757
    29-ene-2011 6:00:00 AM -2.1 29-ene-2011 6:00:00 AM 0.757
    29-ene-2011 6:10:00 AM -2.1 29-ene-2011 6:10:00 AM 0.769
    29-ene-2011 6:30:00 AM -2.7 29-ene-2011 6:30:00 AM 0.774
    29-ene-2011 6:40:00 AM -2.7 29-ene-2011 6:40:00 AM 0.774
    29-ene-2011 7:00:00 AM -2.7 29-ene-2011 7:00:00 AM 0.78
    29-ene-2011 7:10:00 AM -3.2 29-ene-2011 7:10:00 AM 0.779
    29-ene-2011 7:30:00 AM -3.2 29-ene-2011 7:30:00 AM 0.779
    29-ene-2011 7:40:00 AM -3.2 29-ene-2011 7:40:00 AM 0.791
    29-ene-2011 8:00:00 AM -3.2 29-ene-2011 8:00:00 AM 0.791
    29-ene-2011 8:10:00 AM -3.2 29-ene-2011 8:10:00 AM 0.791
    29-ene-2011 8:30:00 AM -3.2 29-ene-2011 8:30:00 AM 0.791
    29-ene-2011 8:40:00 AM -3.2 29-ene-2011 8:40:00 AM 0.797
    29-ene-2011 9:00:00 AM -2.7 29-ene-2011 9:00:00 AM 0.804
    29-ene-2011 9:10:00 AM -2.7 29-ene-2011 9:10:00 AM 0.792
    29-ene-2011 9:30:00 AM -2.1 29-ene-2011 9:30:00 AM 0.787
    29-ene-2011 9:40:00 AM -2.1 29-ene-2011 9:40:00 AM 0.787
    29-ene-2011 10:00:00 AM -1.6 29-ene-2011 10:00:00 AM 0.793
    29-ene-2011 10:10:00 AM -1.6 29-ene-2011 10:10:00 AM 0.782
    29-ene-2011 10:30:00 AM -1 29-ene-2011 10:30:00 AM 0.777
    29-ene-2011 10:40:00 AM -1 29-ene-2011 10:40:00 AM 0.771
    29-ene-2011 11:00:00 AM -0.5 29-ene-2011 11:00:00 AM 0.772
    29-ene-2011 11:10:00 AM -0.5 29-ene-2011 11:10:00 AM 0.772
    29-ene-2011 11:30:00 AM 0.6 29-ene-2011 11:30:00 AM 0.762
    29-ene-2011 11:40:00 AM 0.6 29-ene-2011 11:40:00 AM 0.751
    29-ene-2011 12:00:00 PM 1.1 29-ene-2011 12:00:00 PM 0.724
    29-ene-2011 12:10:00 PM 1.1 29-ene-2011 12:10:00 PM 0.713
    29-ene-2011 12:30:00 PM 1.1 29-ene-2011 12:30:00 PM 0.698
    29-ene-2011 12:40:00 PM 1.7 29-ene-2011 12:40:00 PM 0.683
    29-ene-2011 1:00:00 PM 1.7 29-ene-2011 1:00:00 PM 0.663
    29-ene-2011 1:10:00 PM 1.7 29-ene-2011 1:10:00 PM 0.653
    29-ene-2011 1:30:00 PM 1.7 29-ene-2011 1:30:00 PM 0.653
    29-ene-2011 1:40:00 PM 2.2 29-ene-2011 1:40:00 PM 0.654
    29-ene-2011 2:00:00 PM 2.2 29-ene-2011 2:00:00 PM 0.645
    29-ene-2011 2:10:00 PM 2.2 29-ene-2011 2:10:00 PM 0.645
    29-ene-2011 2:30:00 PM 2.2 29-ene-2011 2:30:00 PM 0.645
    29-ene-2011 2:40:00 PM 2.2 29-ene-2011 2:40:00 PM 0.645
    29-ene-2011 3:00:00 PM 2.2 29-ene-2011 3:00:00 PM 0.645
    29-ene-2011 3:10:00 PM 2.2 29-ene-2011 3:10:00 PM 0.645
    29-ene-2011 3:30:00 PM 2.2 29-ene-2011 3:30:00 PM 0.635
    29-ene-2011 3:40:00 PM 2.2 29-ene-2011 3:40:00 PM 0.645
    29-ene-2011 4:00:00 PM 2.2 29-ene-2011 4:00:00 PM 0.645
    29-ene-2011 4:10:00 PM 2.2 29-ene-2011 4:10:00 PM 0.654
    29-ene-2011 4:30:00 PM 2.2 29-ene-2011 4:30:00 PM 0.654
    29-ene-2011 4:40:00 PM 2.2 29-ene-2011 4:40:00 PM 0.654
    29-ene-2011 5:00:00 PM 1.7 29-ene-2011 5:00:00 PM 0.653
    29-ene-2011 5:10:00 PM 1.7 29-ene-2011 5:10:00 PM 0.653
    29-ene-2011 5:30:00 PM 1.7 29-ene-2011 5:30:00 PM 0.663
    29-ene-2011 5:40:00 PM 1.7 29-ene-2011 5:40:00 PM 0.663
    29-ene-2011 6:00:00 PM 1.7 29-ene-2011 6:00:00 PM 0.663
    29-ene-2011 6:10:00 PM 1.7 29-ene-2011 6:10:00 PM 0.663
    29-ene-2011 6:30:00 PM 1.7 29-ene-2011 6:30:00 PM 0.663
    29-ene-2011 6:40:00 PM 1.7 29-ene-2011 6:40:00 PM 0.673
    29-ene-2011 7:00:00 PM 1.7 29-ene-2011 7:00:00 PM 0.673
    29-ene-2011 7:10:00 PM 1.7 29-ene-2011 7:10:00 PM 0.673
    29-ene-2011 7:30:00 PM 2.2 29-ene-2011 7:30:00 PM 0.664
    29-ene-2011 7:40:00 PM 2.2 29-ene-2011 7:40:00 PM 0.674
    29-ene-2011 8:00:00 PM 2.2 29-ene-2011 8:00:00 PM 0.664
    29-ene-2011 8:10:00 PM 2.2 29-ene-2011 8:10:00 PM 0.664
    29-ene-2011 8:30:00 PM 2.2 29-ene-2011 8:30:00 PM 0.674
    29-ene-2011 9:00:00 PM 2.2 29-ene-2011 9:00:00 PM 0.664
    29-ene-2011 9:10:00 PM 2.2 29-ene-2011 9:10:00 PM 0.664
    29-ene-2011 9:30:00 PM 1.7 29-ene-2011 9:30:00 PM 0.663
    29-ene-2011 9:40:00 PM 1.7 29-ene-2011 9:40:00 PM 0.663
    29-ene-2011 10:00:00 PM 1.7 29-ene-2011 10:00:00 PM 0.663
    29-ene-2011 10:10:00 PM 1.7 29-ene-2011 10:10:00 PM 0.673
    29-ene-2011 10:30:00 PM 1.7 29-ene-2011 10:30:00 PM 0.683
    29-ene-2011 10:40:00 PM 1.7 29-ene-2011 10:40:00 PM 0.683
    29-ene-2011 11:00:00 PM 1.7 29-ene-2011 11:00:00 PM 0.694
    29-ene-2011 11:10:00 PM 1.1 29-ene-2011 11:10:00 PM 0.708
    29-ene-2011 11:30:00 PM 1.1 29-ene-2011 11:30:00 PM 0.708
    29-ene-2011 11:40:00 PM 1.1 29-ene-2011 11:40:00 PM 0.713
    30-ene-2011 12:10:00 AM 0.6 30-ene-2011 12:10:00 AM 0.723
    30-ene-2011 12:30:00 AM 0.6 30-ene-2011 12:30:00 AM 0.734
    30-ene-2011 1:00:00 AM 1.1 30-ene-2011 1:00:00 AM 0.735
    30-ene-2011 1:10:00 AM 1.1 30-ene-2011 1:10:00 AM 0.735
    30-ene-2011 1:30:00 AM 1.1 30-ene-2011 1:30:00 AM 0.724
    30-ene-2011 1:40:00 AM 1.1 30-ene-2011 1:40:00 AM 0.724
    30-ene-2011 2:00:00 AM 1.1 30-ene-2011 2:00:00 AM 0.724
    30-ene-2011 2:10:00 AM 1.1 30-ene-2011 2:10:00 AM 0.724
    30-ene-2011 2:30:00 AM 1.1 30-ene-2011 2:30:00 AM 0.735
    30-ene-2011 2:40:00 AM 1.1 30-ene-2011 2:40:00 AM 0.735
    30-ene-2011 3:00:00 AM 1.1 30-ene-2011 3:00:00 AM 0.735
    30-ene-2011 3:10:00 AM 1.1 30-ene-2011 3:10:00 AM 0.735
    30-ene-2011 3:30:00 AM 1.1 30-ene-2011 3:30:00 AM 0.735
    30-ene-2011 3:40:00 AM 1.1 30-ene-2011 3:40:00 AM 0.735
    30-ene-2011 4:00:00 AM 1.1 30-ene-2011 4:00:00 AM 0.735
    30-ene-2011 4:10:00 AM 1.1 30-ene-2011 4:10:00 AM 0.735
    30-ene-2011 4:30:00 AM 1.1 30-ene-2011 4:30:00 AM 0.735
    30-ene-2011 4:40:00 AM 1.1 30-ene-2011 4:40:00 AM 0.735
    30-ene-2011 5:00:00 AM 1.1 30-ene-2011 5:00:00 AM 0.735
    30-ene-2011 5:10:00 AM 1.1 30-ene-2011 5:10:00 AM 0.746
    30-ene-2011 5:30:00 AM 1.7 30-ene-2011 5:30:00 AM 0.736
    30-ene-2011 5:40:00 AM 1.7 30-ene-2011 5:40:00 AM 0.736
    30-ene-2011 6:00:00 AM 1.1 30-ene-2011 6:00:00 AM 0.746
    30-ene-2011 6:10:00 AM 1.1 30-ene-2011 6:10:00 AM 0.746
    30-ene-2011 6:30:00 AM 1.1 30-ene-2011 6:30:00 AM 0.746
    30-ene-2011 6:40:00 AM 1.7 30-ene-2011 6:40:00 AM 0.753
    30-ene-2011 7:00:00 AM 1.7 30-ene-2011 7:00:00 AM 0.742
    30-ene-2011 7:10:00 AM 1.7 30-ene-2011 7:10:00 AM 0.742
    30-ene-2011 7:30:00 AM 1.7 30-ene-2011 7:30:00 AM 0.753
    30-ene-2011 7:40:00 AM 1.7 30-ene-2011 7:40:00 AM 0.753
    30-ene-2011 8:00:00 AM 1.7 30-ene-2011 8:00:00 AM 0.753
    30-ene-2011 8:10:00 AM 1.7 30-ene-2011 8:10:00 AM 0.753
    30-ene-2011 8:30:00 AM 1.7 30-ene-2011 8:30:00 AM 0.764
    30-ene-2011 8:40:00 AM 1.7 30-ene-2011 8:40:00 AM 0.764
    30-ene-2011 9:00:00 AM 1.7 30-ene-2011 9:00:00 AM 0.764
    30-ene-2011 9:10:00 AM 1.7 30-ene-2011 9:10:00 AM 0.764
    30-ene-2011 9:30:00 AM 2.2 30-ene-2011 9:30:00 AM 0.765
    30-ene-2011 9:40:00 AM 2.2 30-ene-2011 9:40:00 AM 0.759
    30-ene-2011 10:00:00 AM 2.2 30-ene-2011 10:00:00 AM 0.748
    30-ene-2011 10:10:00 AM 2.2 30-ene-2011 10:10:00 AM 0.748
    30-ene-2011 10:30:00 AM 2.2 30-ene-2011 10:30:00 AM 0.737
    30-ene-2011 10:40:00 AM 2.2 30-ene-2011 10:40:00 AM 0.726
    30-ene-2011 11:00:00 AM 2.8 30-ene-2011 11:00:00 AM 0.706
    30-ene-2011 11:10:00 AM 2.8 30-ene-2011 11:10:00 AM 0.696
    30-ene-2011 11:30:00 AM 2.8 30-ene-2011 11:30:00 AM 0.686
    30-ene-2011 11:40:00 AM 2.8 30-ene-2011 11:40:00 AM 0.686
    30-ene-2011 12:00:00 PM 3.3 30-ene-2011 12:00:00 PM 0.667
    30-ene-2011 12:10:00 PM 3.3 30-ene-2011 12:10:00 PM 0.657
    30-ene-2011 12:30:00 PM 3.3 30-ene-2011 12:30:00 PM 0.647
    30-ene-2011 12:40:00 PM 3.3 30-ene-2011 12:40:00 PM 0.647
    30-ene-2011 1:00:00 PM 3.3 30-ene-2011 1:00:00 PM 0.624
    30-ene-2011 1:10:00 PM 3.3 30-ene-2011 1:10:00 PM 0.638
    30-ene-2011 1:30:00 PM 3.3 30-ene-2011 1:30:00 PM 0.624
    30-ene-2011 1:40:00 PM 3.9 30-ene-2011 1:40:00 PM 0.625
    30-ene-2011 2:10:00 PM 3.3 30-ene-2011 2:10:00 PM 0.614
    30-ene-2011 2:30:00 PM 3.3 30-ene-2011 2:30:00 PM 0.624
    30-ene-2011 2:40:00 PM 3.3 30-ene-2011 2:40:00 PM 0.624
    30-ene-2011 3:00:00 PM 3.3 30-ene-2011 3:00:00 PM 0.624
    30-ene-2011 3:10:00 PM 3.3 30-ene-2011 3:10:00 PM 0.624
    30-ene-2011 3:30:00 PM 3.3 30-ene-2011 3:30:00 PM 0.624
    30-ene-2011 3:40:00 PM 3.3 30-ene-2011 3:40:00 PM 0.624
    30-ene-2011 4:00:00 PM 2.8 30-ene-2011 4:00:00 PM 0.622
    30-ene-2011 4:10:00 PM 2.8 30-ene-2011 4:10:00 PM 0.632
    30-ene-2011 4:30:00 PM 2.2 30-ene-2011 4:30:00 PM 0.635
    30-ene-2011 4:40:00 PM 2.2 30-ene-2011 4:40:00 PM 0.645
    30-ene-2011 5:00:00 PM 2.2 30-ene-2011 5:00:00 PM 0.654
    30-ene-2011 5:10:00 PM 2.2 30-ene-2011 5:10:00 PM 0.654
    30-ene-2011 5:30:00 PM 1.7 30-ene-2011 5:30:00 PM 0.653
    30-ene-2011 5:40:00 PM 1.7 30-ene-2011 5:40:00 PM 0.663
    30-ene-2011 6:00:00 PM 1.7 30-ene-2011 6:00:00 PM 0.673
    30-ene-2011 6:10:00 PM 1.1 30-ene-2011 6:10:00 PM 0.677
    30-ene-2011 6:30:00 PM 1.1 30-ene-2011 6:30:00 PM 0.677
    30-ene-2011 6:40:00 PM 1.1 30-ene-2011 6:40:00 PM 0.677
    30-ene-2011 7:00:00 PM 0.6 30-ene-2011 7:00:00 PM 0.681
    30-ene-2011 7:10:00 PM 0.6 30-ene-2011 7:10:00 PM 0.681
    30-ene-2011 7:30:00 PM 0.6 30-ene-2011 7:30:00 PM 0.691
    30-ene-2011 7:40:00 PM 0 30-ene-2011 7:40:00 PM 0.695
    30-ene-2011 8:00:00 PM 0 30-ene-2011 8:00:00 PM 0.706
    30-ene-2011 8:10:00 PM 0 30-ene-2011 8:10:00 PM 0.706
    30-ene-2011 8:30:00 PM 0 30-ene-2011 8:30:00 PM 0.717
    30-ene-2011 8:40:00 PM 0 30-ene-2011 8:40:00 PM 0.727
    30-ene-2011 9:00:00 PM -0.5 30-ene-2011 9:00:00 PM 0.721
    30-ene-2011 9:10:00 PM 0 30-ene-2011 9:10:00 PM 0.733
    30-ene-2011 9:30:00 PM 0 30-ene-2011 9:30:00 PM 0.744
    30-ene-2011 9:40:00 PM 0 30-ene-2011 9:40:00 PM 0.744
    30-ene-2011 10:00:00 PM 0 30-ene-2011 10:00:00 PM 0.744
    30-ene-2011 10:10:00 PM 0 30-ene-2011 10:10:00 PM 0.744
    30-ene-2011 10:30:00 PM 0 30-ene-2011 10:30:00 PM 0.755
    30-ene-2011 10:40:00 PM 0.6 30-ene-2011 10:40:00 PM 0.751
    30-ene-2011 11:00:00 PM 0.6 30-ene-2011 11:00:00 PM 0.751
    30-ene-2011 11:10:00 PM 0.6 30-ene-2011 11:10:00 PM 0.751
    30-ene-2011 11:30:00 PM 0.6 30-ene-2011 11:30:00 PM 0.745
    30-ene-2011 11:40:00 PM 0.6 30-ene-2011 11:40:00 PM 0.745
    31-ene-2011 12:10:00 AM 0.6 31-ene-2011 12:10:00 AM 0.751
    31-ene-2011 12:30:00 AM 0.6 31-ene-2011 12:30:00 AM 0.751
    31-ene-2011 12:40:00 AM 0.6 31-ene-2011 12:40:00 AM 0.751
    31-ene-2011 1:00:00 AM 0.6 31-ene-2011 1:00:00 AM 0.751
    31-ene-2011 1:10:00 AM 0.6 31-ene-2011 1:10:00 AM 0.751
    31-ene-2011 1:30:00 AM 0 31-ene-2011 1:30:00 AM 0.755
    31-ene-2011 1:40:00 AM 0 31-ene-2011 1:40:00 AM 0.755
    31-ene-2011 2:00:00 AM 0 31-ene-2011 2:00:00 AM 0.755
    31-ene-2011 2:10:00 AM 0 31-ene-2011 2:10:00 AM 0.767
    31-ene-2011 2:30:00 AM 0 31-ene-2011 2:30:00 AM 0.778
    31-ene-2011 2:40:00 AM 0 31-ene-2011 2:40:00 AM 0.767
    31-ene-2011 3:00:00 AM 0 31-ene-2011 3:00:00 AM 0.767
    31-ene-2011 3:10:00 AM 0 31-ene-2011 3:10:00 AM 0.767
    31-ene-2011 3:30:00 AM 0.6 31-ene-2011 3:30:00 AM 0.762
    31-ene-2011 3:40:00 AM 0.6 31-ene-2011 3:40:00 AM 0.762
    31-ene-2011 4:00:00 AM 0.6 31-ene-2011 4:00:00 AM 0.751
    31-ene-2011 4:10:00 AM 0.6 31-ene-2011 4:10:00 AM 0.751
    31-ene-2011 4:30:00 AM 0.6 31-ene-2011 4:30:00 AM 0.751
    31-ene-2011 4:40:00 AM 0.6 31-ene-2011 4:40:00 AM 0.751
    31-ene-2011 5:00:00 AM 0.6 31-ene-2011 5:00:00 AM 0.762
    31-ene-2011 5:10:00 AM 0.6 31-ene-2011 5:10:00 AM 0.751
    31-ene-2011 5:30:00 AM 0.6 31-ene-2011 5:30:00 AM 0.762
    31-ene-2011 5:40:00 AM 0.6 31-ene-2011 5:40:00 AM 0.751
    31-ene-2011 6:00:00 AM 0.6 31-ene-2011 6:00:00 AM 0.762
    31-ene-2011 6:10:00 AM 0.6 31-ene-2011 6:10:00 AM 0.762
    31-ene-2011 6:30:00 AM 0.6 31-ene-2011 6:30:00 AM 0.762
    31-ene-2011 6:40:00 AM 0.6 31-ene-2011 6:40:00 AM 0.762
    31-ene-2011 7:00:00 AM 0.6 31-ene-2011 7:00:00 AM 0.762
    31-ene-2011 7:10:00 AM 0.6 31-ene-2011 7:10:00 AM 0.762
    31-ene-2011 7:30:00 AM 0.6 31-ene-2011 7:30:00 AM 0.762
    31-ene-2011 7:40:00 AM 0.6 31-ene-2011 7:40:00 AM 0.774
    31-ene-2011 8:00:00 AM 0.6 31-ene-2011 8:00:00 AM 0.774
    31-ene-2011 8:10:00 AM 0.6 31-ene-2011 8:10:00 AM 0.774
    31-ene-2011 8:30:00 AM 1.1 31-ene-2011 8:30:00 AM 0.774
    31-ene-2011 8:40:00 AM 1.1 31-ene-2011 8:40:00 AM 0.774
    31-ene-2011 9:00:00 AM 1.1 31-ene-2011 9:00:00 AM 0.774
    31-ene-2011 9:10:00 AM 1.1 31-ene-2011 9:10:00 AM 0.774
    31-ene-2011 9:30:00 AM 1.1 31-ene-2011 9:30:00 AM 0.774
    31-ene-2011 9:40:00 AM 1.1 31-ene-2011 9:40:00 AM 0.774
    31-ene-2011 10:00:00 AM 1.1 31-ene-2011 10:00:00 AM 0.774
    31-ene-2011 10:10:00 AM 1.1 31-ene-2011 10:10:00 AM 0.774
    31-ene-2011 10:30:00 AM 1.1 31-ene-2011 10:30:00 AM 0.774
    31-ene-2011 10:40:00 AM 1.7 31-ene-2011 10:40:00 AM 0.775
    31-ene-2011 11:00:00 AM 1.7 31-ene-2011 11:00:00 AM 0.775
    31-ene-2011 11:30:00 AM 1.7 31-ene-2011 11:30:00 AM 0.775
    31-ene-2011 11:40:00 AM 2.2 31-ene-2011 11:40:00 AM 0.776
    31-ene-2011 12:00:00 PM 2.2 31-ene-2011 12:00:00 PM 0.765
    31-ene-2011 12:10:00 PM 2.2 31-ene-2011 12:10:00 PM 0.776
    31-ene-2011 12:30:00 PM 2.2 31-ene-2011 12:30:00 PM 0.765
    31-ene-2011 12:40:00 PM 2.8 31-ene-2011 12:40:00 PM 0.772
    31-ene-2011 1:00:00 PM 2.8 31-ene-2011 1:00:00 PM 0.772
    31-ene-2011 1:10:00 PM 2.8 31-ene-2011 1:10:00 PM 0.772
    31-ene-2011 1:30:00 PM 3.3 31-ene-2011 1:30:00 PM 0.789
    31-ene-2011 1:40:00 PM 3.3 31-ene-2011 1:40:00 PM 0.789
    31-ene-2011 2:00:00 PM 2.8 31-ene-2011 2:00:00 PM 0.794
    31-ene-2011 2:10:00 PM 2.8 31-ene-2011 2:10:00 PM 0.794
    31-ene-2011 2:30:00 PM 2.8 31-ene-2011 2:30:00 PM 0.794
    31-ene-2011 2:40:00 PM 2.8 31-ene-2011 2:40:00 PM 0.794
    31-ene-2011 3:00:00 PM 2.8 31-ene-2011 3:00:00 PM 0.794
    31-ene-2011 3:10:00 PM 2.2 31-ene-2011 3:10:00 PM 0.805
    31-ene-2011 3:30:00 PM 2.2 31-ene-2011 3:30:00 PM 0.805
    31-ene-2011 3:40:00 PM 2.2 31-ene-2011 3:40:00 PM 0.805
    31-ene-2011 4:00:00 PM 1.7 31-ene-2011 4:00:00 PM 0.793
    31-ene-2011 4:10:00 PM 1.7 31-ene-2011 4:10:00 PM 0.804
    31-ene-2011 4:30:00 PM 1.7 31-ene-2011 4:30:00 PM 0.793
    31-ene-2011 4:40:00 PM 1.7 31-ene-2011 4:40:00 PM 0.793
    31-ene-2011 5:00:00 PM 1.7 31-ene-2011 5:00:00 PM 0.793
    31-ene-2011 5:10:00 PM 1.1 31-ene-2011 5:10:00 PM 0.798
    31-ene-2011 5:30:00 PM 1.1 31-ene-2011 5:30:00 PM 0.798
    31-ene-2011 5:40:00 PM 1.1 31-ene-2011 5:40:00 PM 0.798
    31-ene-2011 6:00:00 PM 1.1 31-ene-2011 6:00:00 PM 0.804
    31-ene-2011 6:10:00 PM 1.1 31-ene-2011 6:10:00 PM 0.804
    31-ene-2011 6:30:00 PM 1.1 31-ene-2011 6:30:00 PM 0.804
    31-ene-2011 6:40:00 PM 1.1 31-ene-2011 6:40:00 PM 0.804
    31-ene-2011 7:00:00 PM 1.1 31-ene-2011 7:00:00 PM 0.804
    31-ene-2011 7:10:00 PM 1.1 31-ene-2011 7:10:00 PM 0.804
    31-ene-2011 7:30:00 PM 1.1 31-ene-2011 7:30:00 PM 0.798
    31-ene-2011 7:40:00 PM 1.1 31-ene-2011 7:40:00 PM 0.798
    31-ene-2011 8:00:00 PM 1.1 31-ene-2011 8:00:00 PM 0.786
    31-ene-2011 8:10:00 PM 1.1 31-ene-2011 8:10:00 PM 0.786
    31-ene-2011 8:30:00 PM 1.1 31-ene-2011 8:30:00 PM 0.786
    31-ene-2011 8:40:00 PM 1.1 31-ene-2011 8:40:00 PM 0.786
    31-ene-2011 9:00:00 PM 1.1 31-ene-2011 9:00:00 PM 0.786
    31-ene-2011 9:10:00 PM 1.1 31-ene-2011 9:10:00 PM 0.786
    31-ene-2011 9:30:00 PM 0.6 31-ene-2011 9:30:00 PM 0.785
    31-ene-2011 9:40:00 PM 0.6 31-ene-2011 9:40:00 PM 0.785
    31-ene-2011 10:00:00 PM 0.6 31-ene-2011 10:00:00 PM 0.791
    31-ene-2011 10:10:00 PM 0 31-ene-2011 10:10:00 PM 0.808
    31-ene-2011 10:30:00 PM 0 31-ene-2011 10:30:00 PM 0.814
    31-ene-2011 10:40:00 PM 0 31-ene-2011 10:40:00 PM 0.814
    31-ene-2011 11:00:00 PM 0 31-ene-2011 11:00:00 PM 0.826
    31-ene-2011 11:10:00 PM 0 31-ene-2011 11:10:00 PM 0.826
    31-ene-2011 11:30:00 PM 0 31-ene-2011 11:30:00 PM 0.826
    31-ene-2011 11:40:00 PM 0 31-ene-2011 11:40:00 PM 0.826

  3. #3
    Join Date
    May 2007
    Location
    Auckland
    Age
    67
    Posts
    3,362
    Rep Power
    31

    Re: Wet Bulb and Dry Bulb Data

    MF
    did you get all that. That will definitly slow down the R-E data server.

  4. #4
    Join Date
    Feb 2012
    Location
    Bolivia
    Posts
    270
    Rep Power
    7

    Re: Wet Bulb and Dry Bulb Data

    Quote Originally Posted by Magoo View Post
    MF
    did you get all that. That will definitly slow down the R-E data server.
    No MF. But placing the whole year would!

    If Mad Fridge can process raw data I can provide a little.

Posting Permissions

  • You may not post new threads
  • You may not post replies
  • You may not post attachments
  • You may not edit your posts
  •